GFSSW_sfc_rhum_000.txt.gz
RH
76 82 76 83 84 84 79 78 81 76 76 76 76 77 78 80 84 91 86 45 62 65 48 28 25 29 34 35 28 24 26 27 26 33 29 18 23 20 40 48 47 48 64 76 94
79 81 78 84 86 86 88 87 85 84 76 76 77 78 79 80 88 94 64 72 75 68 22 24 27 29 34 33 27 26 28 22 16 16 28 22 28 32 45 52 55 57 73 90 95
80 82 78 78 85 86 88 88 87 79 76 76 77 78 80 79 84 44 62 70 75 58 22 21 21 25 32 29 28 26 21 13 10 10 9 22 19 35 47 58 55 60 85 90 98
83 79 80 81 85 85 87 87 86 80 76 77 76 78 80 86 40 28 71 74 78 41 22 23 24 29 32 28 23 19 14 10 11 11 11 22 16 40 34 35 45 54 72 77 88
84 80 81 81 82 87 88 88 77 77 77 76 77 80 93 85 53 40 82 78 51 26 23 23 26 26 27 24 14 16 12 13 12 10 12 10 21 32 24 42 44 52 63 68 72
81 81 82 80 84 81 85 88 78 78 78 77 78 79 94 56 23 40 55 42 32 27 27 23 23 22 22 15 17 15 13 14 16 13 12 12 18 18 23 57 47 49 58 60 62
86 82 82 86 84 84 82 83 78 78 78 78 80 79 95 44 25 32 33 30 30 27 25 26 21 20 21 17 14 14 12 14 14 18 17 17 20 22 38 54 50 44 49 49 48
84 84 84 88 87 83 80 81 80 80 80 80 83 86 69 30 33 28 22 15 20 24 22 19 23 24 18 18 18 17 20 18 16 20 23 14 18 22 46 57 62 58 56 57 60
84 84 85 88 82 82 82 80 81 80 79 86 94 95 42 27 22 15 14 15 16 19 21 14 17 20 17 20 21 23 24 24 23 22 22 20 34 42 41 58 59 64 62 63 70
86 85 86 92 91 83 82 84 84 86 84 77 82 70 33 22 21 15 15 16 19 21 20 21 24 22 25 18 23 21 24 46 23 35 45 43 67 64 64 60 73 76 77 76 72
87 92 95 95 94 84 87 92 86 82 96 34 35 32 34 23 20 15 16 20 21 22 28 27 26 28 28 24 18 22 24 26 29 31 50 62 64 62 72 76 76 77 75 71 69
95 95 94 95 94 90 90 97 47 47 59 56 49 39 34 29 22 19 23 23 25 28 31 28 30 28 31 33 30 30 33 41 41 39 49 54 54 53 55 65 76 73 72 67 67
95 94 95 96 95 96 97 67 55 55 54 31 40 34 25 22 22 25 25 29 28 28 29 31 29 30 35 35 35 42 35 38 44 44 47 50 54 56 52 63 64 67 68 65 67
95 94 96 96 96 92 81 52 65 52 43 31 26 20 23 24 25 22 24 25 29 32 32 37 36 33 34 33 38 41 39 38 48 50 56 47 76 59 64 71 69 72 70 72 64
95 94 96 84 91 91 58 80 71 44 59 27 25 19 22 26 22 25 31 25 31 32 33 41 39 36 33 38 38 42 36 38 40 43 46 50 65 61 64 72 70 71 68 72 72
95 95 96 96 98 73 77 58 42 71 55 32 27 27 28 29 31 28 30 30 31 37 36 40 36 35 38 37 36 36 44 49 57 57 66 52 59 66 70 64 68 65 64 65 67
95 96 93 77 78 89 74 46 65 78 37 33 32 30 32 37 37 35 38 41 40 44 50 37 38 35 37 40 39 44 50 69 64 74 76 57 59 56 50 55 58 60 63 67 73
95 97 96 88 85 82 52 46 66 49 40 32 34 33 37 40 42 41 41 43 40 45 53 48 51 38 32 40 41 46 50 70 64 84 67 54 66 55 47 47 52 56 61 66 69
98 97 98 95 90 74 54 77 64 53 33 34 35 39 45 40 40 44 49 45 48 46 48 51 47 36 36 37 40 47 53 49 72 75 73 70 57 52 59 57 56 56 60 71 70
98 95 78 87 72 62 72 72 66 54 41 36 40 41 46 45 46 50 54 53 50 50 46 46 44 42 34 39 38 42 41 50 70 63 72 70 67 69 62 60 57 62 65 71 69
71 53 50 90 51 53 69 70 64 50 42 35 40 45 44 42 51 57 54 56 57 53 48 47 46 44 43 45 48 45 48 60 62 74 73 86 72 57 55 57 56 63 69 70 73
64 53 65 51 50 84 60 64 61 40 41 47 44 41 44 56 62 63 57 59 62 61 46 56 59 72 46 43 47 45 50 47 62 54 88 87 59 59 60 52 62 71 70 72 67
73 94 88 50 67 90 59 58 53 41 44 46 50 51 58 65 67 69 67 62 52 56 51 49 64 77 55 43 42 48 57 59 63 78 76 82 60 65 70 71 70 77 75 72 70
83 93 84 76 70 48 48 51 52 47 48 45 51 50 59 69 70 72 71 62 55 60 76 60 63 56 61 52 54 47 55 56 52 75 70 74 51 73 77 77 81 79 76 73 68
78 81 80 93 87 60 47 56 55 55 47 45 49 50 57 72 76 78 73 62 55 70 75 54 60 67 71 67 57 48 46 60 52 54 58 56 56 48 70 76 78 76 75 72 68
88 73 70 73 77 73 76 56 53 52 52 50 48 62 59 64 54 70 62 57 50 75 79 69 74 75 80 76 70 58 49 53 60 56 62 69 61 71 77 79 79 76 74 71 65
94 86 64 87 79 80 83 63 55 54 65 59 54 62 68 74 73 77 74 74 70 71 82 76 89 62 51 80 66 56 52 52 54 55 57 73 57 81 85 78 76 80 74 70 61

GFSSW_sfc_rhum_003.txt.gz
RH
76 76 81 79 82 84 86 86 80 77 80 79 79 77 77 78 80 84 82 40 54 74 53 22 20 22 23 24 19 17 18 28 23 23 24 22 25 22 35 40 39 38 60 64 82
78 76 76 80 84 87 88 89 85 84 82 75 77 77 78 78 83 87 59 72 75 73 19 19 20 24 24 23 20 17 20 18 17 20 24 19 18 30 38 39 41 61 80 77 78
83 78 83 82 86 87 87 89 89 87 84 76 80 76 78 77 84 39 62 72 76 56 18 18 19 22 24 20 20 20 17 14 9 6 15 21 18 30 37 38 37 56 88 86 86
78 78 82 81 78 86 87 87 87 85 76 80 79 77 78 83 31 20 80 75 76 29 19 20 18 21 23 22 17 15 14 8 6 8 18 18 23 36 27 24 33 57 81 84 85
86 79 81 79 80 85 79 86 86 83 80 78 77 76 83 82 54 39 82 78 56 23 20 21 23 23 25 23 13 13 10 12 9 11 17 13 27 31 14 36 41 62 74 79 86
87 80 85 81 80 85 80 81 87 86 83 78 74 76 91 53 22 45 55 46 32 22 22 20 19 20 20 16 15 13 12 12 11 10 10 14 13 13 21 38 51 66 68 70 71
85 81 82 85 85 84 78 85 87 84 79 75 75 79 93 47 23 39 31 31 28 23 25 23 19 19 20 13 12 12 12 12 14 14 15 14 15 20 32 40 45 58 57 57 53
82 83 85 82 87 80 84 86 85 79 77 76 85 84 74 36 35 30 26 19 24 24 20 19 21 18 14 15 16 14 18 15 12 15 17 10 14 31 36 40 42 41 44 45 47
83 85 82 88 88 84 88 84 81 75 77 88 88 91 55 32 24 18 14 13 17 23 23 17 18 20 14 18 18 21 17 18 16 26 17 18 28 42 41 44 46 48 47 48 51
84 83 87 89 88 90 86 83 81 86 85 80 80 78 39 22 24 14 14 15 18 20 22 22 20 20 18 15 19 19 18 17 18 23 32 37 49 50 53 46 54 54 56 53 57
87 84 89 93 92 85 90 88 84 82 92 48 44 36 27 24 19 13 16 20 20 23 24 24 20 21 20 18 15 17 18 18 20 32 41 50 51 53 55 54 58 57 55 58 64
85 87 93 89 93 85 88 94 51 45 56 70 55 46 36 28 20 16 20 21 24 25 22 23 26 22 28 27 26 27 29 34 34 34 39 44 53 52 53 59 59 57 57 57 63
87 92 92 91 92 89 91 90 61 52 55 36 47 35 25 24 22 22 22 25 23 25 25 29 23 27 28 30 32 33 32 36 35 36 35 38 46 55 54 57 57 56 55 56 59
89 94 93 93 90 89 91 67 74 63 44 32 24 22 22 22 28 22 24 23 26 28 31 30 29 27 28 31 30 35 32 38 39 36 36 33 38 54 56 60 58 57 56 55 50
91 94 95 85 90 88 63 76 65 50 63 29 23 18 23 22 22 24 26 23 29 29 28 32 31 29 32 31 33 36 38 34 32 32 32 37 36 43 54 62 58 56 55 51 46
93 95 95 91 93 86 75 60 52 69 58 29 25 26 28 31 31 28 27 28 29 34 32 32 28 28 28 33 33 38 38 40 43 40 46 38 34 40 54 52 54 52 53 49 44
93 95 89 85 82 82 80 51 66 71 37 31 30 28 31 38 35 33 36 39 33 42 43 32 31 28 31 32 31 34 39 49 50 57 50 46 43 35 38 44 46 49 48 49 48
94 94 86 87 85 90 58 48 54 44 40 29 32 31 34 36 37 35 35 38 36 37 42 34 39 27 29 30 32 36 38 56 60 63 45 44 48 32 35 36 40 41 43 49 51
96 94 97 89 86 88 56 78 51 46 31 32 32 36 42 36 37 40 40 39 37 36 41 45 36 27 31 29 29 34 38 40 59 60 55 45 42 34 41 39 45 48 48 50 50
96 96 86 85 90 66 68 59 48 46 40 34 36 40 43 41 41 40 42 43 40 42 38 42 40 34 30 30 34 32 35 41 50 63 58 45 51 40 49 43 44 49 49 51 52
88 79 64 82 64 59 71 54 54 50 42 34 39 42 41 42 46 45 45 46 47 41 37 36 44 41 34 35 34 36 39 50 46 55 47 52 38 43 44 41 44 43 49 52 54
77 62 70 62 56 72 60 54 59 49 40 44 38 41 44 50 52 53 51 48 56 51 42 42 54 57 34 33 36 33 37 40 49 44 63 65 38 47 52 44 46 44 52 53 54
66 87 84 59 67 86 56 52 52 45 42 45 50 50 56 60 59 60 58 57 50 46 48 46 55 60 41 31 33 35 42 46 52 65 64 83 36 50 57 53 46 48 56 57 53
83 92 84 70 62 51 49 50 47 48 46 45 50 52 59 63 64 68 63 56 56 57 78 58 52 52 50 39 41 43 48 44 41 57 54 60 37 35 48 54 59 59 56 53 51
77 80 82 93 71 53 43 44 48 53 46 44 49 49 56 68 68 71 61 53 56 69 64 49 55 52 57 56 46 35 44 46 38 42 51 42 43 33 39 49 55 58 56 54 52
75 76 72 76 69 53 60 57 50 48 52 49 50 56 55 62 53 68 59 52 49 65 61 60 66 62 66 61 57 49 40 43 50 48 43 46 46 37 51 53 61 59 57 55 52
92 76 62 85 83 65 74 57 52 53 64 54 52 58 62 63 63 66 65 67 62 63 69 65 80 60 56 63 53 58 51 44 48 44 44 55 39 57 62 60 57 59 56 55 54

GFSSW_sfc_rhum_006.txt.gz
RH
85 83 83 85 85 86 86 85 86 85 84 81 81 79 80 81 81 51 48 29 38 72 63 21 18 16 14 12 13 12 10 11 18 21 30 27 27 22 21 31 33 32 38 47 57
79 81 80 85 86 87 86 86 86 86 85 83 81 80 82 82 61 45 38 65 72 75 14 13 13 14 14 13 14 13 12 14 14 18 19 17 17 23 30 33 33 41 45 52 52
82 82 82 84 86 87 87 86 86 86 85 81 81 81 83 74 52 23 66 69 75 61 10 10 11 15 14 13 14 13 12 10 12 16 14 14 15 18 24 32 27 45 53 62 58
84 84 84 83 83 86 86 86 85 86 84 81 79 79 80 63 23 14 82 78 78 27 13 12 13 16 13 15 12 15 11 10 6 5 13 15 16 22 19 18 22 41 52 60 64
87 87 85 82 82 86 86 86 86 85 83 80 78 77 64 48 26 28 80 72 32 17 13 14 14 13 12 13 13 14 11 9 6 8 14 17 22 22 19 25 32 43 49 53 52
86 87 88 84 83 84 87 87 86 86 81 79 78 79 64 34 15 25 36 33 20 15 14 13 12 12 13 14 12 11 8 7 8 11 11 18 19 15 17 29 36 44 43 45 48
84 87 89 86 86 87 86 86 88 82 79 77 76 68 66 26 16 23 24 21 15 13 15 15 13 13 14 14 9 9 8 8 10 10 10 8 11 20 26 31 39 38 38 40 40
80 88 89 88 87 88 85 88 86 80 78 77 80 73 42 23 18 21 18 19 18 16 14 15 15 15 14 11 9 9 8 10 12 9 11 9 11 21 28 27 32 36 41 42 39
80 88 88 89 88 87 88 86 82 76 75 82 76 72 27 30 19 12 16 10 16 19 19 14 16 16 13 11 11 11 10 10 12 15 10 8 11 24 30 26 29 33 36 36 39
84 89 88 88 89 89 83 82 81 82 78 70 67 70 27 15 15 12 9 10 13 18 19 17 14 14 13 10 14 12 10 8 10 17 11 14 22 25 32 29 29 29 32 35 36
83 89 90 90 92 88 79 68 66 66 77 31 25 29 16 14 15 9 10 12 13 14 15 16 13 13 13 11 10 10 11 10 14 23 23 24 24 27 32 33 36 33 33 33 37
89 91 91 92 92 87 70 57 38 43 31 40 37 32 23 20 16 10 13 11 13 11 16 16 17 17 18 14 13 12 12 16 21 24 22 24 30 31 31 36 34 34 35 38 45
92 91 91 94 90 81 70 54 43 44 41 31 32 22 18 19 13 11 14 15 14 11 17 13 20 20 16 16 16 18 16 22 16 24 22 23 29 32 39 38 40 37 36 39 44
93 92 94 92 80 57 57 39 39 52 27 21 19 18 16 15 17 16 16 14 18 17 18 20 20 18 18 19 21 19 21 20 24 22 20 23 21 34 37 43 41 43 42 44 48
93 93 95 85 64 54 48 53 55 48 44 18 16 13 16 16 17 19 18 16 16 20 22 25 20 20 19 23 24 25 24 22 22 20 23 24 20 32 37 42 44 44 45 46 46
92 93 94 85 77 62 56 53 47 51 37 21 16 18 19 20 20 19 19 18 19 21 20 22 20 20 22 25 23 26 25 24 24 23 32 21 23 20 34 32 40 41 41 41 40
93 93 92 63 49 65 72 48 42 45 23 20 19 18 19 22 24 22 22 22 19 27 26 22 23 20 21 25 26 24 24 29 29 36 35 31 28 19 21 28 34 40 36 38 36
94 93 92 66 55 74 52 33 37 23 22 19 18 20 22 22 26 25 25 23 24 22 22 20 31 21 22 22 21 25 23 28 35 41 22 32 26 16 24 24 29 31 31 33 32
95 90 86 70 74 76 46 66 32 26 20 21 21 22 26 25 23 26 26 24 25 25 20 24 26 22 24 22 21 27 29 27 40 46 42 22 24 23 26 26 29 29 30 31 31
79 84 59 64 72 66 54 45 25 28 26 22 21 21 26 25 22 24 28 28 29 28 28 27 30 25 24 23 25 24 24 33 36 49 41 24 30 22 32 30 30 30 32 30 30
65 56 65 71 67 47 53 33 29 32 32 25 21 25 22 29 24 23 24 31 30 28 24 22 26 32 28 26 23 28 26 28 28 40 32 28 16 26 27 28 32 31 31 30 33
60 54 68 64 50 35 36 28 47 33 32 29 25 24 26 29 28 28 27 29 37 29 29 28 32 44 28 26 26 24 23 21 30 31 45 53 21 26 32 30 27 29 30 30 34
51 54 60 54 54 70 37 30 34 30 27 31 29 29 34 34 39 36 36 41 38 34 32 32 36 43 34 29 26 27 25 23 32 44 41 67 20 25 31 33 30 30 28 34 37
44 74 63 40 33 33 33 31 27 34 30 31 36 37 39 40 43 46 45 42 42 39 72 45 36 36 39 26 26 34 30 25 22 37 28 34 15 18 22 27 28 32 30 35 40
51 48 39 74 46 31 29 26 25 34 32 31 36 33 36 50 46 48 44 41 44 65 45 36 41 36 34 35 31 26 26 28 25 25 33 17 20 14 17 19 23 31 35 36 40
54 50 49 40 38 32 39 28 23 31 33 31 32 37 37 45 35 47 41 38 37 46 42 43 50 47 49 40 35 35 25 25 26 24 26 20 23 16 20 26 30 36 38 38 39
54 47 36 72 41 36 35 28 25 35 46 36 32 40 44 44 44 41 42 40 37 43 51 51 62 48 42 47 45 72 40 25 24 24 27 30 22 25 30 32 31 34 38 38 37

GFSSW_sfc_rhum_009.txt.gz
RH
77 76 74 81 85 86 87 86 86 84 85 84 83 82 78 81 77 47 41 27 30 62 68 14 13 13 10 9 6 8 11 9 9 18 31 18 21 16 15 18 22 47 30 38 45
79 79 80 83 85 88 88 86 85 85 86 85 83 81 81 78 56 37 33 69 59 70 19 13 14 11 10 10 8 8 10 8 12 19 28 23 18 26 19 26 29 40 34 42 43
79 79 82 83 86 86 88 87 86 85 85 84 81 81 82 70 44 18 66 70 67 61 10 8 8 9 11 9 9 8 12 13 21 14 15 15 15 14 33 28 24 37 41 40 42
80 83 83 83 84 86 88 86 86 86 85 81 79 77 78 56 28 18 70 72 68 26 13 8 9 12 12 11 9 12 10 9 8 11 11 13 10 26 47 62 39 26 34 33 43
87 81 85 82 83 86 87 86 86 86 84 79 77 76 60 42 24 35 80 70 27 22 14 11 11 11 11 9 9 11 10 9 7 7 11 12 14 14 17 19 23 31 36 34 38
89 84 87 86 85 87 87 86 87 87 82 77 74 77 54 36 11 18 20 21 15 15 11 10 10 9 10 10 11 10 10 7 8 11 13 16 13 11 22 21 28 33 30 29 30
90 83 88 88 88 87 87 86 87 83 78 73 72 53 48 26 12 16 17 14 11 11 10 9 9 11 12 14 10 8 8 8 13 12 14 10 12 16 22 22 27 26 25 27 26
91 84 88 89 89 87 87 86 82 78 74 72 74 54 38 14 12 13 15 16 14 12 11 12 13 15 14 10 10 9 10 16 15 10 8 6 14 15 18 22 25 25 26 27 27
91 84 88 89 88 88 84 83 78 73 69 72 67 55 27 27 15 10 11 13 13 13 14 13 15 17 14 13 11 10 12 14 13 7 5 7 12 16 15 20 23 26 28 28 28
92 86 88 88 89 90 86 77 77 78 67 55 46 61 24 12 12 9 10 9 13 17 17 16 16 18 15 11 16 14 11 10 9 7 6 9 14 15 15 17 23 24 28 30 30
91 86 89 89 90 90 77 54 54 58 51 29 23 20 13 11 11 9 8 9 12 16 16 16 16 16 14 12 11 10 8 8 8 8 8 12 12 14 16 16 20 21 25 28 29
90 88 89 90 93 88 67 42 32 41 37 23 22 20 16 14 16 9 8 11 13 14 13 16 21 15 11 10 10 9 10 11 11 12 16 13 15 15 17 18 20 20 22 24 28
88 91 90 92 91 81 56 39 32 37 43 22 19 18 14 14 12 9 9 9 12 14 14 16 15 14 13 11 10 10 10 15 15 16 14 13 19 22 20 22 23 22 22 23 30
90 92 91 92 80 47 47 30 29 37 39 20 18 16 14 13 13 11 10 11 12 13 16 18 15 14 11 11 13 15 13 14 14 18 17 12 22 20 24 25 27 26 27 29 31
92 92 95 86 62 42 41 39 37 54 50 15 14 11 12 14 13 13 12 11 14 13 15 17 17 13 13 16 16 31 16 16 16 18 16 17 16 58 25 26 26 29 29 31 34
93 92 95 85 65 50 44 53 55 60 42 18 14 15 17 13 13 13 11 12 13 14 12 16 14 14 16 18 16 18 19 18 15 17 28 15 20 31 24 21 25 29 33 36 38
93 92 90 57 46 46 58 58 56 50 17 16 15 14 15 15 16 15 14 15 13 24 20 16 15 17 15 18 18 16 20 24 24 32 30 16 19 17 13 18 20 30 33 36 36
93 93 91 53 44 61 62 59 50 22 19 13 12 14 17 14 15 16 14 14 12 14 17 18 28 17 16 16 16 18 16 26 31 31 18 19 20 12 14 13 16 25 29 33 33
94 85 82 72 66 63 56 72 39 15 14 16 14 17 18 16 15 19 18 14 12 13 20 19 21 17 18 17 15 17 25 17 26 30 32 17 12 12 18 18 20 26 28 32 30
66 79 60 61 69 68 56 49 24 17 15 14 19 16 20 18 18 19 18 16 19 18 18 17 22 18 20 19 19 21 16 27 24 35 36 18 18 14 23 22 22 28 28 29 26
59 57 38 57 64 53 57 39 20 19 19 18 17 16 17 18 17 18 18 20 20 19 16 15 20 26 23 23 16 23 20 20 22 32 38 30 17 16 14 19 22 24 26 27 27
64 57 67 64 50 49 47 28 28 22 24 20 21 16 19 18 20 18 17 16 20 19 19 16 23 42 24 20 19 20 20 21 35 30 34 43 23 16 19 20 20 22 23 24 24
61 56 77 64 63 73 34 22 20 23 23 23 20 17 16 20 23 19 18 36 32 26 21 25 26 40 30 25 20 20 18 18 18 35 30 55 24 15 19 21 19 21 22 24 25
44 61 74 73 40 38 34 26 27 25 21 20 17 19 24 25 23 27 27 35 34 27 62 41 24 29 38 25 20 28 18 18 20 35 32 27 16 13 15 17 17 21 21 22 25
43 43 42 77 50 36 30 25 23 27 24 24 27 22 23 29 29 31 30 37 36 60 33 32 36 26 24 24 20 18 18 18 18 19 29 20 10 9 10 12 13 16 20 20 26
46 37 36 44 41 35 38 25 22 21 26 28 25 21 21 26 28 27 31 33 34 37 36 34 41 39 46 26 25 25 18 15 16 17 14 13 14 10 13 14 16 18 22 23 26
46 51 36 59 44 36 34 24 21 24 36 23 21 26 27 32 35 33 32 29 28 38 42 42 56 50 38 38 37 64 40 22 17 15 16 24 17 17 19 18 19 19 22 25 26

GFSSW_sfc_rhum_012.txt.gz
RH
82 82 78 73 82 75 86 88 88 86 85 85 83 81 81 84 81 50 45 34 33 58 61 19 16 14 12 11 9 6 10 12 11 11 38 52 52 37 32 21 28 30 43 44 59
81 78 80 73 82 82 82 88 88 87 86 84 84 83 84 85 60 44 35 60 68 70 23 18 14 12 14 12 10 9 12 12 28 31 39 52 69 48 21 35 40 42 75 64 56
81 79 81 81 75 83 82 88 87 86 86 85 84 82 85 74 48 21 67 66 68 57 17 12 10 11 12 10 10 9 12 10 40 48 41 32 46 22 26 46 64 80 57 51 55
84 83 83 83 76 77 83 87 87 84 84 84 79 78 80 61 33 18 70 70 71 26 18 15 10 11 12 12 9 10 8 10 31 36 36 23 23 31 36 52 70 70 43 47 51
88 88 84 81 80 83 82 86 82 85 84 81 76 76 64 46 31 32 78 62 23 20 17 12 10 11 13 11 9 11 10 9 10 14 14 20 21 30 32 38 41 49 31 42 46
90 89 85 86 86 87 80 86 86 86 84 80 73 77 65 38 12 22 24 24 14 16 14 10 10 9 10 9 9 10 10 8 8 10 19 24 26 21 29 28 32 30 29 35 36
90 90 86 87 87 88 87 86 86 85 79 76 70 57 49 29 12 16 15 13 13 14 12 10 9 11 11 14 10 10 12 9 12 12 16 35 21 20 24 27 29 28 27 27 28
90 90 86 88 89 87 87 86 83 80 76 72 72 57 47 15 14 13 15 15 14 11 12 11 13 14 15 14 11 11 11 14 16 14 12 10 19 18 24 26 26 25 26 26 25
90 90 87 88 88 86 88 84 81 77 73 72 69 57 34 26 15 11 11 14 12 13 13 11 14 18 18 21 15 14 16 24 19 14 9 7 15 16 20 22 25 26 28 28 27
90 91 87 88 87 88 88 81 78 76 70 48 42 52 34 15 10 9 9 11 13 16 18 17 17 20 20 16 20 19 16 17 16 11 6 7 14 15 17 51 81 25 26 29 28
90 90 87 88 87 90 82 60 59 68 54 28 24 24 11 9 10 11 8 10 12 17 22 18 21 23 19 19 16 14 14 13 10 7 7 13 14 15 15 26 26 29 28 30 31
91 90 88 88 89 91 71 51 35 42 50 30 16 20 15 14 15 10 8 12 16 19 14 17 24 16 16 15 15 14 14 11 9 8 9 10 13 13 14 16 19 23 29 30 30
91 89 89 89 93 85 63 44 29 32 46 25 13 14 15 12 14 10 9 11 14 14 16 32 26 14 15 16 16 12 14 16 13 9 10 25 19 14 14 15 15 17 20 24 28
92 91 91 94 88 55 55 38 36 43 50 25 18 16 14 13 15 7 8 10 12 16 16 38 24 16 15 13 11 24 20 15 18 28 19 23 34 53 32 17 19 20 23 23 26
92 92 94 88 65 45 46 34 38 58 62 18 16 11 11 14 11 10 9 12 15 14 20 20 17 17 16 16 15 24 22 19 14 17 24 30 30 40 40 30 23 24 26 27 31
92 93 96 90 74 58 49 53 64 74 58 19 14 16 14 13 11 10 12 11 10 15 16 25 17 16 19 15 15 18 19 20 14 18 52 32 39 44 42 33 33 23 26 30 32
93 93 88 57 53 43 53 78 74 58 17 17 17 15 15 15 14 13 16 14 16 22 23 19 16 14 14 14 15 15 20 28 40 50 45 15 28 37 37 33 62 67 28 32 38
93 94 89 61 48 56 67 93 60 27 21 10 13 14 17 13 14 13 14 14 12 13 18 21 24 15 13 13 26 19 15 37 80 80 42 21 28 16 21 29 48 37 30 36 39
94 86 86 74 72 72 88 94 50 23 16 14 12 16 16 13 13 15 15 14 11 12 22 45 33 18 14 12 14 14 21 16 26 53 42 22 13 8 15 15 16 27 31 38 39
77 85 69 67 72 74 92 70 37 20 13 13 16 15 18 16 16 17 18 13 12 11 17 61 69 32 17 16 16 20 15 30 31 50 44 21 21 22 22 20 18 27 33 35 35
66 66 49 64 72 74 85 55 38 18 14 16 16 15 15 18 15 18 17 14 15 15 15 18 40 25 22 21 16 21 21 20 19 38 64 58 25 17 17 18 22 23 31 33 35
66 67 64 70 69 45 64 41 34 20 16 19 17 14 16 17 17 17 26 21 16 15 20 16 23 54 24 16 14 18 23 19 62 43 57 69 36 16 18 17 21 21 25 29 31
62 69 76 65 57 70 48 39 27 24 21 23 19 18 15 19 22 18 15 31 28 20 22 20 29 51 32 24 20 22 16 18 21 50 56 77 41 15 16 16 17 21 22 27 30
56 86 99 91 42 46 51 39 33 24 19 19 18 17 17 19 18 21 20 33 32 26 58 42 26 30 49 28 23 30 19 15 20 66 57 44 20 14 16 18 18 22 22 23 28
75 59 62 93 67 50 44 36 30 25 22 19 20 17 23 28 24 24 22 37 34 53 33 31 37 27 21 19 23 23 19 18 17 22 36 29 17 13 12 14 16 18 21 20 20
77 50 51 58 53 55 53 41 28 21 24 26 26 20 21 27 24 27 24 36 36 37 34 34 48 49 52 27 24 28 22 19 17 16 17 16 17 11 16 16 17 17 17 22 20
54 57 50 64 55 56 54 36 28 24 24 20 22 23 25 29 30 34 37 34 28 39 44 46 72 70 65 39 45 61 46 27 23 16 17 27 20 14 16 17 21 21 20 23 24

GFSSW_sfc_rhum_015.txt.gz
RH
83 83 84 84 77 76 76 77 82 89 87 87 86 86 85 87 85 67 73 54 56 65 62 28 24 24 23 23 19 18 18 18 35 59 60 66 55 50 42 41 44 66 61 92 87
85 83 81 84 81 75 77 77 83 86 88 87 86 86 87 87 81 68 52 64 68 73 32 28 25 21 24 21 20 20 21 20 42 43 54 50 50 44 40 57 78 57 69 85 86
86 85 83 85 86 75 77 79 78 87 87 85 85 85 86 83 74 36 74 66 73 59 24 22 19 17 20 20 19 19 16 30 43 39 43 44 51 50 45 61 57 62 68 85 80
88 87 87 86 85 79 77 78 78 80 85 84 80 83 83 81 38 32 74 72 76 33 29 22 22 21 20 19 15 18 12 11 36 36 47 44 51 48 52 56 62 60 67 72 74
88 88 89 85 85 84 77 78 77 81 86 85 82 78 84 72 53 52 75 71 35 29 26 24 25 22 17 16 16 14 13 13 27 28 38 36 44 38 54 52 47 59 61 68 64
88 89 90 89 87 88 84 86 84 85 87 87 81 81 90 61 31 48 36 33 22 26 24 21 17 14 16 16 20 13 13 11 12 21 28 29 34 34 41 54 56 59 62 56 57
89 89 90 88 88 90 88 88 84 88 85 83 76 67 68 52 24 29 26 24 18 19 21 18 15 22 21 23 20 16 16 15 19 30 30 24 39 41 36 45 50 50 57 52 46
90 89 90 88 89 90 88 89 89 87 84 81 76 78 77 28 30 24 22 19 17 17 18 18 19 23 27 22 22 18 17 21 19 20 27 26 40 42 40 40 41 41 40 44 40
90 89 90 89 89 89 89 90 89 85 83 80 85 86 64 32 25 19 18 22 19 19 20 14 20 28 26 32 34 24 29 29 21 15 22 27 36 37 34 34 38 37 38 37 39
90 89 90 88 89 88 90 90 83 84 77 60 59 72 49 26 20 16 15 16 18 22 25 28 26 34 32 35 37 26 30 32 25 18 20 16 27 37 38 41 52 49 53 40 39
91 90 90 88 88 88 94 93 88 90 80 61 42 39 19 17 13 15 14 16 19 25 34 30 32 38 27 28 21 20 20 24 22 17 15 18 24 35 48 55 41 62 73 64 40
92 90 89 88 88 89 95 88 53 54 69 51 40 30 22 20 21 16 13 18 26 32 28 32 34 23 22 20 23 24 25 23 15 11 12 23 24 23 52 51 43 67 70 70 50
93 91 89 89 92 95 93 73 45 54 75 44 39 31 19 20 22 19 14 15 21 26 24 36 26 25 21 22 23 24 27 26 20 16 19 24 30 33 30 35 47 53 63 44 42
94 92 90 92 95 85 86 59 62 62 89 41 36 18 15 18 24 14 12 15 19 21 31 31 24 24 25 23 20 31 24 28 23 26 32 24 52 50 30 28 29 32 39 40 41
95 92 94 85 93 85 62 62 58 70 94 28 22 15 17 22 19 16 12 18 24 26 24 29 33 32 30 23 20 25 23 30 32 28 38 31 42 52 42 31 31 33 35 39 45
95 93 95 93 94 83 68 66 85 85 91 32 22 23 23 21 18 14 15 19 19 20 22 25 21 28 27 18 20 25 28 29 33 36 62 39 41 55 49 35 34 39 30 38 48
96 94 92 72 82 68 73 91 98 98 29 25 24 22 24 23 20 19 21 25 26 32 40 27 22 27 26 26 26 32 38 53 51 72 71 39 46 38 42 31 34 37 33 43 52
96 95 90 73 70 72 92 98 98 46 40 19 22 23 26 21 21 21 25 27 22 23 34 38 47 28 21 21 30 32 31 62 62 89 64 47 47 35 23 30 32 32 38 45 56
96 97 91 82 77 84 97 99 76 49 24 27 19 26 25 20 19 23 24 24 18 20 32 49 43 34 27 25 25 28 38 32 68 72 84 52 32 24 33 37 47 47 48 55 60
98 98 88 80 87 89 98 81 64 35 29 23 31 23 29 24 24 24 26 20 18 16 39 60 58 46 36 32 23 27 26 43 59 74 64 35 36 40 35 34 45 56 50 57 60
94 98 72 75 89 95 90 73 57 38 32 31 28 24 24 27 26 27 26 19 18 28 42 54 56 58 44 36 29 32 33 30 35 61 66 80 50 26 28 30 43 48 47 51 52
97 94 75 80 97 85 88 66 56 40 36 36 33 27 26 27 27 27 30 38 32 25 35 48 60 82 49 26 22 23 31 39 68 44 78 81 56 24 22 25 26 32 41 46 46
97 84 82 63 78 92 61 56 53 47 43 32 36 33 36 32 45 28 41 41 40 32 34 41 42 68 46 39 34 30 25 24 45 68 59 73 55 23 21 22 25 27 30 45 46
95 90 97 96 62 60 59 55 61 46 43 33 30 33 34 32 32 33 55 47 43 45 64 48 41 48 62 45 39 43 31 27 36 73 66 66 41 24 25 23 24 26 27 37 45
97 74 73 97 92 74 52 50 56 56 40 32 33 33 35 36 38 36 53 52 48 58 46 44 49 45 40 39 31 35 33 32 26 39 50 41 37 28 28 28 28 29 29 28 27
96 67 91 83 72 80 58 56 51 43 40 36 40 32 31 36 39 38 44 52 50 54 48 46 68 63 65 42 43 44 37 34 34 32 31 28 30 23 25 23 24 25 24 27 28
86 80 66 82 77 76 57 55 46 42 38 26 36 39 40 43 44 51 53 56 50 57 57 59 76 77 74 55 50 59 44 38 36 33 36 37 28 27 34 30 29 28 28 31 30

GFSSW_sfc_rhum_018.txt.gz
RH
86 85 86 86 87 83 76 78 78 81 84 84 87 88 86 88 85 75 79 53 64 70 64 34 32 30 30 35 27 19 25 25 27 54 53 60 60 50 48 58 63 72 87 89 92
87 86 84 85 87 86 81 81 79 81 87 87 87 87 87 88 85 81 63 68 73 78 39 30 32 25 27 26 25 23 26 23 23 49 58 57 47 44 52 67 76 94 88 90 87
88 88 87 87 88 87 83 82 84 79 82 87 87 86 87 86 82 45 72 71 75 71 29 28 26 24 28 25 25 23 23 22 42 44 49 51 52 52 53 70 62 93 89 89 88
89 88 88 88 89 88 86 82 83 78 84 87 85 84 84 87 39 28 78 81 80 42 31 30 29 30 26 24 20 22 16 17 41 42 45 41 48 54 55 54 62 84 80 88 89
89 89 89 88 88 88 89 86 87 86 87 85 84 80 84 74 60 54 78 76 45 32 30 27 32 33 26 19 20 19 16 14 31 37 41 40 45 44 55 63 69 70 76 86 79
91 89 89 90 90 89 90 89 90 89 88 78 82 80 88 57 35 51 48 37 30 32 29 28 28 22 20 21 25 22 15 15 34 36 36 40 44 42 52 66 70 70 72 83 81
92 90 90 90 90 89 90 90 90 90 90 84 78 70 80 35 38 44 31 28 22 25 24 23 23 26 28 24 26 23 17 24 30 32 33 35 46 53 47 60 67 69 71 70 84
94 92 91 90 90 89 90 90 90 91 88 84 77 84 63 37 42 32 32 23 20 20 22 20 23 25 31 25 26 25 20 24 27 28 34 33 52 42 48 55 62 59 65 67 71
95 92 91 90 90 89 90 90 91 89 86 85 89 90 66 41 35 30 26 24 22 21 23 17 23 30 27 35 37 28 29 34 22 19 29 32 60 46 45 48 57 63 67 56 61
95 93 90 90 89 89 90 90 89 88 78 69 64 69 48 30 27 21 22 23 26 29 28 31 29 36 35 36 39 31 31 34 27 20 29 36 47 48 47 47 58 58 58 51 53
94 94 90 90 88 88 93 91 80 87 86 52 37 43 26 24 21 19 18 20 25 26 34 36 34 39 33 34 29 24 25 26 28 24 23 28 43 50 49 50 64 66 58 57 49
94 94 90 89 88 89 94 90 64 61 72 57 52 45 33 31 28 20 16 20 29 34 37 34 37 28 27 25 26 28 27 28 27 21 18 30 47 50 56 42 50 59 60 46 55
95 94 91 88 91 96 95 82 57 58 75 58 53 50 41 26 28 25 17 20 26 32 29 34 26 28 25 25 29 28 30 34 28 18 25 29 39 44 46 48 51 52 43 41 50
96 94 92 92 87 88 94 70 72 66 87 57 49 41 20 20 27 20 16 17 24 25 30 33 29 24 30 30 30 33 23 29 30 29 30 28 48 47 39 39 50 46 62 52 60
96 95 94 82 91 86 68 67 67 76 82 34 40 20 17 25 24 22 16 20 22 28 30 32 35 33 31 29 28 30 31 30 34 38 40 42 45 37 54 30 48 54 55 57 56
97 95 94 93 96 84 71 67 90 92 86 45 25 27 27 27 25 20 19 18 20 22 28 28 26 26 25 23 25 27 30 37 41 46 63 47 43 48 52 30 26 40 48 50 48
97 96 89 79 81 81 79 88 94 92 40 36 30 29 30 30 28 24 26 27 25 33 40 32 27 30 30 31 30 31 41 52 49 70 65 46 47 41 34 39 35 37 42 42 47
97 96 91 76 83 86 94 96 93 61 53 32 29 29 32 28 27 26 27 28 30 27 38 40 45 36 31 31 32 33 36 59 55 78 53 54 60 43 32 29 32 33 41 58 66
98 99 98 84 87 82 96 98 75 66 34 33 30 34 36 28 25 28 31 30 24 25 33 51 43 42 32 37 36 32 37 38 68 81 76 61 40 25 38 43 45 46 47 61 72
97 99 92 83 81 88 96 77 69 49 40 32 36 32 37 31 30 29 29 26 25 22 35 44 50 46 37 32 35 33 28 43 63 68 74 44 45 43 43 42 43 54 53 52 69
96 96 84 82 82 96 95 76 58 44 44 48 42 38 30 32 30 33 29 24 24 27 41 53 47 53 45 40 33 41 37 37 44 64 63 75 51 29 33 35 38 48 53 54 69
93 96 87 80 94 84 85 64 60 50 47 52 46 46 32 34 34 37 33 30 37 43 41 50 59 80 47 35 24 37 34 37 65 43 82 83 54 33 26 29 41 49 50 59 62
94 89 89 73 92 91 72 64 56 50 50 52 45 39 35 38 40 39 40 42 40 37 41 49 55 70 52 39 40 34 29 37 51 68 62 74 56 28 27 23 24 36 51 57 60
94 93 97 93 66 61 73 74 70 48 54 52 51 48 41 42 44 45 53 48 53 41 71 50 46 46 60 46 44 48 39 35 46 74 64 68 42 31 27 27 25 29 42 56 59
94 76 75 94 89 63 61 64 68 59 52 48 48 50 47 45 53 47 54 57 53 60 48 48 48 46 42 46 42 41 40 40 36 41 52 42 42 28 26 29 28 30 30 39 53
90 87 83 90 69 81 66 61 56 47 48 47 53 48 42 37 40 47 53 56 51 56 46 53 54 69 62 51 47 47 40 41 39 38 40 36 35 34 32 34 35 33 31 32 35
88 84 84 77 78 83 78 56 50 44 47 40 46 47 48 38 43 49 50 53 53 53 60 61 75 75 67 62 54 68 46 39 38 37 38 46 37 39 43 45 43 40 41 41 43

GFSSW_sfc_rhum_021.txt.gz
RH
88 88 87 88 87 88 87 85 81 79 80 82 85 85 86 88 88 81 70 49 70 70 63 33 34 34 34 36 33 26 32 32 23 63 50 61 61 59 64 72 85 87 93 91 93
88 88 86 88 88 89 88 86 84 85 80 84 87 87 89 89 94 84 61 67 75 72 37 32 32 29 30 31 28 28 36 31 21 48 55 60 56 50 60 80 92 92 94 93 88
88 88 89 88 89 90 90 88 86 86 82 85 88 88 89 89 80 39 72 74 77 75 32 31 26 25 29 30 26 27 27 22 35 45 53 55 50 53 62 72 83 95 96 92 90
90 89 89 88 90 91 90 90 88 86 85 84 83 85 86 95 40 31 79 80 78 64 35 30 27 32 30 28 26 29 20 22 25 45 48 50 51 53 65 72 79 85 83 89 90
91 90 89 88 90 91 91 91 90 87 86 84 78 83 88 60 38 52 78 78 68 37 32 28 32 35 31 23 24 24 19 18 25 41 42 44 47 47 70 86 82 84 84 86 84
93 92 90 90 90 91 90 91 91 90 88 86 83 81 91 38 36 58 54 47 38 34 30 29 29 27 28 25 25 22 25 23 33 41 41 44 47 50 68 87 88 80 88 73 72
95 94 92 90 90 91 90 91 91 90 89 85 81 76 88 30 43 47 39 36 29 32 30 29 28 31 28 28 27 28 22 32 41 42 45 38 43 50 65 75 89 85 84 74 77
96 95 94 92 91 91 91 91 91 90 88 84 80 88 80 32 49 41 39 30 23 27 24 25 26 29 34 26 27 26 21 39 35 34 40 35 56 53 66 71 81 84 90 78 80
95 96 95 93 92 91 90 91 90 88 86 88 91 92 69 40 41 38 30 29 26 24 25 19 28 32 30 38 34 28 28 34 35 28 36 36 64 56 64 65 77 77 83 89 87
93 95 95 93 92 90 90 90 88 88 81 72 69 67 42 30 28 27 35 28 31 32 30 33 34 37 39 37 37 35 32 38 30 27 34 39 58 60 62 64 68 78 82 84 87
92 94 95 93 90 88 92 91 75 83 80 41 36 35 30 30 27 26 23 28 27 31 37 37 35 40 33 34 33 31 32 31 29 23 31 43 54 57 59 65 71 75 74 75 79
90 93 95 92 88 90 94 85 62 67 72 60 56 46 38 36 40 27 20 24 32 36 39 38 40 29 31 34 35 30 31 32 29 26 24 30 56 63 58 58 60 65 68 64 68
87 94 96 92 89 95 93 79 57 62 64 53 57 56 48 42 42 31 20 24 29 35 36 39 29 29 28 28 30 31 36 36 35 27 30 38 48 61 54 53 53 57 55 54 60
88 92 97 90 92 88 93 69 73 74 71 55 61 52 41 29 31 25 19 20 30 28 33 35 29 29 32 32 29 35 30 30 34 31 40 32 55 50 55 53 50 48 62 52 54
89 92 97 88 81 92 72 66 70 80 66 28 51 30 25 26 26 24 20 22 26 26 33 32 36 34 32 25 28 31 32 34 36 45 40 43 45 41 53 55 46 42 45 56 59
89 91 96 92 93 82 71 75 86 82 71 41 38 28 29 28 29 24 23 22 22 26 31 28 28 30 27 27 28 31 33 39 48 49 60 46 45 48 58 44 43 35 42 44 66
88 89 96 80 86 82 83 91 94 96 37 42 34 32 29 34 30 29 26 27 28 35 40 35 31 33 31 34 33 35 41 52 49 67 63 50 50 44 33 36 35 36 40 51 56
85 94 95 80 85 87 91 95 97 65 59 44 34 36 34 32 32 31 31 32 31 31 41 39 43 34 35 33 36 39 37 59 53 70 48 57 58 41 34 35 35 37 39 47 63
86 98 95 90 80 86 98 99 79 63 49 33 35 40 41 33 31 31 33 32 27 27 32 50 41 45 39 37 30 38 40 40 71 84 79 57 50 26 31 42 52 51 55 65 64
98 95 92 80 78 83 99 83 67 51 50 52 42 38 44 39 35 33 36 29 28 27 29 41 48 50 44 40 39 34 35 44 64 63 66 56 47 41 38 36 49 62 53 61 81
97 97 76 82 87 96 92 74 59 45 50 60 57 42 38 38 37 37 33 27 28 29 33 51 41 44 46 39 33 41 41 44 48 67 64 72 52 37 35 34 35 38 55 54 76
94 97 94 82 99 88 85 64 56 44 52 59 61 58 46 38 37 37 35 28 32 43 38 46 51 66 37 39 38 38 40 41 67 47 83 83 56 34 29 31 34 35 42 57 62
92 92 94 79 96 93 73 66 56 48 53 57 60 53 47 41 40 41 40 37 48 40 47 50 56 71 51 42 44 45 38 44 55 70 66 76 52 31 34 29 26 37 38 51 64
93 97 98 93 70 70 76 74 74 56 57 57 61 60 57 44 44 48 49 54 50 50 67 49 52 48 52 48 48 53 42 42 48 77 64 68 41 31 30 30 28 28 36 54 68
97 76 74 95 89 77 64 66 71 68 57 51 59 64 66 59 54 51 60 56 55 61 61 47 48 44 43 39 44 41 41 42 42 44 53 43 50 37 34 30 32 31 37 53 64
93 91 79 86 72 76 76 68 64 61 62 59 50 51 47 64 48 49 56 58 52 55 54 54 57 57 68 54 50 48 41 42 43 42 43 44 40 39 40 42 42 39 38 42 46
88 84 82 74 77 78 73 66 60 58 58 49 48 54 66 53 45 43 58 54 48 54 60 58 72 71 60 67 61 67 52 43 40 39 39 48 38 42 50 47 52 54 50 50 50

GFSSW_sfc_rhum_024.txt.gz
RH
89 89 89 88 90 88 88 88 88 85 82 79 81 85 85 89 88 84 76 51 71 71 70 40 36 40 35 39 35 31 35 37 28 57 52 64 66 68 80 92 86 88 92 90 93
90 89 88 89 89 89 90 90 90 88 86 86 85 86 89 90 91 90 60 66 72 72 32 34 33 35 31 33 33 32 42 32 24 30 54 63 62 62 78 93 90 96 95 95 93
91 90 89 89 89 90 92 91 91 88 86 86 85 83 89 91 61 39 76 72 77 70 31 32 26 25 30 29 32 32 30 26 22 35 55 56 58 60 77 86 83 96 96 96 91
93 91 90 89 89 91 92 91 91 88 86 86 83 83 86 92 39 33 81 77 78 61 32 31 32 33 33 31 26 30 22 22 22 47 55 52 56 58 65 76 78 88 89 88 89
96 93 91 90 90 90 91 91 91 89 87 87 85 83 82 44 31 67 83 79 70 43 34 31 35 36 36 28 27 27 21 20 20 52 53 48 54 61 96 86 78 81 84 86 88
93 96 94 91 90 91 91 91 91 91 88 87 84 80 82 24 37 60 66 54 47 40 34 29 32 30 32 32 25 24 22 29 40 47 47 48 55 70 92 90 84 83 86 88 77
92 97 96 93 91 91 91 91 91 91 89 87 83 76 80 29 44 52 42 41 40 32 32 30 32 33 33 34 29 31 27 34 48 47 48 42 53 79 86 89 87 93 91 88 80
89 93 97 96 93 91 91 91 91 91 88 86 81 85 66 35 50 47 46 39 28 33 32 24 28 32 36 32 29 26 26 39 38 41 42 50 66 79 86 90 83 86 87 81 84
88 90 96 97 95 92 92 91 91 89 88 87 91 90 58 39 37 38 35 32 28 26 28 20 30 35 33 38 33 31 29 40 41 36 43 40 67 67 79 89 92 91 92 83 89
88 90 92 97 95 92 91 90 88 87 83 75 70 63 33 28 33 35 41 31 31 32 34 34 36 38 41 36 41 40 36 56 42 36 45 46 70 68 76 77 87 94 96 90 89
89 91 92 94 95 89 91 89 71 81 81 52 34 32 26 31 37 30 34 34 34 32 41 39 38 42 34 36 35 38 36 35 32 26 38 47 68 67 78 76 82 86 94 95 91
90 88 89 94 96 90 93 87 69 74 80 62 58 47 37 43 50 34 28 29 35 38 40 40 43 31 32 36 34 33 36 37 33 26 31 51 67 78 71 71 68 74 85 86 88
86 86 86 96 93 95 92 74 61 76 85 50 58 57 50 46 46 40 24 28 33 36 40 43 32 32 30 34 34 35 38 38 35 31 39 48 59 70 58 61 64 67 70 73 80
84 87 88 96 95 91 90 70 73 83 70 48 61 55 49 47 37 30 23 22 32 29 37 38 33 30 30 32 31 34 31 36 36 33 41 39 43 51 61 62 58 59 69 67 68
83 86 89 93 91 96 76 66 74 80 67 32 57 38 42 31 28 29 22 23 28 28 31 30 37 36 36 28 29 31 34 40 39 44 44 48 44 41 61 59 56 53 54 61 61
81 86 88 99 92 87 73 77 88 81 65 32 42 45 37 31 30 27 26 23 25 27 40 31 33 35 32 30 30 30 33 39 49 50 59 47 46 47 57 47 45 48 49 50 60
82 84 95 84 88 87 82 88 100 94 36 36 47 35 36 35 32 28 31 32 32 38 43 38 34 34 35 34 35 36 41 53 51 66 62 53 54 44 32 38 45 49 47 45 48
79 84 93 84 77 89 91 95 98 65 44 45 40 36 34 32 31 35 32 35 33 33 44 42 43 35 37 34 34 41 42 61 54 70 48 59 53 34 34 38 35 37 40 45 52
79 94 97 81 84 83 96 99 74 62 51 46 35 42 42 35 35 34 37 37 29 30 34 49 40 43 42 42 35 39 44 41 71 85 77 57 47 29 31 40 50 52 50 48 69
93 95 90 79 83 84 98 82 71 53 52 56 47 41 48 44 35 36 40 33 30 29 30 40 43 50 44 42 42 35 39 48 63 58 65 57 54 39 30 38 49 55 54 57 75
95 96 76 88 91 99 91 77 59 51 51 62 67 62 44 44 40 43 40 31 30 33 33 47 39 43 53 45 37 42 44 50 51 66 64 71 51 40 33 37 36 40 51 54 67
93 95 91 85 98 85 78 69 59 53 51 58 63 67 63 44 44 41 38 31 32 40 37 47 50 61 40 42 41 39 41 46 67 51 82 83 57 34 33 32 32 32 37 56 58
96 89 94 78 92 91 67 64 62 52 52 59 65 62 57 50 44 43 41 37 45 37 44 50 52 64 44 39 47 47 44 47 57 70 72 76 57 31 36 34 31 29 36 50 59
97 95 96 93 59 68 71 70 73 60 56 57 65 66 64 57 50 44 43 53 54 40 65 47 55 44 43 38 46 55 44 50 50 75 66 71 46 32 30 35 33 31 33 43 67
98 86 79 93 87 74 62 62 72 68 56 56 66 69 64 72 55 59 63 62 56 70 57 45 47 50 42 41 47 44 42 50 47 50 54 47 49 38 39 34 34 35 48 65 71
98 93 84 92 70 74 74 68 70 63 68 68 65 58 64 74 56 55 64 61 54 58 57 57 54 57 68 57 53 51 46 48 48 48 48 47 44 39 43 49 49 45 50 57 62
95 90 94 74 77 78 71 66 63 59 59 56 55 55 70 53 45 47 49 60 60 58 62 58 72 68 59 69 61 67 56 48 49 47 44 52 41 44 52 55 59 57 56 56 59

GFSSW_sfc_rhum_027.txt.gz
RH
91 90 90 90 90 90 90 90 91 88 86 86 86 85 84 89 88 74 50 40 55 71 69 36 27 27 24 26 22 20 23 22 20 25 33 48 50 62 70 70 73 78 79 87 95
93 91 90 90 90 90 90 92 92 90 88 87 86 86 86 89 89 68 50 66 70 72 28 24 28 23 22 22 24 22 27 22 18 17 32 46 50 58 68 80 81 91 95 94 90
95 94 92 90 90 90 90 92 92 89 88 87 87 87 88 85 57 30 75 72 74 69 24 24 24 19 20 21 22 23 23 21 18 17 38 51 48 53 65 72 74 93 92 93 89
92 96 94 92 90 90 91 92 91 89 88 86 86 85 86 81 32 25 81 76 78 54 25 24 23 24 22 22 20 23 20 19 17 27 43 44 47 55 62 60 67 77 80 88 91
89 90 94 95 92 91 91 91 91 90 88 86 86 84 73 36 18 66 83 77 62 36 23 23 24 25 25 22 20 22 18 17 18 37 50 46 52 66 87 80 84 79 82 82 89
88 91 91 97 94 92 91 91 91 91 90 87 85 82 66 31 41 62 63 54 39 31 26 23 24 25 25 26 22 22 18 22 34 43 43 51 63 60 84 73 79 78 74 75 83
86 90 92 95 97 94 92 92 92 91 90 87 84 74 68 28 40 52 43 34 37 28 22 22 24 23 25 28 24 25 24 30 39 41 43 38 49 75 79 78 82 78 76 77 72
86 87 89 90 95 96 93 92 92 91 90 87 82 80 55 30 38 38 43 34 29 30 24 21 24 25 27 26 24 21 23 32 32 37 41 34 53 81 81 79 80 79 80 77 68
87 88 88 90 95 98 94 93 92 89 88 87 85 84 39 37 31 30 34 28 26 25 25 19 23 28 27 27 25 27 22 31 34 33 38 34 55 66 77 76 72 74 71 66 67
86 88 90 92 94 97 93 90 88 84 83 76 70 62 32 21 28 36 36 28 26 28 27 26 29 28 30 25 29 30 26 28 33 28 35 37 53 70 82 79 82 71 68 69 66
83 88 90 90 94 94 87 78 61 72 83 56 44 37 21 27 35 30 34 31 26 28 32 30 30 33 29 31 25 28 27 25 23 22 34 39 47 65 76 77 79 80 79 70 62
78 83 86 86 96 92 85 79 60 67 82 63 58 46 35 38 44 35 30 31 34 32 32 32 36 29 28 29 30 29 27 26 25 22 28 33 41 54 70 70 65 68 75 72 62
80 82 84 85 94 92 90 74 65 67 89 62 58 55 47 41 45 38 29 29 31 34 35 36 26 29 28 29 30 29 30 31 28 26 31 36 34 54 53 63 58 59 59 62 66
79 83 86 92 96 87 85 69 72 77 65 44 51 50 50 45 42 32 25 24 27 32 36 32 28 29 30 29 28 29 26 28 30 27 28 27 26 35 53 53 52 51 54 56 60
78 83 85 94 89 86 72 72 78 76 63 32 59 37 46 34 27 31 24 23 30 30 30 28 31 32 30 28 29 27 31 29 30 32 36 36 29 24 45 53 48 47 48 49 53
76 75 82 95 95 81 76 76 86 82 66 29 45 53 50 35 27 26 25 23 25 28 30 27 25 27 26 26 27 30 30 34 39 40 44 36 32 28 32 39 37 39 44 45 48
73 75 78 84 83 83 80 85 92 96 40 31 47 41 39 34 32 29 32 30 29 38 38 28 26 26 30 28 29 29 35 40 40 50 47 43 41 31 25 27 33 38 40 42 43
77 80 84 76 83 88 85 93 99 63 48 38 35 37 42 32 31 30 34 34 27 28 36 34 35 29 31 28 29 34 33 49 47 54 36 45 45 22 24 27 28 29 32 36 42
77 91 94 90 81 86 95 96 67 59 48 45 30 42 38 32 30 33 37 34 28 30 33 45 34 29 35 33 26 34 38 34 57 70 58 40 34 25 21 24 34 36 37 38 36
92 94 87 86 84 97 97 77 71 51 50 54 51 42 45 41 37 32 40 33 30 28 29 37 36 40 36 32 35 30 33 44 50 53 52 41 42 30 25 23 27 33 35 36 44
95 98 72 84 92 97 88 70 60 51 51 59 65 62 46 45 39 42 36 30 30 29 28 36 37 38 39 37 34 37 39 44 42 49 48 48 36 32 29 26 28 26 32 41 41
95 97 85 79 97 85 81 66 62 52 53 54 60 65 68 46 47 44 40 33 33 34 35 39 48 53 38 33 31 32 37 41 57 46 57 59 42 26 30 29 30 26 28 35 41
98 86 90 79 90 84 70 62 55 58 52 59 61 59 56 53 48 44 41 37 44 37 42 44 46 49 37 32 36 36 36 40 49 57 58 71 42 26 28 28 28 28 25 27 38
98 98 98 96 64 67 73 72 67 57 52 54 60 60 58 57 53 45 44 45 48 38 64 45 48 44 42 37 36 46 41 41 43 58 54 52 37 27 25 26 24 28 29 28 44
99 95 80 96 85 75 62 60 67 66 59 52 62 55 63 63 58 55 52 58 52 68 49 45 46 46 36 31 37 35 37 43 38 42 49 39 40 30 28 28 28 30 43 52 56
99 96 89 73 68 72 74 66 67 62 54 65 60 57 53 66 58 54 53 57 56 57 54 53 52 48 46 44 42 44 39 39 40 41 40 37 39 30 31 31 34 42 49 50 51
96 88 90 72 76 77 70 65 62 58 59 50 52 58 69 56 59 55 50 51 53 52 59 58 68 60 52 55 50 66 54 43 42 39 39 46 37 33 34 41 40 48 47 48 50

GFSSW_sfc_rhum_030.txt.gz
RH
92 92 91 90 90 90 89 90 91 90 87 86 87 86 86 88 84 44 29 32 34 69 67 21 17 16 14 14 15 13 13 15 15 14 16 23 34 40 47 48 49 57 54 83 93
92 94 93 92 91 90 90 90 91 91 90 89 89 88 89 89 49 30 42 66 67 75 19 16 16 14 12 14 15 14 14 14 11 12 13 20 33 39 44 49 60 79 94 93 87
84 88 90 95 94 92 90 90 91 90 90 90 88 88 89 73 38 22 67 73 73 59 15 13 12 12 14 14 14 15 14 13 13 13 12 32 36 39 39 41 47 81 95 93 89
83 84 86 89 93 94 92 91 91 90 89 87 85 87 86 48 17 21 75 75 75 28 16 14 15 15 15 15 14 16 14 14 13 15 21 34 39 51 44 56 54 70 86 87 82
84 86 84 85 92 96 94 92 92 91 90 86 85 85 53 24 13 33 83 69 32 23 15 15 17 17 17 16 17 18 14 14 15 17 34 33 37 44 64 68 61 73 75 84 83
86 87 91 90 92 96 95 93 92 92 91 87 85 86 43 25 22 39 31 32 20 18 16 16 17 17 19 19 19 17 16 17 19 24 35 39 42 41 67 64 69 72 72 88 85
82 87 88 88 89 93 96 95 93 92 91 87 84 55 48 24 22 30 30 22 20 16 16 14 16 18 19 19 18 17 20 19 21 31 32 33 35 48 59 53 59 66 56 51 61
81 83 88 88 88 90 95 96 94 93 91 88 84 57 38 19 18 31 24 22 21 17 18 15 17 19 21 18 17 17 17 20 24 27 31 30 35 53 61 54 48 47 49 50 54
70 78 87 88 90 91 94 96 94 89 85 84 67 58 27 37 23 16 24 20 19 19 18 16 18 20 20 17 16 17 18 20 22 23 28 28 32 41 62 53 40 42 48 44 47
68 77 83 89 92 94 95 93 83 81 69 60 51 56 29 15 16 21 18 20 21 21 21 20 20 19 16 15 18 18 17 16 22 22 25 26 29 36 52 51 49 38 39 40 39
71 74 80 88 87 92 79 53 49 54 64 40 32 29 14 17 25 23 22 21 20 23 26 24 23 20 14 15 18 19 18 16 16 19 24 23 22 33 44 51 54 46 40 38 38
76 71 77 82 84 92 74 58 52 54 54 36 38 32 26 23 27 24 22 22 27 26 22 24 24 15 17 18 20 21 19 18 17 18 21 19 20 28 39 46 45 43 47 40 36
79 75 77 81 86 92 68 59 47 52 66 38 39 33 30 29 25 19 22 21 24 23 24 23 18 20 19 21 22 21 19 21 20 20 18 20 19 28 32 39 42 42 38 38 33
78 79 83 84 85 64 65 53 51 57 52 25 34 33 32 25 28 16 19 18 22 22 21 22 18 20 20 19 19 22 17 20 22 21 20 20 19 21 24 36 42 41 42 39 34
84 78 84 88 85 68 53 57 63 65 37 19 38 28 32 25 20 23 17 20 21 22 23 21 20 21 22 18 18 19 20 20 21 20 24 24 18 19 28 28 27 31 35 36 33
88 78 84 74 68 65 57 62 68 66 42 22 36 44 42 32 20 20 22 18 15 18 19 16 17 18 16 19 19 21 23 24 24 23 32 22 20 15 16 16 15 20 24 29 30
83 81 79 60 63 55 71 77 77 66 23 20 37 39 33 29 24 21 23 25 22 28 27 18 18 16 20 20 22 21 22 28 30 35 34 28 29 18 14 14 17 18 16 22 27
81 85 77 64 53 67 83 96 63 24 27 28 30 33 34 22 22 24 22 24 18 17 19 23 26 18 19 19 21 23 19 29 41 39 23 31 27 16 14 16 17 18 19 19 24
84 94 83 69 61 83 97 92 34 26 24 28 26 35 35 24 20 24 24 21 19 18 22 25 21 19 22 21 19 26 27 19 33 46 34 21 20 16 13 13 20 20 22 22 21
82 93 85 65 70 95 98 66 29 25 25 24 29 26 31 30 23 25 26 21 20 17 15 22 25 21 27 25 25 24 21 31 32 42 39 24 24 17 15 14 15 14 17 18 23
84 97 72 65 72 98 96 59 33 24 29 38 31 25 27 33 24 26 25 25 20 20 16 17 22 33 31 29 22 28 26 27 26 31 34 33 23 16 15 14 15 15 18 20 22
87 98 74 66 95 84 93 51 37 28 34 40 39 35 38 30 30 26 26 23 21 18 25 20 25 31 22 24 23 19 21 25 36 34 39 45 27 14 16 15 19 17 18 20 25
94 97 84 65 87 89 52 50 39 35 34 45 42 40 43 41 38 30 26 28 29 23 22 25 30 35 26 26 27 26 24 23 29 35 33 56 27 18 17 18 16 19 17 18 21
98 98 99 92 47 56 46 48 48 39 34 36 40 41 47 48 42 39 33 36 37 22 55 34 23 27 32 22 18 30 24 24 26 38 31 31 20 16 16 16 15 17 19 18 27
98 90 78 97 72 48 44 44 52 45 37 35 42 40 46 53 44 45 37 47 38 54 28 29 28 25 19 16 16 18 17 20 24 24 28 23 20 19 16 16 17 21 25 30 36
98 80 71 65 59 49 51 42 50 38 32 43 46 43 40 48 38 54 44 42 42 40 33 32 31 30 31 20 22 23 18 17 19 18 18 22 22 16 16 19 21 24 30 35 40
93 52 59 55 63 57 55 45 41 42 35 29 31 40 44 46 42 49 52 46 42 44 42 40 39 40 36 35 34 51 34 22 21 19 22 27 23 16 20 22 23 29 32 35 37

GFSSW_sfc_rhum_033.txt.gz
RH
90 94 94 93 92 91 90 90 90 90 88 88 89 88 88 89 85 31 26 32 30 67 66 15 15 12 11 10 10 9 11 16 12 12 13 14 22 26 30 32 34 55 67 85 88
83 85 87 91 95 94 92 91 91 91 90 90 90 89 89 89 50 21 44 65 61 68 16 11 12 12 11 10 10 10 11 12 10 11 12 16 22 28 29 35 46 84 84 91 87
77 80 83 85 90 94 95 93 92 91 91 90 89 88 88 74 31 18 68 72 67 57 13 8 10 10 11 10 10 11 14 11 11 12 13 22 24 30 32 70 66 76 91 88 84
77 77 75 80 86 91 95 95 93 92 91 90 86 87 84 42 17 21 68 74 70 25 12 10 10 12 12 11 10 12 11 11 11 12 18 24 24 27 36 52 57 75 80 79 78
81 81 78 77 81 91 94 96 94 93 91 88 86 85 56 26 15 31 79 65 24 19 12 10 12 13 13 11 12 13 12 11 11 13 23 24 28 30 50 54 60 76 75 70 68
78 80 84 80 81 88 91 95 96 94 92 90 86 90 41 32 12 22 21 21 14 14 13 12 13 13 15 14 14 14 12 12 12 15 21 28 30 32 47 45 58 57 69 86 70
69 78 81 84 84 86 88 93 94 96 93 90 86 54 41 28 12 17 19 16 12 13 14 12 12 15 15 15 13 13 15 13 14 17 19 29 50 38 45 44 53 61 53 54 78
71 79 79 85 86 87 90 91 93 95 93 88 86 48 38 15 11 17 18 15 13 12 13 13 13 16 17 14 13 14 13 22 22 17 19 39 69 40 39 35 39 40 41 42 45
77 75 78 79 86 90 92 93 94 94 84 82 64 50 30 32 16 14 17 14 14 13 14 12 14 17 15 16 14 13 16 31 26 14 18 37 74 35 34 32 34 31 33 33 40
76 76 75 79 85 88 90 93 81 84 69 47 39 48 29 16 12 10 18 15 15 16 16 17 16 18 14 13 17 16 14 14 23 19 18 22 21 32 34 32 34 29 29 30 32
76 76 75 76 82 84 78 43 48 57 45 28 27 19 13 12 16 12 17 20 17 19 22 20 20 20 15 13 11 15 14 15 17 22 17 19 27 23 31 32 36 30 36 29 28
87 76 76 76 80 83 75 46 33 46 37 21 24 23 19 16 20 13 14 24 24 24 20 20 24 16 12 11 13 15 15 14 14 13 15 14 17 27 27 31 30 30 33 31 27
86 84 77 76 81 71 60 38 34 40 44 24 19 21 18 18 19 15 17 19 21 21 19 21 16 13 14 14 16 15 16 18 16 15 12 14 16 16 18 24 28 27 25 25 27
83 85 80 82 79 39 48 34 34 48 45 18 26 24 20 18 23 12 14 16 17 20 18 18 15 15 15 15 14 17 12 17 16 17 21 14 25 18 15 21 26 28 27 25 24
84 83 82 87 56 55 39 37 44 58 37 12 17 19 17 22 11 16 11 16 19 18 17 20 18 18 18 15 14 17 17 16 17 18 18 16 16 21 12 18 20 24 27 26 25
79 83 84 75 61 58 61 64 59 52 38 18 26 31 32 24 13 12 15 15 14 16 16 17 12 13 13 13 14 14 18 18 18 20 31 20 17 24 14 13 14 16 20 24 23
79 83 85 61 56 46 72 95 64 45 10 14 24 28 29 27 20 16 20 23 22 27 25 19 16 12 13 16 16 16 20 28 33 35 35 17 19 16 19 11 12 12 13 18 22
80 84 79 61 46 51 92 98 50 20 17 19 16 25 32 21 24 21 22 22 18 17 20 23 25 15 15 16 17 19 19 28 59 59 32 21 22 14 11 11 11 10 11 12 16
81 61 63 59 64 56 97 97 50 20 11 15 20 30 29 22 20 21 22 20 16 15 22 23 20 12 13 14 14 19 24 16 24 27 34 24 16 12 12 10 11 12 14 14 14
82 62 54 62 68 74 98 83 43 20 11 13 23 23 29 26 22 21 22 16 16 13 16 18 22 13 15 15 16 19 17 27 26 53 47 22 19 17 14 11 11 10 13 13 16
92 94 49 60 83 95 94 67 38 23 14 14 22 24 23 25 22 21 21 16 14 13 14 18 21 19 20 22 19 21 24 23 22 26 43 36 23 15 14 13 13 12 12 12 15
96 98 55 74 99 92 85 56 34 24 16 21 26 28 22 22 28 22 22 18 15 14 19 19 21 30 23 16 13 16 20 22 37 36 35 40 28 12 13 12 13 12 12 13 16
98 88 73 68 97 92 59 44 31 22 26 24 26 32 31 25 28 27 21 17 21 20 20 21 25 38 26 18 18 20 22 23 25 26 46 66 28 12 13 14 13 14 12 14 15
98 99 98 94 64 59 54 47 40 26 20 22 23 26 28 37 30 30 27 23 21 20 42 33 24 27 35 23 18 24 19 18 22 43 36 33 21 16 14 14 12 13 13 14 15
99 88 84 97 89 58 43 39 36 30 20 22 25 35 36 30 28 32 32 29 33 40 29 27 34 28 20 16 14 15 17 18 20 22 33 25 20 14 13 13 12 17 16 16 18
100 82 73 64 67 57 54 42 33 26 23 29 31 32 49 51 35 54 38 40 32 28 31 28 34 27 24 16 14 17 14 14 16 17 18 18 18 12 11 11 13 14 18 20 24
96 50 51 57 74 59 54 44 34 28 25 23 24 28 32 31 39 56 51 55 46 42 39 33 41 40 42 21 21 36 22 17 16 13 15 22 17 12 12 14 15 15 20 23 29

GFSSW_sfc_rhum_036.txt.gz
RH
85 85 87 90 92 94 94 94 93 92 91 90 90 89 88 88 82 31 35 32 32 68 61 17 14 12 11 12 9 8 14 15 16 13 14 10 17 54 50 59 52 70 86 94 90
75 77 78 82 88 91 92 94 95 93 92 91 90 90 89 88 53 31 42 65 64 65 17 12 12 11 13 11 10 11 14 16 10 12 14 12 18 25 47 51 67 58 82 88 83
74 75 75 74 81 87 90 91 96 94 93 92 91 90 89 76 38 24 70 65 65 56 19 13 9 10 12 10 10 10 13 12 10 12 12 15 21 25 47 68 67 76 84 90 89
74 75 77 75 76 82 90 92 94 95 94 93 91 90 88 52 26 26 72 68 67 24 17 10 10 12 13 12 9 11 10 10 10 11 13 21 23 26 49 49 60 74 76 73 81
66 74 76 76 77 82 86 90 92 95 95 93 90 90 62 31 24 38 74 64 24 18 17 10 11 12 15 12 10 11 10 10 10 11 15 18 25 34 54 69 66 67 64 67 82
66 67 70 79 80 84 84 86 89 93 94 94 91 94 53 45 14 31 26 22 14 14 13 9 11 12 15 14 13 13 13 12 10 11 16 23 34 41 49 55 65 62 70 73 72
76 66 74 73 79 84 85 86 90 91 93 94 90 65 55 46 13 11 18 17 13 12 13 11 11 14 14 17 11 12 14 12 12 12 18 25 31 46 44 46 54 56 59 59 64
76 77 73 68 75 83 86 88 90 92 93 93 86 61 59 21 17 16 15 17 12 10 12 11 12 15 17 16 15 14 13 17 16 16 28 35 66 38 40 47 51 46 50 48 54
83 78 77 76 69 81 87 86 83 88 92 85 68 61 40 27 21 14 13 18 13 12 13 11 14 16 15 18 17 15 16 18 21 16 30 40 66 43 43 34 42 41 40 48 56
83 84 78 77 77 76 85 80 69 81 70 51 45 43 32 20 14 14 12 16 14 15 16 17 16 18 16 18 23 18 20 17 23 18 18 45 63 68 64 30 32 31 35 37 45
83 84 83 77 77 78 71 50 42 70 58 39 31 23 12 16 11 12 11 18 14 16 22 18 20 22 17 16 13 13 18 21 17 18 19 22 54 72 70 30 32 29 30 31 33
81 84 85 81 78 80 66 61 28 40 48 25 29 26 21 17 18 14 11 23 22 23 19 20 26 18 15 14 13 13 14 17 15 16 16 13 32 60 70 34 28 29 36 30 31
80 85 82 83 80 73 60 49 31 34 46 22 14 16 15 16 21 16 11 21 22 24 22 25 20 16 16 15 15 14 16 15 16 19 15 14 14 41 39 26 27 26 32 30 28
82 85 80 83 78 48 44 30 31 38 52 16 12 18 14 15 20 14 11 16 21 23 20 20 16 16 16 16 13 17 12 15 19 19 20 17 27 22 22 23 27 26 28 29 29
82 86 81 87 62 50 54 54 38 54 45 7 8 13 16 20 15 18 13 16 22 20 19 22 19 18 20 15 12 16 16 18 17 17 21 20 23 16 16 18 23 28 28 28 28
82 85 82 72 71 54 44 62 55 62 43 11 22 23 22 22 19 14 16 14 16 18 17 17 13 14 16 13 12 12 17 20 20 20 35 26 20 18 17 17 17 21 26 26 26
82 82 79 46 67 48 70 82 74 52 11 10 23 25 24 26 23 22 19 21 24 30 28 18 16 14 14 15 14 15 21 31 34 36 44 22 21 22 18 23 29 24 28 45 26
83 82 74 48 50 62 89 96 51 20 22 9 10 18 30 25 26 24 21 23 20 20 24 25 28 17 13 15 17 19 20 36 51 60 44 45 32 16 16 15 12 13 27 31 26
84 81 75 66 60 78 90 98 51 20 11 16 14 22 23 25 23 26 22 23 20 20 27 27 23 14 14 13 15 20 25 18 28 42 63 73 32 13 13 13 11 11 13 19 17
94 90 76 65 71 85 98 93 53 20 13 13 18 15 22 26 26 25 24 18 20 18 18 22 27 17 14 13 15 17 15 35 30 49 58 32 28 22 22 14 11 13 14 16 18
98 99 66 64 80 98 94 73 44 28 20 20 22 22 17 19 24 26 24 18 18 17 16 19 26 24 19 19 19 19 23 28 31 31 57 53 33 24 25 15 15 14 15 17 20
97 99 65 66 98 94 91 53 44 30 24 23 20 21 20 20 27 30 26 21 16 17 21 19 28 36 24 16 15 16 21 22 41 38 40 63 37 18 22 18 17 16 15 16 18
98 97 76 70 94 96 72 63 39 37 31 28 25 22 19 32 61 51 38 23 20 20 22 22 27 43 32 23 19 21 18 22 27 34 45 75 41 18 16 15 14 17 15 16 19
99 99 96 93 56 65 76 65 52 34 32 25 22 20 22 33 44 62 66 28 29 20 50 42 28 31 45 29 26 27 19 18 29 50 47 47 34 29 22 23 18 17 16 15 18
99 98 87 97 92 59 55 45 51 42 32 30 27 26 25 36 50 64 64 58 39 40 26 37 37 29 25 19 19 20 20 18 20 36 44 40 36 26 21 22 26 19 19 16 17
100 98 74 54 72 68 62 55 43 36 33 34 34 24 23 30 42 58 69 66 49 38 32 35 39 36 39 25 19 23 18 17 17 17 18 19 21 16 16 19 25 24 17 18 18
99 83 64 65 74 78 70 56 48 37 33 25 27 28 30 24 32 53 71 78 73 60 53 40 44 43 49 31 29 39 26 18 17 16 18 25 21 15 15 14 14 18 16 18 23

GFSSW_sfc_rhum_039.txt.gz
RH
82 80 81 83 85 89 90 90 92 95 95 93 92 92 91 90 89 55 52 46 50 73 62 28 22 19 20 21 20 20 24 27 19 19 21 23 32 54 58 68 63 79 80 88 94
74 75 75 78 82 83 87 90 90 93 96 95 93 92 91 91 77 52 45 70 70 72 22 22 22 20 22 21 21 20 28 22 15 20 20 19 31 56 50 59 64 91 93 94 92
71 72 73 76 82 82 84 87 91 92 87 94 94 93 92 88 63 31 68 69 71 64 25 24 23 15 20 19 18 18 22 15 14 18 19 31 38 46 58 61 65 78 94 94 92
66 66 73 74 78 83 85 86 86 88 88 93 94 94 92 81 36 37 70 70 69 35 27 24 16 17 20 20 16 18 14 13 14 17 20 30 41 67 61 70 62 85 87 89 91
64 66 67 68 73 80 85 86 85 86 89 92 92 93 89 62 43 46 72 66 39 26 26 26 18 17 19 20 20 16 14 13 15 14 22 35 55 76 92 82 78 80 76 88 90
79 69 64 66 69 71 80 84 86 87 89 90 92 94 89 77 26 40 41 36 26 23 20 22 17 14 21 20 24 18 17 17 16 15 25 36 52 62 82 80 81 69 82 88 89
81 80 76 64 65 69 76 82 85 86 86 89 90 83 85 67 29 37 27 27 23 19 19 17 16 22 22 25 21 20 22 18 16 15 32 28 40 67 66 74 74 75 77 83 87
80 82 82 78 74 73 76 79 82 83 82 86 92 87 85 35 34 30 27 27 21 17 16 16 18 23 27 22 22 24 23 28 18 31 37 30 55 50 58 59 72 73 64 76 80
82 83 84 85 81 78 77 77 78 78 81 85 97 90 81 35 36 29 24 23 23 19 18 13 22 27 25 31 34 31 32 25 20 21 42 44 61 48 61 64 61 63 57 62 74
83 85 84 84 84 81 82 78 73 76 77 68 66 79 56 30 23 22 20 17 25 22 23 24 27 31 31 34 42 35 28 43 33 27 40 61 66 50 50 75 62 58 63 66 68
81 82 86 83 84 82 82 67 66 92 81 71 58 43 27 23 19 21 19 18 24 25 31 29 36 38 31 26 22 21 21 24 27 25 33 50 66 47 42 69 59 52 54 65 60
80 82 85 84 85 83 87 82 62 55 74 47 51 46 39 34 34 23 15 24 32 33 28 32 36 26 22 21 22 22 23 22 19 23 27 50 59 48 54 63 49 44 52 59 58
82 82 85 83 84 90 82 69 48 48 74 46 37 28 23 19 28 27 17 19 33 34 28 33 29 22 22 24 24 22 23 22 26 24 20 26 75 71 58 54 48 39 37 48 61
84 84 84 81 90 77 74 56 64 58 95 42 20 20 17 17 26 17 20 20 33 33 29 31 23 23 24 26 21 24 17 18 21 30 37 22 42 70 58 49 47 40 41 45 61
84 85 85 82 92 85 58 54 52 75 62 20 15 12 14 20 22 22 17 23 31 32 30 33 30 28 27 23 20 22 22 30 30 35 35 28 38 32 46 52 44 44 42 44 48
85 85 85 86 94 77 62 60 84 95 91 23 24 27 27 20 22 21 21 21 20 28 27 27 20 21 22 20 19 17 26 29 32 35 53 33 38 42 48 42 38 39 39 40 40
85 84 83 64 79 68 77 86 95 90 14 12 29 26 30 32 25 25 29 29 32 36 38 27 24 19 18 25 21 22 29 47 52 59 60 44 46 40 28 29 25 34 34 38 36
86 86 84 68 66 62 88 97 99 36 31 16 16 27 37 30 32 31 31 35 26 28 37 38 41 23 19 22 25 24 28 58 57 76 56 48 49 37 29 32 24 28 29 31 37
85 94 93 77 75 83 99 98 65 45 22 19 16 22 24 33 33 32 33 34 29 24 35 39 34 20 16 17 18 24 34 26 43 64 70 70 46 36 27 25 25 25 32 36 38
97 97 89 71 72 90 98 82 64 42 27 26 28 24 24 25 35 39 38 28 29 21 22 34 40 23 20 17 20 22 24 41 49 74 77 63 58 46 29 24 20 20 29 31 34
99 99 77 70 89 97 97 83 56 41 37 43 34 27 24 30 27 26 37 27 24 23 21 24 33 35 25 25 23 29 28 38 41 56 71 71 53 36 35 28 22 16 21 25 28
97 100 74 70 99 96 90 72 59 39 39 42 39 36 37 33 32 30 54 45 40 33 28 25 38 42 31 25 19 22 25 30 68 58 59 75 49 29 29 30 22 19 18 24 31
98 98 84 71 97 96 73 71 62 61 47 42 42 36 35 36 40 62 61 52 55 59 48 28 33 44 37 26 23 24 24 26 36 54 58 72 60 32 29 28 19 21 19 23 25
99 100 99 96 68 73 76 74 75 54 60 46 40 38 38 43 34 59 64 52 62 62 73 58 30 35 44 36 33 38 32 26 30 66 59 65 48 38 32 33 28 30 34 29 24
100 98 88 97 96 78 65 61 68 72 50 47 47 45 43 48 41 50 58 64 53 67 68 64 49 31 26 27 28 29 29 31 29 34 48 49 46 37 33 27 23 29 23 24 24
100 99 89 72 78 82 73 70 63 54 50 51 46 40 41 45 39 43 62 76 76 76 77 65 61 48 48 26 26 30 31 29 26 29 35 34 36 29 24 27 40 28 27 25 24
98 94 73 77 82 94 82 72 64 58 50 42 41 43 46 43 44 67 68 73 82 75 86 88 80 55 51 47 40 53 38 28 29 24 24 44 36 24 25 27 27 28 25 26 25

GFSSW_sfc_rhum_042.txt.gz
RH
78 75 76 79 84 84 84 85 88 89 90 85 87 94 93 93 91 64 56 42 60 74 68 30 27 27 26 28 25 22 30 31 25 23 22 31 42 68 64 62 70 78 85 94 94
72 68 71 74 81 84 86 86 86 85 89 85 85 91 93 94 85 65 51 70 76 77 24 20 29 27 30 27 25 25 31 24 19 20 22 39 48 64 59 66 84 88 93 95 92
70 68 68 69 75 80 83 87 86 83 84 88 90 91 92 94 74 38 74 76 78 66 25 26 28 29 26 25 25 25 25 18 15 17 23 60 61 55 54 64 74 86 94 94 93
76 71 71 68 68 70 76 85 85 81 82 83 85 86 91 96 24 40 70 69 72 36 28 31 28 22 24 23 20 24 17 16 15 19 26 43 61 77 68 70 70 87 88 90 92
81 80 75 70 66 68 71 79 82 84 82 81 82 84 93 79 58 39 73 66 46 30 28 27 32 24 22 19 23 26 18 16 17 22 52 50 69 86 90 89 86 83 86 89 88
82 81 80 78 73 71 74 79 80 83 84 81 80 90 96 87 28 31 48 43 29 26 24 29 28 20 20 26 29 26 25 23 17 19 56 76 86 74 86 87 92 83 95 92 90
82 83 83 80 81 79 76 78 79 79 80 79 78 82 80 76 39 35 33 34 28 24 20 21 24 23 27 25 27 24 25 22 20 21 38 44 56 77 83 84 86 92 94 96 88
80 82 86 84 84 84 83 81 80 79 77 79 79 82 86 47 51 46 44 41 31 25 21 20 21 23 28 29 26 27 28 32 21 36 37 37 53 64 83 81 87 92 89 93 96
82 84 85 88 86 83 84 83 80 77 77 81 88 90 89 50 49 40 32 30 27 28 24 16 22 25 28 33 36 40 38 34 26 25 40 45 55 52 72 73 81 81 89 93 96
83 84 85 88 85 84 85 82 71 80 77 70 72 84 63 29 29 26 33 24 27 33 32 26 30 32 36 38 44 39 36 36 32 40 45 56 53 61 67 68 69 82 71 89 90
82 83 84 86 84 85 88 73 62 83 88 82 72 62 34 27 31 27 25 25 26 32 37 33 38 43 34 33 29 30 31 31 24 28 42 52 54 59 73 80 76 76 72 71 87
82 84 83 85 85 85 90 90 71 64 74 47 56 57 48 40 49 35 25 27 33 42 34 37 40 31 29 30 30 30 32 30 23 26 33 56 56 61 69 74 80 64 70 72 80
85 84 84 84 86 90 90 72 50 56 89 52 43 45 46 42 55 41 29 26 37 44 37 36 33 26 29 30 30 30 32 31 24 26 32 53 58 58 50 63 58 60 54 64 80
86 84 84 83 85 84 82 59 56 66 89 44 35 32 29 25 34 19 22 22 33 40 41 35 26 27 32 30 27 34 27 24 23 33 37 32 47 74 55 58 54 56 52 67 74
86 86 83 81 89 85 63 56 60 73 29 14 24 22 26 22 21 24 19 26 30 39 37 43 37 33 33 29 27 32 28 26 29 35 40 35 40 36 57 57 53 58 48 57 65
86 86 85 89 97 84 65 66 82 90 74 34 22 25 27 23 26 24 26 28 28 38 36 36 28 29 30 25 26 23 28 31 35 41 55 38 42 49 66 46 43 48 42 56 63
86 85 86 72 83 72 60 92 98 96 23 16 30 32 30 28 27 31 32 34 38 46 44 38 35 28 26 30 26 27 35 50 53 61 62 41 51 46 37 39 41 44 44 42 60
85 88 86 79 80 76 85 98 98 46 30 21 23 19 38 33 30 30 36 41 33 37 42 40 53 31 25 28 30 32 34 57 60 76 50 55 52 40 29 33 32 33 38 40 45
87 97 96 87 84 87 96 99 75 51 35 26 17 21 25 26 37 34 41 38 35 31 44 49 42 26 22 22 25 32 39 32 45 68 73 60 49 36 32 30 31 32 35 38 42
98 98 90 78 85 91 99 90 67 45 37 42 44 30 32 30 39 48 47 36 36 31 27 38 47 31 23 24 23 24 24 42 56 62 73 62 58 47 35 26 31 33 40 38 42
99 99 82 82 92 98 97 86 59 44 44 50 49 51 37 36 34 37 41 40 41 36 28 31 37 39 32 36 30 32 34 43 43 63 69 72 59 47 37 32 30 26 23 32 38
98 100 85 76 99 91 89 71 62 54 47 49 51 50 42 41 43 39 47 39 59 55 60 51 41 46 34 24 25 26 27 34 54 60 69 76 49 34 34 37 30 24 18 27 29
99 98 88 74 96 94 71 67 62 61 54 53 52 49 46 45 50 44 49 63 60 61 73 67 73 60 44 33 32 32 30 27 44 64 66 77 56 32 36 32 28 24 21 25 37
100 100 99 96 78 73 75 68 68 57 62 60 60 56 52 56 46 53 57 58 62 67 82 76 76 70 62 43 36 41 29 28 33 67 56 60 43 40 37 37 33 30 29 26 30
99 98 93 98 95 83 70 66 69 68 60 58 66 60 60 66 55 53 51 71 58 79 73 80 94 82 69 51 31 30 31 34 34 41 51 43 48 35 34 35 34 31 27 26 26
100 99 94 85 80 88 79 75 68 64 58 62 71 52 53 62 55 61 53 54 71 75 73 80 94 88 80 53 39 32 27 31 30 36 40 36 39 35 30 32 33 31 27 25 25
96 94 85 82 92 97 86 75 67 62 58 51 52 58 55 50 46 58 66 72 72 77 91 86 94 97 90 65 50 53 34 28 38 33 34 47 40 33 33 32 35 30 27 26 27

GFSSW_sfc_rhum_045.txt.gz
RH
74 73 72 73 78 81 80 81 84 82 80 79 82 85 87 90 88 74 55 42 70 77 62 31 30 29 30 30 28 28 35 39 30 26 24 39 53 77 68 71 78 87 93 94 94
73 66 65 70 76 75 79 81 84 83 81 81 83 87 87 89 92 80 54 72 78 74 24 23 30 28 32 32 29 30 36 28 22 22 26 40 52 66 70 69 87 93 89 92 92
72 74 71 72 73 69 74 78 80 80 81 83 84 84 84 87 72 28 69 73 81 74 25 21 28 27 35 29 26 28 30 24 18 18 28 61 68 58 58 65 72 86 98 94 94
74 74 72 73 75 74 75 77 79 77 76 77 78 80 84 98 15 40 72 74 78 46 27 29 32 28 24 24 23 27 20 21 20 20 50 61 65 76 72 66 68 81 93 97 97
80 79 75 74 73 80 78 78 79 80 79 76 76 79 86 84 63 44 71 68 51 30 25 28 28 22 22 20 26 26 25 24 22 24 52 57 71 76 92 88 89 93 94 95 96
82 83 82 78 78 81 82 83 82 81 81 77 75 81 84 88 32 36 58 52 30 31 28 29 26 23 24 24 29 28 28 27 24 46 64 69 85 85 88 92 94 95 97 92 91
80 82 83 82 83 84 84 82 84 83 82 77 74 79 86 73 48 45 41 39 33 26 22 26 29 31 30 30 28 29 28 26 23 32 54 64 77 91 88 94 95 97 87 85 82
74 81 84 85 86 86 83 83 83 84 82 79 76 85 86 51 59 54 55 46 36 33 28 23 27 29 30 29 27 30 35 34 28 38 45 43 52 63 93 96 97 98 99 91 84
84 85 86 86 86 86 84 83 83 82 79 78 89 86 86 53 57 50 43 35 29 33 31 20 26 30 31 34 36 40 36 37 30 26 42 45 50 59 94 90 95 97 97 96 93
85 85 86 87 86 86 85 84 80 83 78 70 76 83 58 37 32 31 45 31 30 37 38 34 33 35 40 38 43 37 41 55 36 30 48 56 47 64 94 90 88 93 95 96 98
84 84 85 86 86 87 85 82 62 79 69 82 72 68 48 37 36 37 32 32 30 38 46 35 39 44 38 34 34 34 38 38 32 26 40 48 52 56 80 89 88 91 88 94 96
85 86 85 86 86 87 91 94 73 74 92 62 54 52 55 50 58 37 32 31 36 45 41 42 40 36 32 33 35 37 39 38 31 26 33 44 55 58 77 83 80 75 83 76 92
85 87 86 86 87 87 95 79 55 60 95 72 53 47 34 49 58 49 41 32 35 45 43 47 37 31 33 36 38 38 40 38 34 29 46 56 50 66 55 70 77 74 66 67 78
86 88 87 86 82 84 89 62 52 65 97 41 51 40 37 44 58 31 30 27 35 36 46 43 31 32 38 34 36 42 32 32 36 37 42 38 52 40 61 63 67 67 71 68 72
87 87 87 84 86 86 60 58 57 77 28 15 30 26 34 33 24 35 24 29 33 44 44 50 39 38 36 32 32 37 35 36 37 37 42 39 42 35 64 64 61 60 64 64 70
87 88 85 93 98 92 77 69 82 94 58 30 24 36 39 32 26 27 30 29 29 37 44 39 34 32 33 30 30 30 36 35 44 46 58 39 41 46 58 48 48 48 52 56 65
86 87 87 78 85 80 76 92 98 95 32 20 28 31 32 34 28 32 33 36 39 48 46 40 40 38 34 40 37 36 41 55 54 64 60 40 57 48 34 41 44 45 48 53 62
86 88 88 85 85 80 89 97 96 57 52 28 24 20 38 29 28 35 38 37 37 38 45 42 50 37 35 36 39 40 39 61 59 73 49 56 60 42 35 31 33 40 38 49 57
87 96 97 98 87 91 96 99 72 62 42 48 34 23 27 28 40 35 41 44 33 36 43 52 45 30 29 28 32 41 44 35 48 71 73 59 50 37 36 33 35 38 49 52 56
97 98 92 92 82 94 99 81 65 52 48 45 55 44 42 37 40 48 51 45 42 35 31 43 51 36 30 29 31 30 32 45 60 62 74 61 65 48 36 27 31 36 38 48 47
99 99 86 82 90 99 94 72 61 48 50 60 58 48 45 44 45 42 41 54 52 50 42 37 44 44 34 40 36 37 41 45 43 61 51 54 54 50 35 35 32 32 34 48 50
98 100 92 81 100 98 86 61 56 54 52 51 58 58 56 48 45 42 43 38 62 59 72 69 57 59 39 28 29 36 36 40 49 53 74 74 41 33 39 38 41 37 30 30 45
100 98 96 79 98 96 70 68 61 66 62 61 61 61 47 49 51 48 45 63 64 69 66 58 82 83 53 38 37 37 32 32 51 62 48 67 45 34 33 37 34 32 28 25 34
100 100 100 99 86 73 84 74 71 60 64 64 67 63 60 62 54 55 54 49 66 69 81 76 83 86 94 90 76 70 49 32 37 62 58 50 42 36 38 38 35 32 30 25 27
100 99 94 98 98 82 69 64 70 69 60 62 63 67 70 79 66 63 51 57 60 79 72 75 81 93 86 64 56 59 58 48 38 36 45 43 47 36 36 35 34 35 32 29 28
100 99 97 90 86 96 85 77 67 59 57 67 78 70 64 67 60 61 60 59 63 70 73 79 76 90 90 55 55 59 53 51 42 36 44 39 44 37 33 37 37 36 34 30 28
97 94 94 97 98 98 87 77 74 62 61 53 63 66 70 61 58 53 54 51 60 73 88 90 93 92 86 80 64 62 67 49 40 31 39 46 38 31 38 38 37 32 35 32 29

GFSSW_sfc_rhum_048.txt.gz
RH
76 72 73 72 76 75 73 76 77 77 76 77 79 79 82 83 84 86 62 39 65 73 59 35 31 34 31 32 31 32 37 42 35 30 24 46 54 75 72 76 85 92 93 88 85
74 73 74 74 78 78 77 77 78 76 79 78 77 81 85 84 87 97 59 72 77 77 29 26 33 29 33 33 32 32 39 32 26 23 23 34 45 57 73 70 84 97 88 90 92
71 73 73 73 74 80 81 80 78 77 79 79 80 80 83 83 83 24 71 74 78 64 23 21 28 31 36 32 30 32 32 27 22 20 22 32 67 68 72 64 67 86 95 96 94
73 73 73 72 73 75 82 83 83 81 79 79 75 78 83 93 15 40 73 79 81 47 26 29 34 36 29 30 26 29 24 23 21 24 36 64 68 73 61 65 69 80 94 90 94
78 78 76 72 72 75 82 84 83 81 82 78 75 76 83 88 60 42 68 76 59 31 25 30 31 24 24 23 23 26 26 27 25 27 34 60 68 71 84 87 89 95 96 98 89
79 81 79 76 75 76 81 83 81 82 82 79 77 76 92 81 32 46 45 56 38 32 29 29 28 25 24 24 28 28 30 29 28 26 67 66 85 88 80 91 94 98 84 96 94
82 82 81 77 81 82 82 82 82 80 80 76 78 76 82 64 47 48 49 44 37 30 24 28 28 33 33 34 28 31 31 28 26 29 60 69 64 87 85 94 95 99 82 81 88
81 84 86 85 85 86 85 84 83 80 79 77 77 87 86 51 64 60 60 48 40 34 35 30 30 31 33 31 29 34 35 37 29 44 48 49 49 55 96 96 97 96 83 80 83
85 85 87 88 88 86 86 86 82 77 79 81 86 86 76 52 63 52 48 38 31 36 36 23 28 33 33 37 40 40 39 37 30 29 46 51 52 69 96 96 96 98 94 85 81
85 85 86 87 88 89 89 83 74 79 74 73 71 76 46 22 36 38 55 42 33 39 41 39 41 40 42 40 47 44 46 53 38 35 50 56 54 60 98 98 95 95 97 97 88
84 85 86 87 88 89 87 82 72 76 72 78 73 65 44 45 41 42 40 39 38 44 49 46 47 46 41 37 33 34 41 42 35 31 33 34 39 32 92 99 98 95 95 96 98
86 86 86 87 88 89 91 91 71 71 94 64 66 63 52 50 60 32 34 34 40 46 44 43 44 38 33 35 35 38 41 40 33 31 32 39 42 54 80 92 92 91 93 91 96
87 87 88 89 89 82 94 82 55 58 95 68 58 58 42 42 50 40 40 34 39 47 47 45 41 33 34 39 39 42 43 42 36 38 38 57 47 56 58 78 86 84 77 80 84
87 89 89 90 86 87 81 63 58 62 90 54 61 49 37 49 58 29 31 32 41 41 47 49 38 39 41 38 37 45 38 36 39 44 50 46 58 39 44 60 76 74 84 76 74
87 89 89 87 95 95 67 66 56 80 31 17 38 30 42 33 25 36 31 34 41 43 47 53 46 43 43 39 34 38 37 39 41 48 49 45 50 38 64 50 56 63 70 76 72
87 87 89 93 94 87 84 75 83 91 65 28 30 45 50 43 34 34 38 33 32 41 50 41 39 37 36 34 33 34 40 44 50 53 66 47 45 45 46 44 40 48 56 62 73
86 87 90 80 82 85 82 87 98 93 43 28 29 31 36 43 39 34 40 46 40 47 51 44 44 39 34 39 42 39 45 59 59 70 69 45 51 40 33 34 38 35 45 55 65
85 86 88 91 84 83 88 96 93 64 63 43 37 32 36 34 32 35 38 42 38 41 50 47 51 43 38 40 43 46 45 66 63 74 52 57 61 44 37 32 34 38 42 49 64
85 98 99 94 79 88 93 99 73 63 53 53 43 38 38 33 41 38 38 37 33 37 40 50 45 32 34 35 35 46 51 39 52 72 74 58 48 38 37 38 38 36 36 49 63
97 95 94 88 77 93 98 82 70 56 56 59 57 51 52 43 42 45 51 58 45 35 37 45 51 38 34 33 37 36 36 52 64 61 69 62 70 47 41 35 32 31 34 46 60
96 99 84 85 92 100 98 90 62 44 48 65 68 60 52 47 45 41 41 58 63 57 42 40 50 46 37 41 38 42 46 48 49 64 64 65 55 50 34 33 32 31 32 39 58
98 100 94 86 100 100 93 68 57 54 55 59 62 63 63 56 51 42 43 56 66 65 67 69 60 64 43 33 32 38 43 46 65 55 77 78 48 33 42 37 42 39 35 37 48
99 99 96 92 98 97 88 72 61 69 65 63 66 66 58 52 50 52 53 57 54 70 69 69 80 89 61 46 62 62 48 53 52 61 61 77 56 33 39 38 34 36 33 32 31
100 100 98 99 90 79 96 90 74 63 66 65 71 65 63 67 58 59 58 50 60 66 84 72 83 75 91 82 79 85 64 57 67 72 61 52 49 35 34 39 34 35 35 31 29
100 99 97 98 98 92 78 69 79 68 59 65 70 74 76 80 72 64 54 52 48 71 70 70 76 87 78 74 70 62 57 56 58 66 68 56 45 38 36 33 33 33 36 31 28
100 99 93 95 84 98 93 91 72 64 57 69 80 74 70 78 67 67 58 61 57 53 76 78 78 91 92 72 68 63 57 54 56 58 59 51 46 36 32 36 39 36 36 36 32
98 95 97 82 97 97 91 80 82 60 60 52 66 71 75 64 64 64 62 61 63 67 76 88 90 91 82 78 68 76 61 52 51 44 52 62 52 36 34 36 39 36 38 38 35

GFSSW_sfc_rhum_051.txt.gz
RH
75 74 72 73 80 82 80 80 80 78 74 74 74 76 78 83 85 77 62 34 61 73 59 30 24 25 21 23 21 22 24 25 23 23 17 26 33 49 52 53 66 71 77 73 75
70 71 72 73 78 80 82 82 84 82 79 80 80 79 81 83 83 72 59 69 76 77 25 22 22 21 20 22 22 21 26 23 19 17 17 16 32 31 53 58 62 78 71 75 79
73 73 72 72 73 77 80 84 84 77 76 81 81 80 81 80 67 21 78 79 76 71 22 20 22 22 24 22 22 23 23 22 18 16 16 18 31 44 50 47 52 67 72 76 84
74 75 75 74 72 75 80 83 81 74 74 76 76 77 81 85 10 32 72 79 78 56 21 27 27 27 26 24 21 22 20 19 16 18 21 23 44 51 50 47 52 57 68 78 76
77 77 76 73 72 76 82 82 82 77 75 73 74 77 77 69 38 35 60 66 60 33 23 25 28 24 22 20 20 22 18 19 18 22 23 44 46 47 55 60 66 77 82 84 79
83 83 81 79 76 78 82 84 84 82 78 73 73 77 77 72 23 40 43 38 42 29 24 24 22 20 19 18 20 21 20 22 22 19 39 42 54 67 57 70 74 80 79 83 78
83 85 85 83 83 85 84 84 85 83 81 74 72 75 76 49 36 40 46 36 32 28 24 23 22 22 23 26 22 23 25 22 21 19 34 52 49 61 61 70 74 85 75 76 83
80 84 86 87 88 88 88 87 86 83 80 77 75 79 73 45 51 54 50 43 35 30 31 24 23 23 25 24 24 24 27 27 20 31 45 39 29 30 64 71 71 78 75 70 75
81 85 86 87 88 89 89 88 85 78 79 79 83 75 55 47 60 45 42 36 33 30 30 24 25 27 26 29 29 32 26 28 22 23 42 37 35 36 75 73 68 77 73 72 73
81 85 86 87 88 89 90 85 76 77 74 73 66 66 50 21 33 37 48 41 28 33 32 33 34 32 33 29 30 31 31 30 26 26 37 39 36 35 70 73 68 68 77 78 77
81 83 87 87 87 89 86 77 69 67 67 72 64 61 46 49 41 41 42 41 32 34 45 40 38 37 31 30 27 27 28 28 26 22 24 26 26 22 39 77 75 70 71 76 79
82 85 88 88 90 88 81 78 73 71 94 64 67 60 50 50 60 39 32 35 39 36 42 41 47 33 30 30 28 28 28 28 25 25 26 24 25 26 45 63 68 68 69 67 72
82 85 88 90 90 79 84 80 55 60 94 64 56 59 53 44 52 41 35 33 36 42 44 42 37 32 31 33 34 33 33 34 28 29 27 34 31 24 33 50 59 67 60 62 64
84 88 89 90 79 84 74 66 64 63 93 57 63 56 40 42 49 30 27 31 36 37 43 40 33 33 33 33 32 39 32 30 31 30 26 31 38 30 25 29 43 46 66 62 63
85 87 88 87 88 80 72 75 66 82 45 20 42 30 38 41 26 35 26 29 40 38 41 42 45 38 37 31 31 31 34 32 31 33 38 36 37 31 31 29 27 29 45 57 60
80 83 87 89 92 81 79 78 82 88 66 35 32 45 47 41 36 35 36 30 29 40 42 33 35 33 30 33 30 31 30 37 41 42 51 38 34 30 24 24 24 24 30 44 58
79 83 85 83 85 75 80 84 86 85 42 40 41 32 31 39 42 38 42 40 36 45 53 44 38 33 31 35 34 31 38 43 48 54 49 39 39 30 26 23 25 23 21 33 53
80 87 88 90 85 82 81 89 90 53 62 44 42 41 32 32 34 35 42 40 34 37 37 41 49 38 36 36 38 38 36 46 50 56 39 42 41 27 27 22 25 24 27 32 43
84 96 98 95 84 89 90 96 70 58 54 61 50 43 40 32 38 37 38 38 30 37 43 49 39 32 36 36 30 41 43 34 46 53 52 42 35 26 24 26 27 26 27 26 30
99 96 93 92 90 94 99 84 67 53 54 57 60 47 49 42 35 36 48 55 54 39 34 42 43 32 30 30 33 32 32 44 50 49 50 44 44 31 29 25 24 27 25 23 27
98 96 85 90 92 100 98 82 65 46 43 59 66 63 57 55 45 36 38 44 54 61 37 36 42 42 31 34 34 37 38 40 40 49 47 50 42 40 31 29 26 24 27 28 28
94 95 95 95 98 100 97 90 58 49 50 51 60 58 60 51 48 42 42 59 47 65 63 62 52 53 36 31 30 31 36 39 51 46 59 61 42 30 34 33 31 28 30 29 29
97 89 93 95 96 93 98 93 61 61 59 60 67 64 57 53 52 44 49 47 43 62 70 64 68 69 54 42 53 61 59 54 58 57 54 63 41 26 29 29 29 32 27 27 29
98 100 97 98 87 86 96 85 79 61 58 61 66 62 61 63 55 56 51 44 49 53 82 68 65 66 64 62 65 66 52 46 51 68 58 54 46 31 31 33 28 26 28 26 29
98 97 85 98 92 96 90 95 78 69 57 56 69 67 68 72 65 58 50 48 43 54 64 62 61 62 50 52 62 57 49 45 50 49 56 42 45 38 34 33 30 27 27 27 26
100 100 97 89 87 98 96 98 80 68 60 66 69 66 65 70 61 57 57 49 52 49 71 62 69 78 76 65 58 62 52 47 46 44 43 48 50 36 33 30 33 31 28 29 28
95 94 97 86 81 94 81 84 86 66 61 51 63 74 79 65 61 60 58 58 56 61 63 65 83 79 68 71 61 64 59 48 40 33 37 40 29 38 39 36 37 33 30 30 30

GFSSW_sfc_rhum_054.txt.gz
RH
70 70 70 72 74 76 76 77 80 76 76 77 79 82 81 83 79 29 30 28 38 69 63 29 22 15 14 14 14 13 13 12 10 15 12 13 16 17 27 24 39 39 38 46 52
72 72 72 72 75 78 78 78 81 76 75 76 80 82 82 83 51 21 37 62 72 76 24 24 19 15 14 13 14 13 13 11 9 12 12 12 13 12 22 23 32 38 46 53 51
71 71 72 72 72 76 80 82 82 77 75 78 78 78 82 70 30 11 72 78 80 68 17 15 12 12 12 12 14 13 13 10 12 11 12 13 14 14 19 22 24 32 41 52 51
74 75 75 74 73 74 80 83 80 77 76 75 74 74 81 53 10 20 68 79 74 36 18 16 13 12 12 14 11 14 12 10 10 12 14 15 14 19 22 22 32 34 38 45 49
79 80 79 77 76 79 83 84 83 80 78 77 75 73 60 32 16 15 54 51 34 30 18 18 15 12 12 11 14 16 11 12 11 12 14 14 18 19 21 27 36 43 48 50 53
82 84 81 79 78 80 84 86 86 85 84 79 76 74 61 43 13 20 28 24 24 26 24 19 15 12 14 13 15 13 12 12 12 13 14 20 15 35 20 32 40 48 52 56 61
82 84 84 81 81 82 84 87 87 86 85 80 76 58 65 40 16 22 25 22 23 22 19 20 18 17 13 16 13 12 16 14 14 13 13 19 18 29 19 37 40 44 48 52 55
80 82 86 86 87 87 87 88 87 85 84 79 77 64 50 27 25 33 27 21 19 21 23 16 17 18 19 14 17 16 16 17 11 12 15 24 20 13 26 37 36 40 44 49 49
80 84 86 88 88 88 88 86 85 78 78 76 68 64 36 38 35 26 24 24 17 17 23 19 19 19 16 20 18 19 18 18 14 13 15 27 20 17 30 36 30 37 39 41 42
79 81 86 88 89 89 88 85 72 73 58 53 50 64 33 16 24 33 36 34 23 17 29 27 23 20 17 17 24 19 19 14 15 13 18 19 21 15 21 30 36 31 37 38 43
78 80 84 88 88 89 67 41 37 47 46 42 36 40 33 33 31 32 40 41 26 21 29 30 28 26 17 17 16 14 16 14 11 13 17 17 15 13 15 23 32 32 36 40 39
77 81 82 85 89 87 53 54 63 61 89 48 44 44 34 29 44 30 29 35 34 26 22 35 36 21 18 17 17 17 18 16 13 16 16 12 14 13 16 21 26 29 33 37 38
77 82 84 89 89 66 57 63 51 50 70 49 41 45 42 36 35 27 33 31 32 31 19 30 22 21 24 23 23 20 20 19 18 17 16 17 17 14 14 21 26 28 29 32 37
77 82 88 89 76 57 51 49 48 56 89 32 31 36 40 34 38 25 18 25 27 27 27 24 17 26 27 24 20 24 17 20 20 21 17 17 22 14 14 14 20 22 33 33 35
78 80 87 86 67 56 54 50 50 72 40 18 29 26 31 32 27 32 20 18 24 28 28 31 26 25 27 24 18 21 18 22 21 22 20 18 21 15 13 16 13 12 19 29 32
75 77 84 62 72 59 49 57 61 70 37 27 25 27 37 30 30 30 32 18 16 28 27 23 22 22 20 19 20 19 23 24 25 23 33 20 19 15 12 15 13 11 13 20 29
74 77 76 55 62 57 68 54 66 40 26 36 38 32 30 27 32 36 40 37 25 32 34 28 26 27 26 21 23 21 27 31 33 35 34 19 23 19 16 14 14 13 11 20 26
75 82 67 50 51 67 73 63 63 33 38 35 39 30 28 27 29 29 39 38 24 22 20 26 36 29 28 26 27 28 25 29 36 38 25 27 30 20 15 15 15 12 14 17 26
78 60 65 55 59 80 85 82 34 34 37 47 33 32 29 26 26 30 34 34 25 27 28 28 25 24 26 27 23 28 34 23 29 38 37 26 23 18 15 14 14 14 15 15 18
82 76 58 54 69 87 94 63 43 38 45 44 47 42 41 36 28 26 39 40 48 24 26 29 34 25 27 26 26 28 22 37 34 42 42 25 27 22 19 16 14 14 15 13 14
86 79 49 58 82 93 91 55 44 32 37 46 52 49 44 42 35 27 38 36 38 48 35 27 36 36 29 32 30 32 32 30 26 30 37 35 26 20 20 24 25 18 15 15 17
80 90 69 80 100 88 88 52 54 40 36 38 41 46 47 44 43 36 32 37 35 39 44 29 38 40 29 28 24 23 27 28 37 37 36 44 28 19 23 22 20 20 18 17 17
77 72 68 84 95 90 71 69 52 43 39 41 44 48 42 46 48 36 32 32 34 40 57 49 37 37 32 29 29 33 34 33 36 39 40 56 31 18 19 20 19 19 18 17 16
86 96 83 88 78 76 64 68 60 48 44 42 41 47 51 51 41 41 37 30 34 35 70 58 45 40 32 31 33 49 40 36 38 49 39 36 30 26 23 21 19 19 19 17 18
95 92 57 93 78 72 68 76 56 56 46 41 46 46 50 66 49 47 37 35 30 44 45 51 59 42 37 37 34 36 36 34 36 37 44 33 30 24 20 18 20 22 22 19 18
99 85 76 59 56 67 68 77 59 57 55 50 50 48 50 63 55 47 44 42 42 36 45 47 44 42 40 31 40 44 33 30 30 29 30 28 29 20 17 16 18 19 19 22 21
93 76 94 59 57 62 60 61 51 56 54 42 47 51 69 55 47 45 45 48 47 49 53 50 59 49 39 46 39 42 37 31 28 23 23 26 19 16 19 20 22 22 25 31 29

GFSSW_sfc_rhum_057.txt.gz
RH
71 72 72 72 74 75 75 76 78 76 76 75 74 74 75 82 78 25 15 22 29 62 67 21 24 18 12 11 10 10 13 12 9 8 9 9 11 8 11 13 17 21 24 28 39
70 70 70 72 74 78 78 78 81 77 76 76 76 77 80 81 46 21 37 75 73 66 26 20 23 16 13 11 10 12 12 10 7 6 9 9 10 9 10 13 16 17 22 35 40
71 73 74 75 76 79 81 82 82 78 77 77 77 78 80 65 28 12 64 79 80 65 24 14 16 15 14 11 11 11 12 9 8 8 8 9 10 9 10 14 15 19 20 32 39
74 75 77 76 75 78 82 84 84 80 79 78 77 76 79 44 16 16 59 71 73 30 25 15 16 16 15 12 9 12 10 9 7 8 9 11 10 11 11 13 18 20 24 30 33
78 80 79 77 76 78 83 85 86 83 82 79 78 76 48 29 25 10 50 39 29 29 22 17 17 15 15 10 9 10 10 8 7 7 9 11 12 12 11 11 19 23 31 30 31
83 82 80 78 78 80 83 85 86 86 85 80 78 78 46 39 13 10 16 9 11 23 21 16 16 12 12 10 9 9 11 10 8 9 9 12 12 11 13 12 20 26 32 32 34
78 82 82 80 81 84 85 86 86 85 85 80 78 56 44 28 11 14 19 17 10 9 15 20 16 13 12 13 11 10 12 11 10 9 10 11 12 13 10 12 20 26 30 32 35
78 80 84 86 87 88 88 87 86 85 84 80 79 50 39 14 13 18 20 21 18 11 13 16 15 20 16 13 13 14 14 15 10 10 10 10 17 10 11 17 19 23 26 32 33
77 80 84 87 88 89 88 87 85 84 78 77 61 49 31 27 20 14 21 24 21 11 14 14 16 21 19 20 20 18 18 16 14 9 10 12 17 10 14 19 17 19 24 29 32
74 77 82 86 88 88 88 87 66 73 63 38 34 55 32 14 17 24 25 20 35 18 16 16 19 23 20 18 24 20 18 16 15 11 11 11 14 12 13 15 19 18 21 26 29
72 75 82 84 86 88 73 34 32 44 31 29 25 33 22 21 18 22 32 35 31 26 19 16 21 23 23 20 16 15 15 15 13 9 12 13 11 11 11 11 14 20 20 25 27
70 75 80 84 87 86 66 41 48 52 67 35 32 33 27 23 34 23 26 33 45 48 22 24 25 16 14 14 15 15 17 16 13 10 14 12 10 9 9 11 12 16 20 22 26
71 75 80 86 86 72 43 45 35 44 53 32 26 29 30 28 31 25 24 25 49 56 48 27 18 19 18 17 17 18 19 18 16 12 14 13 12 11 9 10 11 14 14 16 23
73 76 83 88 77 44 45 35 37 47 64 20 22 27 30 29 35 21 15 26 33 44 43 38 16 21 22 20 19 24 15 16 16 17 20 11 17 12 10 11 13 14 14 16 19
74 75 81 83 56 57 41 39 42 61 46 13 24 21 25 29 23 22 15 17 32 31 29 32 22 20 23 20 19 21 16 16 18 20 20 17 17 14 11 11 11 11 13 16 18
70 73 78 49 63 45 38 48 52 86 38 18 18 22 22 21 27 21 29 21 18 24 22 24 20 22 26 19 16 15 18 18 20 21 32 22 18 15 12 11 12 10 9 12 18
70 73 69 46 55 47 50 53 55 43 17 24 26 23 21 23 24 28 35 33 32 39 32 20 26 20 21 24 18 17 23 31 33 34 36 18 19 17 12 12 12 11 10 11 14
70 76 57 39 37 54 60 52 54 21 22 22 25 20 22 22 26 26 36 38 29 29 32 26 38 23 22 24 22 22 23 31 42 43 27 18 23 15 12 12 12 11 10 11 15
72 47 46 44 46 47 69 76 29 21 20 25 20 18 20 23 24 24 28 38 27 25 32 26 19 15 19 21 22 24 28 19 28 30 37 21 19 14 14 12 12 11 11 12 14
46 68 48 41 48 64 89 59 28 23 28 24 24 24 29 30 28 25 32 37 40 29 19 24 27 14 18 22 22 22 18 28 29 46 48 26 27 26 17 15 14 13 12 12 12
56 84 39 43 57 92 89 49 29 20 27 31 28 33 29 35 32 30 35 36 36 36 28 23 31 28 24 29 27 27 30 30 25 29 40 42 27 16 21 22 21 18 14 16 16
66 95 50 56 96 82 78 41 39 27 25 28 31 35 37 35 36 34 31 29 34 39 53 32 36 37 37 21 21 22 27 32 38 43 32 41 33 18 20 19 19 18 16 15 14
70 66 45 74 89 77 50 43 36 32 29 30 31 29 28 35 41 33 29 27 29 38 53 50 38 44 36 29 25 27 25 25 28 32 50 60 35 17 17 18 17 18 16 15 15
87 98 56 84 68 62 53 55 48 36 32 26 27 27 36 38 33 38 33 26 28 31 64 58 51 35 38 34 23 33 30 27 30 43 39 40 31 21 21 20 17 16 18 18 17
88 85 58 84 60 63 55 63 47 49 34 28 34 32 35 41 36 40 37 30 26 42 36 64 64 51 28 31 30 27 31 31 32 30 38 31 29 21 19 18 15 14 15 15 16
99 79 51 52 51 48 53 67 54 43 40 40 38 32 32 38 37 43 39 45 42 30 36 56 73 55 54 32 31 35 30 27 25 24 25 23 23 16 16 16 16 16 15 17 20
68 68 82 60 49 58 56 41 39 37 43 42 37 39 43 38 39 44 44 55 46 44 46 45 52 71 71 40 36 44 34 30 28 24 25 30 22 15 16 16 18 20 23 24 27

GFSSW_sfc_rhum_060.txt.gz
RH
69 70 71 72 75 76 76 79 81 78 78 77 79 80 79 82 79 32 20 22 28 55 52 18 22 20 18 14 11 10 16 17 14 12 9 9 11 9 8 12 11 16 20 31 37
68 70 70 73 79 81 82 83 84 83 80 82 83 82 83 83 56 32 38 77 77 67 18 14 23 22 21 17 13 13 17 15 11 9 8 8 10 10 9 12 14 13 18 33 37
71 72 72 74 77 79 81 83 85 83 82 83 83 82 82 73 42 18 59 67 73 72 31 11 16 19 22 16 13 13 16 12 9 8 7 8 8 8 10 12 13 23 18 36 38
72 74 77 76 74 78 83 85 85 82 82 82 78 79 80 56 30 18 53 54 67 41 26 17 19 20 21 19 13 14 11 12 10 8 8 9 8 10 10 12 10 17 19 22 33
76 78 78 77 76 79 84 85 85 85 84 78 77 77 62 26 27 15 43 40 35 30 22 22 23 19 21 17 14 13 11 10 9 8 8 8 10 11 11 10 10 18 23 26 29
78 79 79 78 77 79 84 86 86 86 85 81 78 78 61 48 16 12 12 13 8 20 24 20 18 15 16 15 14 12 10 9 8 9 8 8 9 10 11 9 11 18 24 28 31
75 77 79 79 79 81 85 86 86 86 85 82 79 62 56 36 13 14 12 17 15 8 10 10 15 21 17 17 12 11 12 10 10 11 10 9 11 12 10 9 11 17 23 27 33
73 76 82 83 85 86 86 86 86 85 85 84 80 58 54 18 14 12 12 13 14 18 13 11 12 21 23 18 17 15 15 18 12 11 10 10 17 11 9 10 12 16 22 28 29
73 75 80 84 86 86 86 85 84 84 83 76 69 58 43 26 18 13 12 20 19 22 18 12 12 21 22 28 29 21 22 20 15 10 10 11 16 11 9 14 16 15 19 26 31
72 72 78 82 86 86 85 84 70 71 57 42 40 49 40 21 17 17 19 18 25 30 25 26 17 22 27 29 35 26 22 20 18 12 12 12 13 12 12 14 19 16 16 23 29
71 69 76 80 84 85 74 54 34 46 38 37 27 36 26 17 15 18 26 25 33 46 41 31 22 23 30 27 25 22 19 19 15 12 13 15 13 10 10 11 16 17 19 20 28
69 69 72 79 84 83 69 45 39 44 68 39 33 29 23 21 26 21 24 36 45 76 60 53 30 14 16 22 24 23 24 21 16 12 13 12 13 10 9 10 11 13 19 21 23
68 69 74 82 83 70 49 44 29 43 62 38 20 20 22 23 28 22 17 34 37 48 74 66 31 19 17 17 21 22 24 21 19 15 13 14 17 15 9 9 9 12 13 17 21
66 72 79 84 71 47 45 31 35 58 71 35 26 24 26 24 30 18 15 24 30 50 63 72 51 34 37 23 20 25 16 16 17 19 23 14 24 15 11 11 10 11 16 17 17
71 69 77 76 59 45 45 34 44 68 70 14 21 18 21 26 23 19 15 22 33 43 68 78 50 52 38 30 22 25 19 20 20 21 24 20 22 17 12 12 11 12 15 17 18
69 67 73 51 57 47 47 45 64 96 73 18 17 21 19 19 24 19 25 18 16 24 46 44 35 42 29 19 20 19 21 23 23 25 37 25 23 21 15 12 11 10 12 15 17
68 69 64 47 55 45 52 59 92 70 15 17 21 18 17 16 20 25 33 34 28 36 37 35 35 23 27 32 24 25 28 37 43 44 46 23 24 24 16 11 12 12 12 15 20
73 74 58 42 40 51 65 80 71 25 19 16 18 18 18 18 22 25 32 35 28 25 32 54 59 29 24 29 29 30 30 39 58 60 36 21 27 20 14 11 12 12 13 16 18
72 55 51 50 52 53 76 98 39 26 15 18 19 16 13 17 22 23 28 32 28 27 40 49 40 22 24 27 24 34 48 24 36 35 49 37 20 15 13 14 11 12 12 16 17
63 57 45 49 57 63 90 71 39 22 17 23 24 13 21 19 25 23 40 44 38 25 26 29 46 25 19 22 24 31 27 44 36 55 64 36 28 24 20 17 14 14 16 16 17
74 68 40 49 57 87 95 60 36 26 19 27 28 21 23 25 26 28 28 46 39 38 38 26 36 37 26 25 30 31 35 40 41 34 55 60 45 33 28 25 23 21 20 22 21
87 93 44 54 90 75 91 55 43 26 21 22 28 29 31 30 30 31 31 28 30 36 53 49 37 44 43 28 21 25 30 33 55 58 41 56 42 27 29 23 25 23 19 19 19
91 55 42 74 96 78 51 45 37 32 27 26 28 26 26 28 34 29 29 25 27 31 49 48 46 54 41 36 33 32 31 29 36 54 91 78 57 24 20 21 21 24 24 20 21
98 91 52 82 56 61 62 50 46 29 29 28 25 24 26 30 28 34 30 26 26 27 64 48 66 58 52 57 64 65 33 39 41 81 80 80 51 43 36 27 20 22 21 18 19
100 84 54 89 65 57 54 71 52 40 32 27 31 28 28 37 31 32 28 26 25 48 41 62 92 61 48 44 40 40 45 35 43 61 73 48 40 44 44 41 21 17 18 18 19
99 77 44 44 56 66 55 58 48 51 38 38 34 27 28 32 32 34 34 50 37 36 37 64 82 74 65 45 34 34 38 61 58 28 30 40 56 32 27 16 19 19 19 23 27
94 62 88 73 66 56 71 48 36 35 40 48 42 41 33 41 52 49 41 58 56 56 51 58 70 90 74 51 43 51 35 42 45 24 24 32 25 24 19 17 19 24 25 34 35

GFSSW_sfc_rhum_063.txt.gz
RH
69 70 71 71 75 78 77 79 84 80 78 78 79 81 81 84 84 65 45 40 52 59 56 22 23 32 35 40 29 30 31 28 24 21 17 12 17 17 13 15 20 24 19 52 54
70 71 71 72 79 80 81 82 84 81 79 79 80 82 83 84 85 62 47 62 68 65 33 23 19 31 38 35 30 25 30 24 17 16 15 12 14 13 14 19 20 22 49 51 49
70 71 72 75 75 78 80 84 85 80 78 79 80 81 82 80 68 28 58 62 65 74 57 36 18 19 38 32 31 27 27 19 16 14 16 14 12 13 15 22 21 32 55 53 51
73 75 75 75 75 76 82 85 82 79 79 79 78 77 81 80 45 20 52 56 67 58 50 38 28 21 31 37 28 28 20 17 15 13 13 14 12 14 16 20 24 24 48 51 51
78 77 76 75 75 76 82 85 85 81 80 80 78 77 74 67 54 22 53 50 51 37 33 30 25 28 34 26 25 24 20 15 13 13 13 12 12 14 16 14 22 29 29 36 48
75 75 75 75 75 76 80 84 85 85 82 81 80 76 77 90 32 18 19 18 16 18 27 28 25 22 25 23 24 21 19 16 14 13 11 12 13 15 14 14 13 29 36 36 39
74 74 75 75 75 78 82 84 84 84 83 81 81 67 78 71 30 26 25 25 21 25 14 15 14 18 28 33 21 20 22 17 15 12 12 14 17 14 13 14 14 29 34 40 40
75 74 78 79 80 83 85 84 83 82 80 79 81 79 80 39 38 30 23 19 17 20 24 21 16 18 30 28 27 30 28 28 16 14 14 16 21 15 12 14 16 17 32 40 43
75 73 77 79 81 83 84 84 82 78 78 82 88 88 74 36 37 26 23 20 23 24 26 21 20 21 24 37 41 37 40 30 20 15 15 17 19 15 13 14 17 21 35 39 45
72 71 74 77 80 81 82 81 73 76 69 53 56 85 56 34 22 20 25 26 25 36 39 34 29 26 30 39 58 47 34 28 25 18 17 17 17 15 14 19 24 25 25 41 43
67 68 71 76 78 80 79 80 49 58 54 54 53 57 40 25 19 20 28 31 43 56 65 42 42 42 25 31 31 31 31 33 28 19 20 19 16 16 17 20 28 28 26 39 42
65 68 68 72 78 77 84 84 51 60 76 49 46 41 35 29 32 26 24 44 58 78 73 67 56 38 24 20 32 31 33 34 26 20 22 21 18 18 16 16 20 25 27 27 39
70 68 69 78 77 82 71 57 44 49 84 56 35 37 33 29 34 33 26 44 52 66 80 82 58 37 38 27 21 30 36 34 30 23 18 19 22 20 16 16 14 18 20 24 38
74 74 78 81 79 68 64 51 49 55 84 51 34 25 29 28 37 25 22 25 46 50 70 78 61 52 49 55 29 24 20 22 23 25 31 23 38 24 19 17 14 14 23 25 39
76 74 76 71 84 79 56 51 48 73 98 34 28 22 25 32 31 27 21 28 37 58 73 66 71 66 59 42 34 42 26 28 28 30 32 29 38 28 22 21 15 16 20 23 36
74 73 74 65 74 63 54 58 67 93 89 23 26 31 33 32 32 28 27 28 28 33 50 50 48 66 65 50 46 37 45 36 34 35 50 37 36 38 26 20 19 14 18 22 31
74 73 71 58 80 57 56 82 86 91 29 22 25 22 22 23 32 31 38 35 37 41 39 38 47 40 53 65 47 40 59 63 59 61 64 32 36 30 25 18 19 18 19 22 29
76 78 78 61 64 63 78 87 88 44 40 19 21 21 24 19 26 32 41 50 33 32 43 41 67 38 33 35 56 43 48 72 70 74 50 30 41 30 20 16 16 16 21 25 32
78 89 85 67 66 75 87 94 69 37 23 26 25 28 23 16 24 30 40 45 35 35 44 53 48 32 28 32 35 51 52 35 57 66 70 56 41 21 20 18 16 16 22 29 32
93 89 78 58 70 84 98 73 58 36 33 34 34 27 25 26 30 34 45 55 61 42 34 41 52 33 32 30 37 41 33 64 84 91 94 50 52 54 36 22 24 21 25 27 28
93 97 62 61 67 93 96 78 50 38 36 34 34 36 33 33 32 35 42 51 44 45 47 52 52 44 33 35 42 43 55 83 76 65 76 75 61 47 37 34 31 29 28 28 26
90 99 69 70 94 94 91 59 53 44 41 42 38 38 40 38 42 39 38 47 39 42 58 57 74 60 37 25 27 35 43 71 98 83 72 69 73 43 35 27 28 28 24 26 30
96 82 61 86 99 96 71 55 52 51 49 44 38 34 35 39 48 39 37 42 37 44 58 48 72 77 58 40 36 47 35 50 55 61 96 98 67 51 49 45 25 22 21 27 36
99 98 83 92 84 96 85 74 60 44 42 39 35 34 39 42 38 44 41 37 45 44 62 53 67 80 86 70 77 80 59 37 48 84 80 88 73 70 61 59 44 23 23 33 41
99 96 79 97 86 82 74 67 67 83 45 36 37 38 42 47 44 50 42 38 36 57 56 76 86 77 72 60 61 71 68 50 58 59 90 74 78 62 77 68 42 25 31 40 42
100 98 81 77 65 84 97 78 64 53 76 63 62 41 36 43 49 58 68 63 71 54 62 70 86 82 78 55 52 58 57 46 64 64 59 68 83 72 72 71 57 32 41 45 47
94 80 97 84 80 88 78 74 76 60 48 64 65 77 70 66 71 64 64 68 67 71 71 83 88 89 89 65 74 72 51 66 72 72 63 91 57 67 69 54 41 46 42 45 47

GFSSW_sfc_rhum_066.txt.gz
RH
71 70 70 71 76 78 77 77 81 79 79 78 78 78 78 82 82 63 52 46 63 67 68 33 33 41 43 51 42 37 51 52 39 30 24 17 18 14 15 26 28 26 47 52 64
69 69 70 70 76 78 77 79 81 79 78 78 78 79 81 84 78 68 55 59 67 68 37 28 25 28 48 51 48 45 50 45 28 23 20 17 18 15 14 24 26 60 66 61 63
72 72 72 72 72 74 78 82 80 78 78 78 78 78 82 80 55 39 48 67 69 73 50 40 26 21 47 44 42 39 42 29 22 19 19 18 17 16 15 19 23 56 67 64 63
74 74 72 72 72 73 79 82 78 77 78 78 78 78 78 81 9 25 55 64 62 68 64 53 48 27 28 48 39 43 31 26 23 20 19 18 16 16 15 16 20 50 56 56 57
76 74 73 72 71 72 76 81 79 78 78 79 79 78 72 79 67 37 50 38 53 49 46 39 37 29 32 32 36 40 34 28 22 19 18 16 17 16 15 14 28 50 52 55 56
76 74 74 73 72 71 74 78 81 81 78 78 78 76 79 82 41 33 25 28 26 41 28 36 29 22 33 35 36 29 30 27 22 19 18 17 15 18 15 15 34 49 52 56 57
72 75 75 73 70 69 73 80 81 82 78 77 77 73 75 72 43 42 40 36 26 26 29 23 22 21 25 36 33 29 31 25 22 20 19 17 17 18 13 14 15 37 38 49 52
72 73 74 74 74 76 77 79 79 78 78 78 79 76 86 46 51 50 45 33 24 19 23 26 26 22 24 31 31 36 36 38 23 18 16 18 23 15 14 14 15 29 41 44 48
72 72 75 76 76 78 79 79 77 78 79 81 92 88 81 50 52 42 41 32 20 28 32 21 28 27 23 41 47 46 52 39 27 18 18 20 23 16 15 17 15 17 40 46 49
70 68 72 75 75 77 78 77 77 78 68 67 64 88 70 45 31 22 25 24 28 43 43 42 38 31 34 47 62 55 46 36 30 24 23 26 24 18 14 17 18 19 31 45 49
68 66 69 74 75 76 75 89 62 62 57 58 66 68 55 40 30 25 23 34 52 57 68 54 53 55 33 33 37 35 37 42 33 29 30 28 26 27 20 18 22 30 37 46 48
70 69 70 73 77 74 87 78 61 59 78 50 52 51 46 41 48 36 26 40 61 73 78 76 70 46 33 27 28 36 39 43 33 26 28 27 30 21 19 18 20 28 34 44 52
72 71 71 78 76 75 73 64 50 64 83 61 44 44 45 42 48 42 29 49 60 78 82 80 65 49 41 40 35 31 32 40 38 30 24 30 31 22 19 18 19 25 26 35 48
76 76 78 80 71 73 74 54 52 71 96 60 49 38 35 34 46 30 27 43 56 65 80 85 66 66 64 55 43 59 23 23 28 32 55 31 51 28 23 22 20 19 28 34 46
79 76 78 72 82 86 62 53 52 80 71 34 33 26 31 37 32 30 26 30 40 66 71 70 76 76 73 57 43 46 44 50 47 52 53 37 42 29 26 25 22 21 21 30 43
74 74 75 74 79 72 60 58 79 92 74 38 32 35 43 36 37 29 30 31 30 43 67 58 65 64 61 51 48 53 53 52 44 49 71 44 43 45 33 23 22 20 20 28 42
73 74 76 71 85 64 70 88 91 97 31 32 35 35 40 43 40 38 37 38 44 44 48 41 55 59 58 68 54 57 72 70 69 72 75 40 44 39 29 25 23 23 20 26 42
75 79 84 72 78 77 80 95 98 49 46 29 32 27 29 25 32 42 45 44 39 35 50 50 61 44 57 64 66 61 76 85 91 93 67 34 47 36 24 20 20 20 23 30 44
78 96 96 88 81 84 91 100 67 48 37 45 41 33 29 23 27 41 50 52 41 34 46 56 55 41 45 43 52 75 93 63 84 69 91 61 45 32 32 24 21 20 32 41 48
97 97 94 64 81 81 95 78 63 42 40 42 54 40 45 40 39 35 44 59 67 58 39 47 61 38 37 37 41 50 60 97 97 96 94 58 51 55 41 39 30 34 38 45 50
95 98 75 66 79 97 94 79 55 38 37 47 58 53 44 46 41 40 57 65 53 62 51 68 60 51 43 45 58 60 95 91 82 82 96 81 73 64 52 38 38 44 46 48 49
96 99 67 86 95 96 91 68 57 47 42 46 49 53 50 43 45 43 42 51 41 45 64 59 76 90 54 32 31 53 73 75 98 86 81 87 94 74 56 43 33 43 46 48 47
100 95 73 91 99 96 79 68 60 58 53 47 51 45 46 49 48 45 46 52 44 52 59 52 73 91 61 47 37 51 50 63 75 88 97 98 84 75 59 63 58 40 47 48 51
100 99 88 96 91 92 97 86 73 54 56 50 52 50 48 50 48 48 42 49 51 49 63 57 73 84 90 88 80 85 66 62 84 99 89 91 73 81 84 81 58 52 49 49 52
100 96 89 97 96 97 85 82 79 79 67 62 58 51 48 55 55 56 54 55 52 65 69 71 77 87 76 69 59 58 84 78 73 80 86 71 68 71 88 80 70 58 50 50 52
100 99 94 97 76 74 83 88 81 83 61 66 81 81 78 68 50 61 68 63 80 66 73 82 84 89 86 60 50 61 71 75 93 85 61 62 70 70 89 86 68 57 50 55 58
98 92 94 82 85 81 80 66 76 55 75 60 76 89 87 76 82 76 73 68 67 70 79 81 87 90 87 68 63 82 63 58 61 74 79 94 67 79 83 84 71 55 56 59 60

GFSSW_sfc_rhum_069.txt.gz
RH
71 70 70 70 72 74 75 76 77 76 75 75 76 77 77 81 84 76 61 39 57 66 69 44 44 49 50 53 49 40 54 60 44 36 28 22 22 19 18 24 27 33 61 56 66
71 71 71 72 72 73 74 75 77 76 75 76 77 76 79 83 88 85 48 57 69 70 49 36 31 42 56 58 54 55 66 45 35 27 27 25 22 20 19 20 20 54 68 75 73
71 72 72 72 71 72 73 75 75 74 74 76 77 75 76 81 78 18 54 69 69 69 46 42 31 26 51 52 55 52 47 38 32 28 30 25 22 22 22 22 24 43 71 79 76
75 75 73 72 72 72 73 78 73 72 72 75 76 74 79 87 9 32 66 62 60 73 66 66 54 38 30 51 47 50 39 34 35 29 28 26 23 21 21 19 17 20 65 73 72
70 77 74 73 72 71 73 76 72 72 72 74 76 73 80 78 52 34 53 42 41 67 65 55 47 39 32 33 43 49 44 37 34 31 28 24 25 22 20 16 17 46 65 67 68
70 74 74 73 70 68 70 76 78 76 73 74 76 74 91 89 32 37 40 37 30 58 49 46 42 29 32 37 39 36 36 35 34 33 30 28 24 24 18 18 27 63 65 64 63
72 74 74 72 69 68 70 76 79 79 75 74 75 74 83 80 48 47 50 45 32 32 34 22 25 25 27 33 35 34 39 34 31 31 26 24 25 24 16 17 29 62 59 61 61
71 73 75 73 74 74 75 77 78 79 79 79 77 82 90 48 51 52 55 42 37 36 30 27 28 25 24 26 34 40 42 48 33 26 24 20 30 21 16 16 19 46 55 59 62
72 72 75 77 77 76 76 76 80 79 80 80 87 88 78 52 56 41 41 37 28 27 32 23 31 31 25 37 52 53 62 49 37 24 24 21 28 21 18 20 19 18 45 52 57
71 70 73 77 77 76 76 79 80 77 75 72 68 91 64 43 38 31 29 35 27 44 44 44 42 39 36 51 57 61 56 56 42 30 33 38 34 26 22 22 22 19 32 48 52
72 72 72 76 75 76 79 81 68 69 64 63 60 70 52 44 33 32 28 34 52 54 61 62 61 64 44 40 41 44 47 48 44 30 38 37 34 29 25 29 23 21 27 48 48
72 72 73 73 76 77 71 71 61 66 96 62 56 55 46 44 57 38 32 42 60 67 80 77 76 54 46 40 34 35 40 46 38 29 34 37 36 28 25 24 22 20 28 32 47
72 74 75 78 78 69 76 69 52 58 94 58 43 46 44 44 54 44 34 44 63 78 83 79 65 58 53 49 48 44 38 43 44 35 36 38 37 36 27 22 20 21 24 37 52
74 75 81 80 68 82 80 57 52 63 94 55 53 47 44 45 54 37 32 50 62 70 80 86 70 71 75 71 55 58 35 39 30 35 58 42 64 43 33 28 26 22 32 41 54
74 74 80 74 89 86 69 58 56 83 70 28 42 31 35 40 35 38 30 34 64 67 78 73 82 90 81 70 54 54 58 58 57 61 61 51 59 46 34 31 27 25 23 32 45
74 73 76 79 91 80 73 68 87 88 61 37 36 42 43 40 38 30 33 32 32 50 73 67 67 68 69 58 51 51 62 57 58 62 77 50 53 54 40 31 27 23 22 26 43
75 74 77 79 92 79 80 90 86 97 31 40 39 38 45 47 42 34 37 40 46 52 54 44 50 68 65 75 60 64 86 85 78 81 72 48 52 42 34 30 29 28 23 26 41
75 78 84 76 90 84 88 90 88 38 49 38 40 39 47 40 45 43 43 47 40 40 48 54 49 63 65 61 66 63 89 95 89 90 80 51 60 39 36 32 31 23 22 22 33
79 96 97 94 89 90 94 97 54 51 44 48 44 46 41 36 40 49 50 49 42 36 44 56 57 45 62 58 67 86 92 84 93 87 93 72 49 39 41 43 45 32 24 29 47
97 98 96 80 87 90 89 73 74 46 43 41 60 54 57 50 46 46 54 57 69 42 40 50 60 44 46 56 66 85 76 99 98 97 95 68 68 85 62 54 55 63 64 58 64
95 95 73 82 85 93 91 79 63 43 45 50 64 61 50 56 46 48 52 69 72 61 48 61 56 53 48 63 73 91 96 96 92 90 95 90 94 76 75 70 62 63 64 66 70
96 98 71 89 98 97 93 69 56 55 49 53 56 58 60 53 54 41 50 55 44 50 64 55 77 95 73 45 52 63 78 93 99 97 93 99 93 74 75 64 60 61 62 63 70
92 98 82 86 98 96 83 72 65 64 60 57 58 54 52 58 72 50 46 48 46 58 54 52 73 92 67 58 60 73 78 82 85 92 90 97 84 76 70 69 60 62 61 64 70
99 99 85 96 92 89 93 86 77 74 72 71 61 56 61 63 50 60 51 44 54 51 66 59 75 82 91 90 82 95 80 74 88 100 94 94 86 87 79 81 70 72 58 66 74
100 95 88 99 97 84 75 81 92 88 68 66 72 76 91 86 60 67 58 55 62 69 72 66 70 89 79 74 70 71 76 78 95 92 98 71 68 68 84 88 88 70 57 62 66
100 98 91 96 85 86 83 89 70 78 57 84 78 84 80 95 76 86 65 66 71 73 80 82 83 91 84 73 61 57 52 64 78 84 91 80 70 71 84 85 87 84 68 68 70
98 90 94 83 83 81 70 63 78 63 60 53 66 93 95 83 81 89 84 80 74 73 79 81 88 90 82 74 74 76 72 56 71 78 75 97 72 87 89 77 84 88 79 76 70

GFSSW_sfc_rhum_072.txt.gz
RH
72 72 71 71 72 72 73 73 74 74 74 73 74 76 76 77 82 84 85 44 75 67 70 48 47 51 51 50 49 44 50 61 43 38 29 27 28 22 22 22 22 34 55 65 73
69 71 71 72 72 72 72 73 74 73 72 72 74 75 76 81 90 95 67 55 67 69 52 39 37 51 62 60 59 52 66 40 37 32 30 29 30 26 22 25 25 30 59 79 80
68 73 74 73 68 71 72 73 72 70 70 71 72 75 78 84 73 15 57 64 67 70 51 46 30 37 54 61 59 67 52 42 37 31 34 34 28 26 26 27 26 23 27 80 85
68 70 74 72 70 70 72 76 71 70 70 71 72 75 78 86 8 41 59 57 57 71 58 62 47 36 37 48 51 59 48 40 38 35 37 34 32 30 25 24 21 21 22 75 87
71 72 73 72 71 70 71 74 70 70 72 73 72 74 81 79 56 30 47 46 69 70 63 61 52 42 34 32 40 53 51 43 38 36 34 32 34 30 28 22 22 19 28 72 78
72 73 74 73 70 68 68 74 76 74 74 74 75 74 87 76 36 36 44 45 32 61 55 54 47 40 40 36 36 36 37 37 37 37 36 36 34 33 28 24 19 24 43 72 76
70 72 74 72 69 69 70 75 77 78 77 79 78 74 87 70 46 49 50 48 37 32 32 27 34 25 27 29 32 39 46 40 38 39 41 38 36 31 24 22 20 25 56 72 70
72 73 75 74 74 76 77 76 79 82 83 82 78 78 92 51 56 54 54 48 45 39 32 30 30 30 29 25 33 44 50 55 39 34 31 27 39 28 23 23 21 22 54 65 64
74 74 76 79 80 79 77 78 80 80 81 81 85 89 85 51 61 47 44 36 28 27 30 20 31 35 32 33 45 56 59 55 46 31 29 29 36 27 23 24 23 22 38 66 60
73 72 73 78 79 78 78 76 77 81 79 73 71 96 58 44 42 35 34 38 30 41 41 41 41 39 36 44 54 60 61 63 55 40 38 38 37 34 30 29 30 29 23 54 53
71 71 72 74 76 78 71 73 75 77 74 69 60 74 49 41 37 33 32 33 51 51 48 56 58 57 46 41 36 45 52 56 51 37 42 42 41 34 31 32 32 32 28 27 42
71 72 73 74 75 69 67 71 66 72 93 66 68 65 51 47 59 46 36 39 56 60 78 74 73 55 50 46 41 41 42 42 40 37 39 44 42 36 31 31 28 28 27 27 29
72 73 76 77 72 70 83 67 53 62 98 71 48 47 45 48 57 48 40 40 59 67 79 73 59 60 60 63 59 55 55 52 43 37 36 44 40 35 29 32 26 25 23 24 32
74 75 80 81 71 86 81 61 62 70 95 54 51 51 47 47 60 42 36 46 62 64 77 81 67 69 79 83 67 72 49 44 41 47 56 43 60 42 38 34 31 27 26 33 32
74 75 76 72 92 81 62 70 62 91 27 24 48 37 45 52 38 42 34 40 65 69 77 69 81 85 90 76 63 70 57 64 61 71 68 62 58 44 41 39 34 30 26 25 50
74 75 75 86 95 83 83 74 88 60 23 36 41 46 48 43 39 34 38 33 42 58 74 71 65 76 75 63 62 57 70 62 66 75 90 60 57 54 48 38 33 28 25 24 28
74 76 81 83 83 85 86 87 56 48 30 46 49 40 43 50 46 37 44 44 48 56 55 45 46 67 64 76 69 73 80 91 89 89 87 52 60 44 32 30 39 43 36 27 23
75 76 85 83 93 89 92 75 41 34 52 45 44 43 51 43 45 46 44 52 45 42 48 50 46 64 70 62 73 84 71 94 90 90 81 58 67 50 46 45 53 57 58 34 29
78 95 94 92 91 93 87 92 34 62 50 53 45 59 52 46 49 50 51 48 42 37 48 52 56 50 67 64 59 81 95 82 99 99 97 72 58 53 64 66 59 65 67 71 37
96 96 91 85 90 91 93 68 68 52 51 47 59 60 67 58 53 51 55 56 58 39 36 48 62 47 65 67 77 81 82 99 99 98 89 70 81 96 88 77 70 75 79 80 70
94 91 71 89 88 95 98 80 69 48 53 62 68 66 64 58 59 55 50 72 73 66 45 53 62 55 68 70 86 83 88 98 95 86 98 94 95 81 82 72 77 78 83 90 83
96 96 70 90 98 98 100 78 55 62 53 57 62 66 68 63 74 57 60 54 65 65 85 69 90 96 76 54 59 79 92 89 99 99 97 99 97 76 68 65 66 75 77 81 81
93 87 86 85 96 100 91 86 67 71 68 67 65 58 52 65 82 79 69 59 60 63 71 64 94 88 62 67 69 82 81 81 94 99 99 98 90 76 70 71 74 69 74 71 73
97 99 84 95 89 94 98 88 82 80 83 75 75 74 76 74 55 82 83 67 64 68 71 59 77 70 65 74 82 84 66 67 97 100 98 95 85 86 83 84 80 66 69 68 68
95 94 88 99 97 88 85 78 86 92 90 73 83 89 95 93 76 82 65 82 68 65 73 61 69 87 77 74 73 73 73 66 76 91 100 88 87 73 85 84 87 65 66 63 62
99 97 90 97 86 89 83 82 83 82 66 66 95 90 77 94 78 95 85 77 95 64 82 85 93 88 75 76 64 59 44 55 58 74 80 85 84 64 87 85 90 80 68 69 66
99 97 93 81 83 83 78 67 72 69 67 61 65 77 86 81 84 78 82 92 93 83 84 81 88 84 73 76 70 56 66 51 60 76 83 90 72 86 92 86 89 88 78 77 71

GFSSW_sfc_rhum_075.txt.gz
RH
68 69 69 68 72 70 71 72 73 73 71 70 72 72 74 77 82 75 72 37 57 65 63 47 39 39 36 35 33 29 26 28 26 26 20 19 18 16 16 16 17 16 25 43 55
67 68 72 73 70 68 71 71 72 71 71 71 70 72 74 80 81 79 59 60 61 66 47 34 36 41 40 40 39 33 34 26 25 21 20 17 21 18 19 20 18 18 31 63 67
68 69 70 70 69 70 71 71 70 69 69 70 72 72 76 78 67 19 66 66 65 63 43 31 32 37 37 43 43 41 34 32 28 23 22 22 21 20 18 22 20 22 19 38 63
70 70 70 70 70 70 70 74 69 68 70 71 72 73 72 75 11 34 55 57 61 58 50 44 29 28 31 32 36 39 42 34 27 24 26 27 24 24 24 24 19 19 18 18 29
70 71 70 70 70 69 70 73 70 70 72 73 73 72 77 73 51 25 44 43 64 60 50 50 35 32 31 27 30 38 32 31 30 30 29 26 28 27 24 21 19 19 20 19 22
72 72 72 72 71 70 70 74 76 74 76 77 75 72 82 84 31 32 42 38 33 60 50 48 42 36 34 30 30 28 31 28 28 28 28 30 28 31 26 22 22 20 18 17 28
72 74 74 74 73 72 71 76 78 78 78 81 77 71 80 69 44 43 48 42 29 42 44 38 36 24 26 24 25 30 34 31 32 30 29 31 38 36 27 23 23 19 17 16 26
72 74 75 76 75 77 79 78 80 77 84 82 77 71 80 50 50 52 49 47 44 39 31 27 23 24 25 23 23 31 36 37 33 32 29 29 27 22 22 21 20 18 18 18 23
70 71 72 77 79 80 79 80 79 79 80 78 78 76 79 50 57 44 45 36 35 36 34 21 27 29 25 28 32 39 39 43 37 26 27 29 32 22 20 22 20 19 19 19 23
70 70 71 73 79 79 80 76 74 82 79 73 64 84 55 44 41 34 35 38 27 34 39 36 35 36 34 34 38 39 44 46 44 31 30 31 31 25 23 23 26 22 22 22 22
71 70 71 73 75 79 74 61 61 57 65 52 53 70 41 34 36 33 30 31 42 40 38 44 42 45 42 42 36 32 36 36 30 28 31 31 33 30 27 26 25 23 22 22 23
71 72 73 75 74 68 69 68 65 64 90 58 64 61 49 41 52 39 32 34 50 54 61 62 59 45 40 39 38 38 41 42 35 28 28 27 29 29 28 26 25 23 22 22 22
72 73 75 76 65 73 74 61 54 61 89 66 52 50 44 52 62 50 37 35 51 55 66 54 48 53 50 55 59 56 59 56 54 42 35 34 33 27 23 24 24 23 22 21 22
73 74 77 74 64 78 71 58 65 70 80 34 43 45 46 48 58 41 38 36 55 47 60 67 55 58 62 65 64 70 51 51 52 51 53 32 44 32 27 26 25 23 24 25 22
72 75 77 72 79 67 53 71 68 82 15 18 47 36 45 46 38 37 34 39 52 61 63 52 72 79 70 54 58 59 53 57 56 58 58 51 52 37 31 31 26 25 25 25 25
72 74 75 81 86 74 76 78 76 33 13 24 37 36 32 42 36 32 34 30 41 60 67 61 54 62 58 56 55 52 60 57 55 59 75 52 50 42 34 28 29 30 33 33 27
72 73 76 81 74 80 83 68 28 16 24 44 48 34 40 41 42 35 41 41 44 54 52 39 42 53 56 58 56 53 62 70 73 78 62 42 53 44 35 33 50 52 48 48 42
73 78 80 79 86 88 76 38 13 27 43 44 42 39 45 42 40 42 42 46 40 35 41 40 44 47 58 48 51 66 60 72 77 72 62 50 53 42 59 53 54 56 58 56 53
75 87 82 80 87 80 57 62 23 66 50 50 37 55 52 46 48 41 48 44 39 35 42 43 43 38 59 54 44 71 78 63 98 74 89 51 44 59 55 58 61 67 71 73 64
90 85 79 86 87 77 80 49 53 51 53 53 49 61 64 40 49 40 44 57 64 38 34 39 48 41 68 58 66 65 72 99 97 88 77 52 56 76 74 72 68 77 84 84 72
86 80 76 83 77 90 84 66 60 48 54 58 64 60 50 32 38 34 46 57 62 69 41 40 54 52 64 65 66 75 75 96 97 79 77 84 90 76 81 74 81 84 84 86 87
93 89 68 82 90 93 83 70 58 56 45 48 57 56 60 55 70 60 56 54 59 69 70 74 80 68 53 46 51 58 65 85 95 90 92 89 79 86 77 70 76 82 80 83 85
94 84 77 81 93 93 76 81 71 67 62 63 65 58 56 56 67 62 68 60 66 73 89 70 97 92 73 66 63 70 74 94 95 97 95 93 82 82 81 68 70 78 78 79 84
96 93 72 92 71 86 94 80 70 74 87 95 78 66 76 70 61 60 71 67 73 81 81 71 66 92 68 57 61 72 55 56 91 97 96 96 84 81 85 87 69 66 71 74 78
93 91 80 97 91 82 82 76 79 89 80 69 96 94 91 92 70 67 55 59 68 75 91 88 76 82 62 61 64 56 54 45 50 70 90 63 71 71 76 83 90 66 59 70 71
98 93 83 87 79 76 75 62 69 70 60 62 90 66 67 91 79 90 82 71 78 80 96 96 80 78 61 66 53 50 38 42 52 49 56 66 72 55 58 77 86 78 64 66 70
97 90 90 80 78 72 67 61 65 66 62 59 64 68 66 88 86 90 82 87 92 98 100 90 89 69 57 61 51 41 45 38 48 52 60 73 61 68 84 83 82 79 71 71 72

GFSSW_sfc_rhum_078.txt.gz
RH
66 66 68 72 72 67 70 71 72 71 70 70 71 72 72 74 78 45 35 30 37 63 59 30 28 24 16 15 17 15 19 18 14 15 13 10 11 8 8 9 9 10 12 17 25
66 67 67 68 68 70 70 71 71 70 69 70 71 72 73 77 59 38 38 52 58 64 24 23 19 23 21 20 19 17 17 16 12 14 14 11 11 10 12 13 13 11 11 24 28
67 68 67 67 67 69 70 70 71 70 68 69 71 72 76 67 45 12 62 62 63 56 25 17 14 18 19 20 23 21 19 14 16 15 13 13 12 10 12 15 13 14 12 13 14
68 69 69 68 69 70 70 72 71 68 69 72 73 74 74 54 11 22 50 53 59 33 26 21 19 21 18 18 16 27 21 19 15 15 16 16 13 14 12 14 12 11 11 11 13
71 71 71 71 71 70 71 71 71 70 72 74 75 73 58 42 26 16 40 38 31 30 26 23 20 18 18 15 14 22 17 14 15 16 15 14 15 15 14 12 11 10 11 14 14
72 72 73 73 72 71 70 71 73 74 75 76 75 74 58 39 20 20 23 21 20 27 25 29 24 22 23 22 22 18 20 18 18 18 18 20 17 15 15 13 13 14 13 12 13
69 72 74 72 71 70 71 73 77 76 77 80 79 64 58 36 24 23 26 20 20 20 22 23 26 24 22 24 20 21 24 20 19 18 20 17 19 18 15 14 15 14 13 11 11
68 69 70 72 72 73 74 77 79 78 81 80 79 61 51 29 27 33 25 25 26 22 21 18 21 23 22 19 22 24 22 25 16 22 21 22 25 12 12 15 15 15 13 11 11
69 69 70 72 77 78 79 76 75 80 80 79 64 61 40 38 37 29 30 26 25 28 24 19 22 23 25 27 25 25 23 23 22 18 19 22 24 18 16 16 17 15 13 12 11
69 70 71 72 77 79 79 73 71 80 64 56 58 75 41 31 31 28 25 26 23 24 27 25 23 28 28 30 28 21 23 21 26 23 24 23 22 19 17 16 19 16 15 14 13
70 70 72 73 72 74 56 34 27 38 35 24 26 39 26 19 22 24 24 25 23 23 26 24 26 27 24 26 21 24 30 28 22 19 23 24 21 17 16 18 20 18 17 15 14
70 70 73 74 71 67 38 42 49 51 48 34 37 40 33 32 35 23 25 29 33 36 30 39 36 21 21 24 29 28 28 30 28 26 28 26 23 18 16 15 16 18 18 16 14
71 71 75 76 61 54 39 45 39 48 56 33 34 38 34 40 39 34 26 27 32 32 38 34 24 37 33 34 36 34 39 37 39 35 31 31 26 20 18 18 16 17 16 16 15
70 73 78 77 49 44 41 39 42 56 35 15 36 36 37 36 43 31 26 24 30 33 30 35 29 36 40 37 39 41 36 40 41 41 31 27 30 22 20 19 17 16 18 16 15
70 74 75 74 49 32 39 43 51 67 14 19 36 28 27 38 29 32 27 24 28 31 37 32 41 52 44 37 38 37 40 40 40 44 43 36 38 23 22 24 20 17 17 16 16
70 72 72 54 51 42 48 52 65 33 10 18 28 23 18 24 28 28 30 29 29 35 38 34 30 43 40 42 36 36 40 33 35 43 55 34 35 24 22 26 22 23 20 22 21
71 72 62 52 46 53 56 52 21 12 10 27 34 23 17 26 28 30 33 35 32 41 39 30 32 35 40 44 39 40 38 33 44 60 44 30 35 30 24 35 36 34 33 32 32
71 72 67 51 56 62 52 23 13 15 23 28 28 21 18 26 21 28 31 32 30 31 30 30 35 30 37 39 31 39 37 42 50 43 32 32 39 28 40 38 39 38 41 40 37
69 52 55 62 65 57 31 35 19 37 35 36 24 22 18 31 27 26 27 27 29 29 34 34 33 29 38 37 33 52 58 40 61 52 61 32 27 36 36 39 40 46 50 55 52
48 48 57 65 67 44 31 32 34 37 36 31 28 33 34 34 25 28 30 46 54 42 28 31 38 30 43 42 42 49 45 79 72 78 55 29 34 42 56 54 50 57 63 71 71
52 43 55 60 60 38 55 33 36 30 36 34 35 35 26 28 24 29 27 46 48 52 44 30 37 42 51 50 41 57 60 69 92 68 58 52 85 86 81 72 75 68 74 83 84
61 75 54 59 59 57 46 45 52 40 38 39 38 39 35 32 27 28 28 32 52 52 68 41 52 49 36 28 32 33 43 54 69 70 85 94 65 77 69 70 74 74 76 81 83
56 44 50 61 84 56 48 51 52 50 50 48 47 42 38 41 44 32 29 23 53 75 95 93 73 61 46 51 43 47 49 85 88 99 82 90 78 82 80 71 69 73 76 79 84
67 86 49 48 43 66 71 51 50 55 69 57 59 59 60 52 45 42 36 37 50 45 80 96 71 57 42 82 48 58 47 47 59 82 61 54 61 69 78 81 82 66 78 79 81
76 78 60 82 62 51 56 53 54 59 57 46 90 70 85 72 54 51 38 32 32 56 76 96 91 57 57 67 58 38 35 34 44 47 59 33 31 32 44 57 73 56 73 78 82
96 65 50 50 55 54 56 44 46 50 47 44 74 48 43 61 69 91 69 56 53 62 76 98 91 57 62 60 44 42 32 26 31 37 36 36 40 36 48 62 68 65 78 82 82
86 74 56 62 50 48 46 44 50 46 44 45 46 53 53 58 67 57 55 56 65 78 100 99 100 66 60 47 39 41 30 30 32 30 44 55 45 45 55 75 71 75 69 82 84

GFSSW_sfc_rhum_081.txt.gz
RH
63 64 65 67 68 69 70 70 71 70 70 69 70 71 72 74 78 35 25 25 31 63 57 22 20 16 13 14 16 14 19 19 14 12 10 8 8 6 6 6 6 8 10 9 18
64 66 66 66 66 68 70 70 71 70 70 69 70 72 74 77 50 27 34 52 49 57 19 17 20 18 17 14 13 16 19 16 11 9 10 9 9 8 8 10 10 8 7 9 18
66 67 68 68 68 69 70 71 72 71 69 69 72 75 76 67 30 11 60 52 58 54 25 10 13 12 17 13 13 15 18 13 9 9 10 11 10 9 9 11 10 12 11 10 12
67 70 70 70 70 71 72 72 72 70 69 71 74 76 75 48 15 21 50 51 65 31 23 16 12 13 15 14 12 16 14 13 11 10 11 13 11 10 10 11 9 9 9 9 10
71 72 72 71 71 72 72 71 71 71 71 74 75 75 56 32 21 24 45 39 29 28 21 18 16 14 15 11 10 12 11 11 12 10 10 12 13 12 11 9 9 9 10 10 10
70 70 72 73 72 70 70 71 73 73 75 76 76 73 56 32 13 13 12 16 17 20 18 16 16 14 14 15 13 11 11 12 11 10 11 13 13 12 11 9 10 10 10 10 10
66 70 70 69 69 70 71 72 75 76 77 78 80 58 43 27 14 12 15 13 10 13 18 15 17 18 17 19 15 16 18 14 12 12 14 13 16 15 12 11 11 11 11 11 11
66 68 69 71 72 72 73 76 77 77 80 80 78 49 36 18 15 17 16 16 13 12 12 13 14 20 20 16 16 17 17 18 12 11 13 16 21 12 10 10 12 12 12 12 11
67 68 70 72 73 76 76 75 76 79 78 78 60 47 30 35 25 20 18 17 14 16 15 13 15 21 19 22 25 20 21 16 13 12 15 16 21 13 12 13 12 12 12 12 11
68 69 70 72 76 78 78 75 72 80 69 40 40 54 33 22 21 22 18 20 19 20 20 20 17 21 20 22 29 16 16 16 16 14 18 20 18 15 13 13 15 14 13 13 11
68 69 70 72 73 77 59 36 46 47 35 21 18 25 16 12 12 15 17 19 20 20 24 20 23 23 22 21 21 19 19 18 16 13 16 18 16 14 12 12 14 16 16 14 13
70 69 70 74 74 71 49 25 33 40 28 20 23 25 24 24 26 17 12 24 24 26 20 22 26 18 14 16 18 21 24 24 18 15 22 23 21 16 14 13 12 12 14 15 14
68 70 73 76 72 55 32 32 27 34 41 21 25 29 28 28 27 23 16 20 20 26 24 28 21 24 24 22 24 23 24 24 24 21 19 22 22 19 15 17 15 13 11 11 14
68 72 75 77 64 30 31 28 31 47 44 22 31 28 25 28 33 21 20 17 22 25 23 23 19 22 21 26 23 28 20 25 31 29 27 17 28 19 14 14 14 14 15 13 14
68 71 72 73 43 26 31 32 42 57 30 14 27 20 13 25 22 26 19 19 24 24 26 25 24 30 31 26 23 30 25 34 32 31 28 24 24 18 15 17 16 15 14 14 14
69 70 71 47 42 34 35 42 55 56 20 19 20 19 12 16 18 21 25 22 19 26 22 25 18 23 27 25 30 24 33 34 28 28 39 28 23 18 16 22 21 19 18 15 14
69 70 60 39 40 41 45 47 42 19 7 19 22 17 13 9 13 19 22 28 28 36 32 26 25 23 31 31 29 33 39 36 27 40 42 21 26 21 18 27 28 29 26 27 26
70 70 61 36 42 50 46 37 22 10 13 19 17 15 12 8 15 12 17 16 15 20 23 22 25 21 24 32 30 30 34 37 45 40 43 33 32 32 29 27 29 29 34 36 40
68 48 48 50 54 48 39 37 22 24 23 24 15 12 11 12 24 17 17 14 12 18 29 24 21 20 26 27 27 35 41 27 42 37 40 27 19 25 33 34 33 38 40 47 50
41 44 41 53 52 50 32 30 22 23 23 20 21 14 22 17 24 17 20 22 28 31 26 25 30 23 27 28 29 32 36 65 53 65 50 27 27 72 58 50 52 56 58 61 66
46 40 44 44 52 30 56 26 23 21 25 26 22 23 21 20 18 18 16 19 34 39 37 38 30 25 22 33 30 39 47 49 57 57 60 57 78 70 68 64 66 60 61 73 80
45 68 42 45 45 34 34 28 46 28 29 29 30 29 29 27 28 27 24 17 21 37 60 58 71 39 24 20 20 24 36 44 70 52 53 61 67 69 62 66 66 60 66 74 79
34 35 36 52 88 43 35 33 34 34 34 33 33 32 32 36 39 27 25 20 18 24 79 84 67 56 38 29 23 29 28 33 55 68 66 75 77 73 60 56 62 63 67 75 80
46 86 39 32 31 52 52 40 40 41 44 40 41 42 44 41 33 39 36 25 25 30 66 66 67 67 52 50 59 65 31 38 53 74 58 54 37 66 54 59 62 62 66 78 81
56 71 45 75 47 41 45 39 40 48 42 33 65 59 41 51 42 40 40 43 37 30 35 65 72 53 46 31 40 62 78 39 48 44 50 33 26 25 35 50 62 59 69 79 82
93 48 38 38 43 43 48 38 31 36 35 37 53 38 34 43 38 53 52 50 49 38 58 75 75 57 71 52 42 52 53 29 26 23 24 25 27 34 51 54 56 66 70 80 84
52 47 44 48 40 38 38 36 39 36 34 31 34 39 41 39 37 37 38 41 42 51 60 79 82 78 69 56 49 66 44 30 22 23 26 43 45 48 66 64 66 74 76 80 86

GFSSW_sfc_rhum_084.txt.gz
RH
65 65 66 67 68 69 70 71 72 71 71 71 71 71 72 75 80 41 32 32 38 63 51 15 22 21 16 16 17 18 27 27 21 17 14 10 9 7 6 6 6 6 7 10 19
65 66 67 68 68 70 71 72 72 72 72 71 70 72 76 80 59 39 37 55 56 51 16 13 20 19 19 17 15 19 28 25 17 14 13 10 9 9 9 9 8 8 9 10 15
65 67 69 69 70 71 72 73 74 72 71 70 71 74 79 71 41 20 59 54 53 46 16 9 11 17 20 17 15 15 22 18 15 12 10 10 11 9 11 12 11 12 12 12 14
67 68 70 71 71 72 73 77 73 71 71 70 72 75 78 55 24 23 65 57 58 24 22 20 12 16 16 17 14 16 13 12 12 12 12 12 11 12 12 13 9 9 10 10 11
70 72 72 72 72 72 73 75 72 71 72 73 75 75 60 39 29 34 59 46 35 31 27 22 17 14 14 11 11 13 11 10 11 11 11 11 12 12 12 10 9 9 10 11 12
72 71 70 72 71 69 70 72 74 73 74 76 76 78 63 38 11 12 12 13 16 22 21 17 16 13 14 14 14 12 11 10 9 10 10 11 11 10 10 9 9 9 10 10 12
71 67 69 68 69 70 70 71 74 76 76 78 78 64 48 31 11 12 12 11 9 12 18 15 14 18 18 19 16 16 18 16 15 13 13 11 14 13 11 10 11 11 11 10 11
67 67 69 70 72 73 73 75 76 75 79 82 82 59 46 15 15 13 13 14 13 10 12 12 14 17 21 19 20 19 18 20 13 10 10 11 19 12 10 10 12 12 12 13 12
67 68 70 71 75 77 78 76 76 75 80 79 69 57 37 30 20 16 17 17 13 12 12 10 13 18 19 26 26 21 26 21 16 10 10 12 19 13 11 12 13 14 13 13 14
67 68 69 71 76 79 80 79 66 80 70 49 37 51 39 20 18 18 17 18 18 18 20 18 17 20 21 22 29 23 20 17 16 12 13 14 16 15 13 12 15 15 15 15 14
67 69 69 69 73 78 66 37 55 67 52 41 27 35 16 11 12 13 11 19 19 20 26 22 24 25 21 19 19 20 23 23 18 13 15 17 15 14 13 12 13 13 14 16 17
69 69 68 71 73 78 60 34 29 36 31 22 14 19 19 21 25 16 10 21 23 28 21 22 28 20 16 16 17 19 21 21 17 15 18 17 17 17 18 17 15 13 13 15 18
67 67 71 75 75 62 30 29 24 32 44 20 20 24 24 25 24 20 13 14 23 23 25 26 20 17 23 22 23 21 22 22 21 17 18 24 23 18 15 14 16 15 14 13 15
66 68 72 74 68 30 38 26 30 46 55 23 24 24 25 26 32 17 17 17 20 24 20 21 17 19 21 23 21 29 18 19 25 26 38 22 38 21 14 15 15 17 18 18 14
66 68 71 68 66 35 33 32 38 59 45 20 26 19 15 22 17 25 17 18 22 21 23 25 20 22 26 25 18 21 20 24 27 36 38 34 29 20 15 15 14 16 18 20 17
67 69 69 54 58 38 37 42 54 74 39 18 21 20 12 13 14 18 20 20 19 21 20 20 15 17 18 20 21 23 28 26 31 36 52 37 25 24 21 30 29 24 25 30 22
67 68 61 42 49 42 49 55 69 50 11 17 19 16 12 10 7 8 15 26 28 32 32 22 23 19 19 28 25 30 38 43 41 38 47 47 58 28 36 35 29 29 39 41 46
69 68 58 37 46 55 55 55 48 10 15 15 14 13 14 9 8 9 13 15 13 13 20 22 25 16 21 30 30 30 36 49 48 54 42 35 81 45 34 41 49 48 50 50 54
69 56 54 54 53 54 59 59 35 25 19 20 13 12 10 8 14 20 20 15 12 11 18 32 24 21 20 21 24 30 36 27 45 39 47 34 43 64 63 48 49 54 55 60 63
62 50 43 49 52 63 57 37 23 19 18 16 19 11 17 17 18 18 18 13 24 29 35 36 50 20 21 24 24 28 26 63 82 72 54 30 39 86 81 71 57 57 61 66 69
64 50 49 42 55 60 68 30 19 19 22 23 20 20 19 21 19 19 16 13 13 31 27 36 52 54 35 47 37 31 41 41 50 55 71 84 95 91 79 70 63 58 61 72 76
55 74 45 49 60 41 37 25 37 23 24 25 26 25 25 25 28 26 24 20 16 17 21 39 87 74 42 23 24 25 29 40 71 58 56 63 68 71 57 56 57 60 63 72 76
47 40 36 56 90 45 32 27 27 27 29 29 29 27 29 32 35 26 25 22 22 22 34 41 60 66 43 28 22 34 31 48 58 67 72 87 70 66 60 52 60 60 66 71 77
52 86 41 39 32 47 42 34 35 33 35 33 31 33 36 36 30 32 30 26 30 35 55 54 48 61 72 58 58 72 66 51 44 81 63 59 58 47 62 54 56 65 71 75 79
62 76 47 75 45 40 40 34 35 40 35 31 47 47 49 43 36 34 30 32 29 36 34 45 58 47 50 40 38 54 82 59 60 72 63 45 35 57 62 64 64 64 68 75 81
94 59 40 40 41 40 44 36 29 30 29 38 48 35 31 38 34 46 37 38 43 35 42 69 67 48 50 38 37 51 43 56 66 83 71 61 37 70 76 59 66 68 70 78 83
45 45 54 47 41 40 41 33 32 31 30 26 28 33 36 34 31 33 34 38 39 45 56 62 90 75 62 38 45 69 40 35 40 52 37 50 69 60 80 87 86 79 79 86 92

GFSSW_sfc_rhum_087.txt.gz
RH
68 67 67 69 70 71 71 72 74 74 73 72 73 72 73 77 83 68 60 53 58 59 59 27 20 33 31 25 28 33 49 50 43 32 25 16 16 12 11 9 10 11 9 27 33
66 66 67 68 71 72 72 74 75 75 73 72 72 72 74 82 86 74 51 61 66 62 25 20 18 22 31 30 29 29 42 41 29 25 24 19 16 14 13 16 15 14 14 24 26
66 67 68 70 72 72 74 77 76 75 73 71 72 72 79 80 72 31 65 62 60 55 26 19 13 15 30 26 27 28 27 22 24 22 20 18 15 15 16 18 20 20 16 16 26
68 68 69 71 72 72 76 80 76 72 71 71 71 74 79 79 31 46 66 66 64 33 25 31 32 20 26 32 24 28 20 18 16 15 16 15 16 16 16 17 16 14 15 14 17
71 71 72 73 72 73 75 76 72 72 71 71 73 75 80 66 57 45 64 58 50 34 29 28 31 24 21 20 18 18 16 15 14 14 15 15 15 15 16 13 12 10 11 14 17
75 73 72 71 71 70 70 72 72 73 74 75 75 74 90 69 19 35 35 30 30 36 33 32 29 22 19 17 18 15 17 17 18 19 18 17 17 16 14 12 11 11 11 11 13
76 74 70 69 69 70 70 72 74 74 75 74 77 73 72 51 22 24 18 15 14 16 24 21 21 24 25 30 24 23 26 21 20 19 18 16 19 17 13 13 13 12 12 12 11
74 72 71 71 72 72 72 75 76 75 75 77 82 76 86 29 32 28 20 19 16 15 15 15 16 21 27 26 27 32 31 34 23 17 14 17 22 14 12 12 12 11 11 11 12
74 70 71 76 76 77 77 77 76 74 76 84 91 93 66 35 30 21 18 18 17 18 18 11 17 25 25 34 44 39 44 34 26 18 16 17 20 16 13 15 17 18 20 18 14
78 72 71 72 76 78 80 80 73 75 78 57 60 88 56 28 20 21 22 22 25 26 21 23 26 31 34 39 52 44 35 33 32 24 20 21 21 17 15 14 14 14 12 13 15
78 72 72 71 71 77 79 62 80 89 71 68 62 43 30 18 18 18 15 19 26 29 38 31 38 41 33 30 28 28 27 29 26 22 21 21 20 18 15 14 14 14 13 13 13
73 71 68 68 72 75 76 66 35 44 52 42 55 37 18 22 29 22 17 20 33 40 31 35 41 29 25 24 26 27 29 30 24 20 21 22 23 22 21 19 18 17 16 15 12
69 66 67 72 73 75 58 36 36 49 62 33 22 32 21 26 31 23 16 20 28 33 34 40 31 24 24 26 28 30 33 31 27 23 22 25 26 29 23 20 17 14 15 16 14
64 66 71 74 85 60 51 35 42 60 77 38 21 24 26 28 36 22 20 22 24 30 30 32 25 25 25 30 28 35 27 26 25 31 50 39 58 36 28 22 16 28 20 16 15
64 67 70 68 84 65 45 41 48 76 70 24 23 20 23 31 24 27 20 25 30 29 29 36 29 28 30 28 26 31 26 30 33 38 48 40 51 39 29 26 18 63 50 27 22
66 68 69 67 80 58 53 56 69 94 66 28 29 27 24 20 17 26 26 28 27 30 26 27 22 23 25 22 25 27 37 41 42 45 60 43 57 57 41 33 51 66 64 64 64
67 68 68 53 72 56 65 74 98 82 17 22 26 17 16 15 16 14 28 37 42 48 46 32 28 23 19 28 31 35 50 75 65 66 62 38 50 62 78 73 64 67 67 71 70
66 69 69 54 62 68 78 82 76 28 22 16 15 16 18 14 13 13 19 23 20 23 24 25 32 21 23 27 37 42 48 77 77 74 60 37 55 70 85 65 56 60 63 71 74
69 77 79 78 62 74 88 88 54 29 20 20 14 17 15 12 17 22 27 27 24 46 65 61 45 32 25 29 33 45 50 39 57 53 64 44 34 67 70 73 71 60 63 73 77
83 78 73 64 62 82 86 59 33 19 18 17 18 16 22 24 24 23 22 18 19 29 25 45 68 40 34 31 32 35 39 74 87 92 82 47 76 97 83 69 71 71 72 78 78
87 82 66 52 70 90 93 51 23 22 24 26 26 24 25 25 27 28 24 22 24 25 24 31 70 64 46 48 47 45 50 54 64 76 89 89 90 88 86 75 76 74 73 81 80
85 94 62 63 90 88 69 32 37 24 24 26 30 27 30 34 35 33 29 28 37 36 43 57 74 70 53 37 32 44 52 57 74 72 76 83 92 78 77 75 65 72 72 78 79
85 69 57 71 97 84 40 31 27 27 31 29 31 36 39 40 46 37 37 33 38 42 68 59 74 88 50 41 51 68 72 77 89 84 96 92 84 79 75 67 68 78 80 80 83
90 95 60 70 55 68 56 44 40 35 42 34 34 42 46 46 39 46 39 35 41 39 59 57 68 74 82 66 53 88 70 57 86 99 97 91 66 63 69 82 78 80 80 81 83
94 91 67 92 74 58 50 42 47 50 41 38 61 56 61 67 50 48 47 42 38 44 49 65 79 64 54 44 42 46 70 52 71 85 98 86 76 88 83 83 82 72 74 81 85
98 93 66 63 51 54 58 48 32 34 32 51 59 45 41 55 49 59 54 56 58 50 61 78 87 82 70 56 53 44 38 40 50 72 78 83 94 82 82 76 75 75 79 88 91
66 68 80 61 54 62 56 41 38 40 39 30 38 46 50 50 53 50 49 50 52 57 64 69 92 88 69 57 62 70 53 46 55 62 68 87 94 78 92 92 92 88 88 93 94

GFSSW_sfc_rhum_090.txt.gz
RH
74 72 69 69 71 72 73 74 75 76 76 74 73 74 74 77 83 76 61 48 66 62 58 28 30 32 37 30 29 40 64 71 61 49 40 27 26 21 16 16 16 15 13 25 42
74 70 68 68 72 73 74 75 77 77 76 74 73 73 74 82 86 82 58 61 69 68 37 35 31 22 48 36 29 36 55 54 43 38 34 28 26 24 18 18 19 17 19 28 39
75 70 69 69 71 73 75 79 77 76 75 72 72 72 78 82 83 46 62 67 72 64 28 25 21 18 39 34 31 35 37 31 26 23 24 27 26 22 20 20 20 22 20 21 28
74 70 70 70 72 74 78 81 77 74 71 72 71 72 78 88 18 42 64 69 65 40 26 25 32 26 23 38 30 33 25 23 21 19 20 20 17 19 19 19 16 18 16 18 18
79 76 71 71 72 73 77 77 72 72 71 71 71 74 86 84 69 39 67 67 49 30 28 30 35 35 32 23 25 29 27 24 22 21 19 18 19 19 18 16 15 14 13 14 17
80 78 74 74 72 70 70 73 73 73 73 73 74 72 94 66 17 26 52 50 45 40 38 33 37 34 30 23 23 19 18 20 20 21 22 22 22 22 18 16 15 15 14 14 16
81 80 78 73 70 70 71 71 75 73 73 74 74 71 87 53 27 37 31 26 29 39 37 33 34 27 29 32 29 29 34 31 26 23 23 20 19 19 16 17 16 14 13 13 12
82 82 80 73 72 73 73 74 76 73 74 75 76 75 82 38 40 38 36 25 18 17 19 18 19 23 28 28 28 34 39 45 31 23 21 21 28 18 14 15 14 13 13 12 12
86 84 75 76 77 76 74 74 75 72 72 76 89 88 84 48 47 36 28 23 19 21 22 15 23 26 28 36 42 46 54 43 34 24 24 25 28 20 18 17 18 18 19 19 18
85 82 80 79 76 79 80 76 72 73 72 68 70 94 65 36 29 24 25 21 23 27 27 25 29 31 38 41 50 51 50 46 40 30 26 27 26 21 18 18 18 18 18 17 16
83 78 82 78 75 76 80 67 72 88 78 71 68 60 40 24 20 19 18 22 29 33 36 36 40 44 35 35 33 35 38 38 30 24 29 26 25 21 19 21 21 21 19 17 14
78 79 76 73 70 72 82 76 42 44 53 60 67 58 41 38 30 26 18 22 28 44 40 45 45 33 28 29 32 33 36 36 28 24 25 24 24 20 21 21 19 20 22 19 17
82 75 69 68 71 79 81 57 43 49 59 32 34 54 49 35 32 30 22 24 35 41 42 47 37 29 30 32 34 35 38 39 35 31 29 32 32 30 28 28 25 23 30 57 57
72 68 67 71 75 77 67 39 51 61 62 35 33 29 31 31 39 26 16 20 26 30 32 39 28 32 34 35 30 37 31 33 35 40 44 41 57 37 33 28 26 26 72 70 70
68 65 66 66 90 76 53 49 50 80 70 31 22 20 28 35 32 30 22 27 32 31 34 39 33 33 33 33 29 34 32 37 38 47 54 41 57 42 45 83 80 72 72 74 72
66 65 66 70 86 68 62 63 73 97 68 33 31 33 38 36 23 28 28 28 26 31 32 31 27 29 29 25 26 32 42 46 50 57 67 43 52 60 86 87 71 73 74 78 76
66 64 65 60 76 63 73 77 98 98 26 35 39 31 33 26 25 32 34 37 41 50 50 36 33 30 26 31 31 34 53 75 78 74 74 41 54 56 80 73 70 72 82 82 81
67 67 72 60 65 72 80 88 98 28 27 19 17 17 20 17 17 17 26 31 46 47 44 38 42 29 35 35 34 43 50 75 83 74 49 43 63 79 73 66 64 78 77 80 85
71 86 80 82 70 75 90 98 56 33 21 20 16 18 20 19 21 26 26 28 32 31 62 59 60 37 39 39 35 48 59 42 66 58 76 59 76 73 65 66 74 84 80 80 78
94 94 87 73 68 84 94 73 29 22 20 18 23 26 29 26 28 26 26 24 29 27 28 43 52 52 42 38 38 42 49 65 86 85 85 62 56 81 75 72 68 80 86 81 78
92 94 71 65 76 95 90 55 29 24 23 29 30 31 30 34 32 33 30 35 32 34 35 47 67 55 38 50 50 50 60 74 72 82 86 89 85 86 81 77 79 77 80 86 82
89 97 66 68 96 95 69 37 36 27 28 30 34 37 42 40 39 37 38 43 43 47 56 64 71 80 50 38 34 38 68 87 99 91 84 84 72 74 76 72 75 81 78 82 84
91 72 58 76 94 80 44 37 36 32 36 36 38 41 42 44 47 42 40 40 42 43 60 54 70 78 40 41 56 64 53 60 81 95 98 96 82 73 78 77 76 80 84 83 83
93 91 67 76 69 68 61 49 44 40 42 39 48 51 50 49 44 50 49 45 50 48 60 57 69 65 75 63 60 65 47 43 72 98 94 85 92 77 86 90 85 82 86 84 84
96 91 70 90 74 60 54 51 53 54 46 42 56 60 59 66 55 54 56 55 48 48 58 66 78 72 67 62 58 60 59 48 50 60 95 83 91 94 89 88 84 76 78 82 87
95 85 75 61 55 56 62 50 44 38 48 52 58 50 46 59 58 67 66 64 66 56 66 76 82 69 54 52 53 60 61 51 45 42 50 61 83 93 95 80 83 83 84 89 90
79 73 77 64 55 65 54 46 45 44 43 41 47 49 52 62 54 53 55 57 56 62 69 73 84 92 68 60 65 71 70 53 42 53 72 85 94 93 96 94 94 92 88 90 92

GFSSW_sfc_rhum_093.txt.gz
RH
80 78 76 72 72 73 74 74 76 77 77 76 74 74 74 77 83 82 66 37 67 60 61 36 37 42 39 33 31 48 70 84 58 49 45 33 36 31 25 20 19 19 20 25 57
76 76 75 71 75 74 75 76 78 77 76 75 73 73 74 80 91 76 52 55 67 68 49 43 41 34 47 41 34 41 70 55 47 42 44 38 36 31 28 28 25 21 20 16 36
78 77 75 71 72 74 76 79 78 77 74 72 72 72 77 84 48 22 58 65 68 70 41 33 27 21 35 38 34 39 48 39 34 32 31 29 27 23 26 26 25 23 22 19 15
82 82 76 72 72 74 79 83 77 74 71 70 70 72 76 86 17 35 63 67 69 57 31 27 29 23 23 43 36 40 30 27 29 24 26 25 23 23 21 21 20 18 21 19 17
84 83 79 72 72 74 80 78 73 72 71 70 70 72 86 74 54 32 67 68 60 32 28 34 41 36 30 26 30 33 28 27 27 28 28 24 25 22 22 18 18 17 16 18 20
86 85 80 75 74 75 73 75 74 72 71 70 71 68 86 48 16 25 54 63 42 36 37 32 36 36 36 34 26 23 22 23 24 23 23 24 25 27 21 17 18 19 19 18 18
87 86 83 79 78 73 71 72 75 73 70 70 72 67 78 53 29 30 41 41 41 46 40 36 37 42 32 30 30 32 37 35 33 31 24 23 24 24 18 18 18 18 16 15 17
88 89 86 84 79 74 74 74 75 72 70 72 74 76 82 42 49 44 33 33 28 29 36 27 23 26 28 27 29 34 41 47 36 29 25 27 30 24 20 20 20 19 16 16 16
91 90 89 86 81 81 80 75 73 70 70 71 93 80 78 51 60 48 37 32 26 24 22 17 24 25 30 37 42 44 52 47 38 30 29 29 32 26 21 20 20 19 19 18 16
91 90 90 88 84 80 78 74 68 72 69 70 72 83 68 44 36 29 41 30 25 29 32 27 30 32 39 40 55 49 49 64 51 32 33 31 29 23 22 22 23 22 21 20 19
89 90 86 84 84 82 83 73 82 86 80 74 68 64 42 37 24 22 24 27 30 33 39 34 37 41 32 36 35 38 44 44 38 30 34 31 29 24 22 25 24 21 21 21 24
90 83 81 80 80 78 83 74 54 49 66 68 63 59 39 44 56 29 20 29 31 44 40 46 45 33 34 33 35 38 41 40 35 29 34 34 31 26 25 26 25 25 38 75 70
86 82 80 76 71 76 78 56 43 44 53 37 55 63 54 54 59 37 22 24 31 35 46 51 39 34 35 39 39 40 42 40 40 36 35 35 34 30 29 38 65 72 74 73 76
85 83 76 74 71 76 81 42 47 54 37 31 40 50 50 47 44 27 22 24 30 34 43 46 33 35 41 40 38 47 34 35 39 43 50 37 54 34 35 80 75 71 78 80 78
83 74 73 63 82 88 60 51 64 73 51 27 38 28 42 37 37 36 19 26 29 31 36 39 39 42 42 39 35 40 36 37 43 48 57 49 61 40 65 80 76 65 67 81 79
81 76 72 73 83 69 67 64 73 94 60 38 35 38 42 37 32 29 28 28 28 32 37 35 29 30 31 27 29 31 42 47 54 59 70 41 55 60 94 88 77 65 75 81 80
76 72 70 62 81 65 72 79 90 88 30 47 45 42 44 43 40 34 35 40 50 53 52 39 34 30 29 35 34 34 44 63 64 75 71 47 58 55 86 75 72 71 85 81 82
71 69 69 61 66 71 77 92 99 36 28 22 33 37 48 21 24 25 40 51 29 51 50 47 46 41 40 46 46 43 45 65 69 78 53 47 66 58 76 71 72 80 81 78 81
70 86 78 81 69 77 91 98 62 36 22 24 20 28 29 23 22 26 28 34 32 30 57 53 57 34 40 33 44 49 57 43 55 64 73 62 61 76 75 68 72 82 82 85 82
96 96 93 78 74 87 97 84 39 32 31 32 30 29 30 28 28 27 32 34 34 31 35 44 42 46 32 39 42 42 51 77 92 92 86 67 65 74 76 70 72 88 89 86 80
91 96 78 70 79 97 98 78 33 29 29 35 32 31 33 33 35 35 40 44 37 38 48 52 56 52 31 48 50 46 52 73 83 84 92 88 84 82 76 78 85 85 87 90 83
94 98 77 73 98 96 93 47 44 33 33 34 42 43 43 42 42 41 46 46 43 47 52 57 71 78 50 39 41 46 82 83 97 93 86 96 88 84 88 80 79 82 80 82 81
94 83 68 78 99 88 48 46 46 39 44 40 42 44 44 49 53 45 46 50 46 49 56 52 68 69 37 45 49 56 51 51 63 85 93 94 83 71 79 80 81 87 86 83 85
95 92 73 86 79 71 62 53 48 44 45 46 52 50 51 54 47 49 54 51 52 57 58 55 66 60 69 54 65 70 60 56 67 96 92 85 76 72 82 93 89 83 81 84 86
97 89 68 91 77 62 57 55 53 56 48 47 60 62 62 65 55 61 60 57 50 49 67 67 73 73 68 66 57 57 58 55 64 59 77 60 69 60 96 95 98 78 77 81 86
95 84 74 66 57 56 62 60 52 46 53 53 62 51 50 61 57 62 63 61 61 58 66 77 80 68 63 48 46 59 57 56 57 54 54 46 50 94 95 95 99 87 82 86 90
82 76 73 68 61 59 57 51 50 50 48 43 46 50 57 61 57 54 55 56 53 64 70 74 85 85 66 60 67 68 68 89 56 47 58 65 68 96 98 94 94 91 91 93 94

GFSSW_sfc_rhum_096.txt.gz
RH
85 81 78 80 77 74 74 75 77 78 77 76 74 74 74 76 82 83 70 37 71 59 62 40 40 44 41 36 38 61 73 81 56 49 41 38 42 37 32 27 27 23 22 21 49
85 80 77 79 80 78 76 77 78 78 77 74 72 72 73 79 96 78 46 51 67 63 43 40 42 36 47 59 35 57 82 57 49 40 43 42 45 36 33 32 31 27 25 22 32
86 84 80 80 80 78 77 80 80 78 75 71 70 70 76 85 33 13 61 62 63 68 42 42 28 29 38 45 35 44 55 46 39 38 42 37 31 29 34 34 29 26 23 24 21
87 86 84 82 78 77 80 84 79 76 71 70 69 72 74 82 29 31 69 68 62 73 36 30 31 26 28 42 41 43 36 33 34 33 32 31 31 27 28 25 22 23 22 23 20
88 88 85 82 78 78 81 82 76 72 71 69 68 73 82 47 25 25 65 68 59 42 34 30 36 29 26 28 37 42 38 33 30 29 32 31 33 30 25 20 21 21 20 21 22
88 88 88 86 81 79 80 79 76 74 71 69 69 70 87 22 14 32 37 61 42 33 30 34 38 35 39 39 30 28 26 23 26 25 26 25 28 26 23 21 20 20 20 20 22
88 90 90 88 83 80 76 76 77 75 72 69 70 74 88 34 29 35 42 57 50 35 42 34 34 45 40 31 32 33 40 34 33 34 32 28 31 28 22 24 21 20 19 20 20
90 90 92 90 89 88 84 82 78 73 70 69 72 75 85 45 49 52 49 32 29 44 46 40 38 35 30 27 30 37 44 48 36 33 28 27 35 22 22 24 23 21 20 19 20
92 93 93 92 91 89 86 85 81 71 67 68 88 92 83 51 66 55 44 30 28 34 31 21 24 28 31 35 42 48 56 50 38 31 32 31 40 28 22 24 24 23 23 22 20
93 94 92 92 89 87 85 79 72 76 72 64 75 73 62 36 47 46 50 32 30 33 31 30 33 35 41 42 50 56 54 64 47 34 35 34 33 29 26 25 26 26 26 26 40
95 94 92 90 88 86 88 87 90 90 88 72 66 54 41 44 41 26 41 38 35 37 41 36 42 43 32 38 38 42 45 48 42 33 36 35 32 30 27 29 29 32 55 83 79
94 93 90 88 86 85 85 84 65 80 93 65 63 59 43 44 60 44 29 37 43 50 41 47 48 33 31 32 35 38 43 43 38 33 37 38 35 31 30 30 62 84 86 86 81
94 93 90 87 86 89 82 62 42 54 76 53 44 63 50 48 53 54 26 32 37 48 47 52 40 34 37 42 42 44 45 44 42 39 38 42 44 38 30 64 77 78 82 81 83
94 91 89 84 75 71 80 55 47 55 68 37 44 56 50 52 63 35 25 25 36 42 48 50 39 40 46 44 43 53 40 39 43 49 55 40 57 37 56 68 80 69 71 86 82
93 90 84 73 93 82 71 50 45 71 83 26 44 38 50 50 36 47 24 26 34 37 44 48 41 48 50 42 39 47 40 44 46 51 62 55 58 54 71 75 76 69 77 91 85
86 85 82 89 93 77 62 65 75 77 73 36 40 52 66 48 40 33 28 30 29 33 40 39 34 33 36 33 36 34 42 48 57 62 66 48 53 58 56 78 77 74 81 74 79
89 86 84 87 86 71 72 80 74 80 36 48 50 49 47 43 44 37 35 48 51 53 52 42 36 32 33 35 38 37 44 57 60 73 63 50 59 52 57 73 78 84 90 86 80
86 80 76 77 73 78 83 90 71 33 27 25 37 46 51 42 36 38 44 44 30 54 53 48 45 44 42 46 48 46 44 60 66 73 63 47 64 55 68 72 80 86 86 83 84
77 82 80 71 68 80 87 96 61 42 31 36 50 49 32 23 27 27 34 39 33 32 52 61 57 40 33 32 44 51 56 53 59 66 69 58 54 53 78 79 91 87 84 87 85
96 87 91 81 74 82 98 78 54 41 39 43 87 58 33 32 30 31 36 40 34 38 38 42 36 47 34 39 36 39 49 79 88 89 76 68 68 72 78 81 90 89 91 88 82
95 97 86 75 77 95 97 76 41 38 37 47 46 45 39 38 38 40 47 44 38 43 46 49 46 45 34 44 43 40 60 81 84 89 97 95 86 93 97 96 92 86 85 87 86
97 98 77 81 98 95 95 59 51 46 41 47 59 54 51 48 46 51 54 51 49 46 52 57 69 64 46 43 47 49 83 77 94 94 88 94 88 90 93 90 85 86 82 81 82
87 94 78 79 99 98 67 50 53 48 54 53 54 51 52 52 51 50 55 51 55 50 53 46 67 53 37 44 41 59 55 63 73 86 93 97 77 77 87 92 90 93 92 85 80
94 94 76 87 86 85 64 59 56 50 53 51 55 52 52 54 53 56 60 52 55 61 60 54 64 48 43 46 70 68 65 63 78 98 84 62 57 48 74 91 92 94 95 91 83
98 87 71 96 89 72 60 58 55 55 50 49 63 63 62 60 59 64 59 54 52 54 66 66 68 72 65 68 61 62 51 47 63 61 86 41 51 46 72 87 96 95 93 90 88
95 86 77 72 65 62 63 60 53 49 53 54 64 53 51 60 57 62 59 58 57 60 66 74 82 68 70 60 55 51 53 58 60 60 62 58 60 61 90 89 92 93 90 91 90
81 78 76 66 59 60 58 57 52 51 47 46 51 55 59 59 55 52 52 54 54 63 68 70 86 82 67 62 54 46 58 88 88 79 86 74 58 82 93 88 91 91 93 94 91

GFSSW_sfc_rhum_099.txt.gz
RH
88 88 86 84 85 82 76 75 77 77 77 76 74 72 72 74 81 74 49 33 58 58 57 39 35 28 27 24 35 36 29 27 24 29 21 27 29 26 24 24 23 20 20 17 18
88 87 83 83 84 85 81 78 79 78 78 76 72 70 72 78 83 66 44 50 68 62 32 30 32 31 38 30 26 36 38 26 32 26 26 24 32 27 25 25 24 20 19 20 18
90 88 87 85 84 85 82 81 79 78 77 71 70 70 76 77 35 14 54 62 63 63 31 31 30 27 29 32 24 31 27 38 34 31 30 30 28 25 26 27 23 22 18 19 18
90 89 88 87 85 85 83 83 79 76 72 69 67 69 75 71 36 22 69 63 64 58 26 26 20 25 26 31 28 25 29 26 26 24 24 27 23 22 22 22 19 17 17 19 17
92 90 89 88 86 86 84 84 78 72 70 69 66 71 71 38 15 40 69 62 60 52 28 27 26 22 20 21 29 34 30 28 25 24 25 24 25 24 22 17 16 17 18 17 18
92 91 91 89 88 89 86 83 76 72 70 68 66 69 77 27 10 27 33 67 40 39 31 25 23 22 21 24 24 24 27 25 22 21 21 22 22 23 20 17 17 16 16 16 17
90 93 92 91 89 90 86 81 80 76 72 67 64 68 83 40 19 30 39 53 38 27 27 26 28 33 33 30 27 26 30 28 27 25 26 25 25 25 19 18 17 16 17 16 16
84 92 93 92 93 91 88 85 82 77 70 65 67 78 80 43 41 45 33 29 31 30 34 32 30 33 26 22 24 27 32 33 28 26 24 22 30 17 17 18 18 18 17 18 17
88 92 93 94 94 92 88 83 80 78 70 72 81 87 73 48 54 45 39 27 23 30 31 24 26 27 25 25 29 36 30 38 31 25 26 23 28 19 16 19 20 20 18 20 28
88 92 92 95 94 90 86 78 75 74 77 64 73 85 60 43 35 45 49 30 22 31 32 30 26 28 28 27 33 33 37 38 33 24 27 25 25 22 20 21 24 21 24 46 54
89 94 96 94 93 88 89 92 90 93 84 78 71 59 43 39 38 34 44 36 26 29 37 32 35 38 30 30 28 34 35 35 31 26 26 28 26 24 23 24 23 27 58 57 55
94 96 95 94 90 86 77 82 68 73 90 69 65 62 52 46 56 36 36 39 40 30 28 34 40 31 28 29 29 30 33 30 28 27 30 28 29 25 24 24 27 55 55 59 61
95 96 94 93 89 88 71 65 60 61 78 63 65 67 60 57 68 48 36 35 36 42 39 36 33 31 30 30 32 33 33 38 35 31 30 32 29 27 24 48 62 57 56 65 63
96 95 94 92 88 86 84 73 78 57 88 61 58 49 51 50 70 47 35 33 34 45 41 42 32 34 33 34 33 40 34 34 36 38 37 31 34 29 32 40 57 54 65 63 59
96 94 92 83 87 78 79 60 62 62 89 37 38 33 44 53 37 53 38 26 55 38 46 49 41 42 44 37 36 38 35 37 38 41 42 38 37 32 40 49 48 58 64 64 61
90 86 78 88 94 93 89 85 90 91 91 34 43 59 62 51 40 37 47 27 27 34 39 36 29 34 36 34 34 31 37 41 46 46 49 36 34 30 30 44 52 59 69 67 64
87 87 89 91 97 92 94 95 88 88 40 41 47 64 58 56 42 39 36 37 36 40 42 35 32 26 28 30 33 32 37 39 45 54 40 39 42 28 30 51 60 74 69 69 67
90 90 91 93 96 93 90 97 90 46 29 25 28 50 52 42 38 36 39 37 27 41 41 40 45 40 31 37 36 37 34 36 46 49 42 44 46 37 50 68 74 69 70 70 69
79 85 90 88 93 93 97 92 73 58 41 42 61 57 31 27 28 32 37 32 30 31 44 51 54 41 31 30 38 44 44 44 47 52 47 35 38 46 63 83 74 74 72 76 71
88 87 84 78 91 95 98 80 59 38 40 44 79 96 48 33 32 34 39 36 35 42 34 38 41 44 32 34 25 41 45 69 71 58 45 43 48 52 81 88 76 75 79 75 69
91 84 80 76 94 98 91 75 54 38 38 52 63 85 47 39 41 48 46 46 50 48 43 47 38 39 33 36 34 24 37 72 66 71 69 57 60 77 80 81 78 78 76 74 70
90 95 84 85 98 98 87 54 52 43 42 50 72 63 50 46 45 59 52 51 56 47 48 52 50 38 43 42 40 50 69 68 60 69 78 81 68 71 78 76 74 76 72 72 69
92 98 78 79 96 84 68 47 49 47 54 71 65 58 48 49 50 50 48 48 52 49 49 44 46 34 40 46 40 48 49 50 52 64 68 76 57 76 79 76 79 85 81 74 74
78 98 98 84 88 89 72 58 54 46 55 54 65 59 49 48 51 55 50 46 54 60 60 50 51 34 30 47 51 53 54 51 60 82 62 52 36 28 30 50 69 81 80 75 75
94 84 72 95 84 81 66 56 54 54 49 47 58 56 55 50 53 56 49 47 49 54 59 57 55 55 48 57 56 54 48 44 44 41 56 23 34 34 34 44 82 80 74 73 76
96 89 75 72 64 77 71 61 48 50 47 52 58 48 46 51 50 55 52 46 46 52 55 61 74 60 59 51 52 51 42 40 38 42 49 53 62 48 48 79 88 88 87 87 80
80 75 71 65 67 64 61 57 50 49 46 45 50 51 52 53 48 49 49 52 49 50 59 58 70 60 46 50 44 43 44 41 59 64 69 84 66 58 89 86 87 87 87 89 87

GFSSW_sfc_rhum_102.txt.gz
RH
90 89 89 88 88 86 82 77 76 76 77 76 75 71 70 73 76 32 28 27 33 60 60 23 19 17 18 16 17 14 15 15 13 14 14 12 14 12 16 17 15 15 15 15 12
90 90 89 88 88 88 86 82 80 77 77 76 72 70 70 77 44 28 37 47 61 63 19 16 17 17 14 16 17 17 16 14 11 12 12 11 15 12 15 13 14 14 12 12 12
92 91 90 89 89 88 88 84 82 78 77 72 69 68 74 65 28 17 53 59 67 55 14 15 16 17 16 17 15 16 19 14 15 15 12 12 13 12 13 16 14 16 14 13 13
92 92 91 90 89 88 90 86 82 78 73 68 66 66 73 37 54 17 61 65 64 30 18 17 18 19 18 18 13 16 14 13 12 12 15 14 12 12 12 13 11 11 12 12 12
88 91 92 91 90 89 91 88 84 78 70 67 64 68 45 31 28 21 67 56 33 30 18 18 17 16 15 12 12 19 12 11 12 12 12 11 13 14 13 12 10 11 13 12 12
84 87 91 92 91 90 92 89 85 76 71 66 62 67 49 60 21 10 22 34 26 24 17 15 14 12 12 12 12 13 15 14 16 16 15 18 14 14 14 12 12 13 13 12 12
84 78 87 91 91 92 92 90 83 78 73 66 64 54 58 49 21 15 23 19 22 20 19 14 13 14 14 16 13 16 19 15 15 15 14 15 17 16 14 13 14 13 12 12 13
88 84 89 89 92 93 92 88 83 77 71 64 62 54 66 34 25 27 21 20 23 23 19 14 16 19 21 16 18 20 19 21 16 16 15 18 20 15 12 13 12 12 13 13 13
88 86 90 91 94 95 92 88 81 76 72 67 71 69 66 39 38 28 27 26 18 25 21 21 21 23 24 25 21 21 22 21 18 17 17 19 19 14 13 14 14 14 13 14 17
88 88 90 91 95 94 90 83 79 74 69 56 48 87 56 43 28 26 31 26 22 19 30 31 29 27 25 22 29 24 22 19 20 16 18 18 18 14 11 12 17 15 15 19 26
91 91 90 94 96 92 90 92 89 92 76 65 57 49 39 28 26 27 33 32 20 23 34 31 36 30 24 23 21 22 20 20 18 16 21 18 14 12 14 15 17 15 21 28 33
92 93 90 96 94 88 78 89 63 58 71 54 54 49 43 39 39 29 29 29 24 25 29 34 42 28 21 21 23 24 24 22 18 15 16 17 18 16 16 15 15 17 30 35 36
94 94 94 95 92 91 84 73 49 48 81 54 46 51 45 42 51 37 29 28 30 31 25 48 37 25 22 27 30 26 24 22 18 19 21 23 22 17 16 17 26 29 35 39 40
96 96 96 94 91 84 86 70 55 58 98 47 51 46 44 45 55 36 28 32 46 56 46 58 40 40 32 29 24 27 18 19 22 28 25 21 19 18 16 23 30 35 40 40 42
97 95 92 78 90 89 73 67 67 66 88 32 37 26 34 48 34 38 32 34 45 45 51 55 42 50 55 30 22 25 22 28 26 28 28 24 25 14 16 22 30 36 44 45 45
94 91 80 87 91 91 76 74 78 95 93 41 27 37 43 43 37 32 44 34 42 86 86 64 51 58 55 49 40 27 32 30 30 29 38 24 22 15 19 20 27 40 48 50 47
86 82 84 89 96 89 86 95 97 93 38 40 38 42 38 35 40 37 61 60 74 90 83 58 52 29 30 35 35 38 36 47 48 45 35 19 21 16 20 30 35 49 52 51 49
90 89 93 93 94 91 93 98 96 66 40 23 25 29 45 32 35 35 58 69 51 37 38 48 52 28 24 27 30 39 32 45 50 35 25 28 28 37 48 50 52 52 53 52 49
78 92 92 96 91 92 91 93 80 54 41 37 33 48 40 31 26 29 36 42 31 29 39 39 41 30 26 26 28 30 36 23 34 32 34 23 28 51 63 62 58 54 53 53 49
58 64 81 81 90 95 98 74 55 34 32 33 50 77 55 30 32 32 34 28 31 32 30 37 46 33 26 25 23 33 26 51 46 48 39 21 23 31 61 57 46 48 53 53 49
49 57 80 86 94 99 86 56 47 36 32 44 51 66 65 39 32 59 37 37 38 39 34 37 35 37 28 31 27 28 38 49 46 45 46 39 39 56 54 49 48 46 52 56 54
62 83 81 95 99 99 69 48 55 40 36 43 55 57 67 49 62 59 50 43 50 47 45 36 33 31 32 36 28 25 36 35 47 41 44 58 42 50 52 51 49 46 54 56 55
79 84 89 94 97 74 54 46 43 43 41 52 55 60 42 54 46 65 70 66 55 50 44 33 34 43 35 36 34 35 41 39 43 43 48 51 37 56 58 43 45 55 53 55 58
61 94 98 99 92 69 63 54 52 38 42 44 50 60 53 48 39 47 49 46 49 46 56 35 30 26 26 38 38 47 41 35 46 66 42 33 23 38 29 19 25 46 58 55 58
62 76 49 91 80 67 55 47 51 49 44 39 53 70 87 53 45 47 42 47 44 47 44 39 33 33 35 35 34 35 34 31 32 27 42 19 20 19 30 42 44 57 58 62 70
97 56 49 43 52 63 64 49 44 44 44 44 56 43 49 63 46 46 41 38 38 40 42 44 54 42 35 32 34 35 26 26 27 25 24 22 30 38 46 56 72 70 69 70 71
56 55 46 55 49 63 53 44 42 40 45 49 42 41 42 42 38 37 36 36 38 38 44 40 58 46 26 33 32 31 32 26 24 25 41 54 52 50 59 83 74 74 75 77 76

GFSSW_sfc_rhum_105.txt.gz
RH
92 91 90 90 90 88 85 83 79 76 75 75 76 73 70 73 74 32 27 31 32 57 52 14 15 13 11 12 11 12 14 16 14 12 11 8 11 9 9 13 11 12 12 12 12
93 92 91 90 91 91 89 87 83 78 76 76 74 71 71 77 42 33 43 58 55 63 14 14 14 13 14 14 13 15 17 15 11 10 10 9 10 10 11 12 13 10 11 11 11
85 90 92 91 92 91 90 89 86 79 77 76 70 67 73 62 38 22 53 54 59 53 14 12 12 13 14 12 14 15 19 14 11 10 10 11 10 8 10 13 12 13 12 12 11
86 87 89 90 92 92 91 91 87 80 78 72 67 66 71 40 57 21 60 58 66 23 14 14 14 17 17 16 13 17 14 11 11 10 10 12 11 11 11 11 9 9 9 9 11
88 88 87 88 88 93 92 91 88 82 77 69 65 65 47 45 40 28 68 56 29 25 16 17 19 19 21 16 13 15 13 12 9 9 10 9 10 9 9 8 8 9 10 11 11
86 88 88 85 87 89 94 92 88 85 76 68 62 65 52 63 27 23 17 23 18 20 19 17 18 16 18 17 15 13 11 11 11 10 11 11 11 10 11 9 9 9 10 11 11
83 87 89 87 86 88 94 91 89 84 74 66 61 47 55 52 28 21 15 17 21 20 23 19 16 17 16 19 15 15 16 14 12 12 14 12 14 14 10 9 11 10 11 10 10
82 83 86 90 88 88 94 92 88 80 72 63 59 50 66 32 25 27 24 19 17 17 19 17 16 17 19 17 17 19 19 22 16 13 12 13 21 12 10 10 12 11 11 11 11
84 85 88 90 91 91 95 92 86 78 71 66 58 58 53 40 36 27 25 27 23 19 21 18 17 24 23 29 30 27 28 24 19 13 14 14 19 13 11 12 12 11 11 11 12
86 86 89 90 92 95 93 88 84 78 72 53 47 73 45 38 27 22 21 25 28 24 25 28 25 31 27 31 49 37 32 23 22 16 15 16 18 14 11 11 12 11 11 11 13
90 88 90 91 92 95 92 92 92 92 75 55 42 40 32 24 22 24 24 27 24 22 27 27 34 37 33 31 27 28 30 30 18 14 17 18 15 12 12 11 11 12 13 13 17
91 92 93 93 96 90 67 91 58 52 64 56 47 40 31 29 39 30 20 33 31 33 25 34 48 31 27 29 33 33 30 31 26 19 16 17 16 11 10 10 11 12 13 17 23
93 94 94 94 92 91 84 70 46 53 85 48 34 36 34 30 40 36 26 29 33 31 28 31 33 31 35 42 63 55 45 32 41 34 18 17 16 14 12 12 12 12 15 23 26
95 96 95 94 97 92 92 59 49 68 98 42 34 32 29 32 42 28 27 30 34 35 32 34 26 34 41 52 55 73 41 31 36 30 28 16 27 17 13 14 15 20 26 27 31
96 97 96 86 89 93 74 50 60 82 94 18 24 24 27 39 26 23 22 34 41 40 53 46 40 42 44 46 39 59 40 44 38 29 25 24 25 18 13 16 20 24 27 33 35
97 94 91 91 78 68 57 63 85 97 81 30 24 28 33 37 32 22 30 30 37 62 81 67 61 51 37 34 46 57 60 41 36 31 46 41 29 21 18 15 19 27 33 38 38
93 89 82 80 94 66 68 86 98 96 39 37 28 26 30 31 32 28 36 54 55 93 84 65 61 61 46 57 50 63 82 79 76 67 58 24 27 28 19 15 22 35 38 41 39
89 87 90 90 83 83 90 98 98 46 46 26 26 24 35 29 29 28 35 56 42 50 62 83 80 56 47 52 61 56 68 62 73 64 48 29 38 49 36 36 40 39 41 41 38
81 89 94 95 90 91 96 99 75 69 39 36 29 35 34 29 28 28 32 48 44 42 59 51 42 25 26 28 30 61 55 35 46 41 42 49 48 54 49 48 43 43 41 40 38
73 84 95 92 92 95 99 83 50 35 30 29 45 58 43 35 33 26 28 31 42 42 32 49 57 27 24 22 24 33 35 50 54 68 45 32 40 52 63 49 40 39 40 37 35
80 92 90 86 94 99 89 57 40 28 26 35 39 55 45 43 30 29 34 29 35 28 28 37 40 43 28 30 36 30 60 54 58 54 56 48 62 64 58 43 41 39 38 37 38
64 98 91 96 100 99 72 50 49 35 30 34 39 44 45 45 35 53 40 34 35 28 38 39 45 49 32 30 25 26 27 41 76 55 64 46 53 50 42 40 34 33 35 36 40
95 90 95 97 100 90 55 45 38 39 36 43 46 41 38 51 52 84 44 50 46 38 40 35 46 42 36 32 26 25 24 29 33 38 40 51 48 43 41 32 22 18 35 36 42
76 98 100 99 94 75 62 55 46 33 36 40 60 44 47 50 40 62 68 57 43 38 55 41 35 38 42 37 29 37 28 25 35 60 38 28 20 37 19 20 29 38 42 40 48
83 82 59 96 94 61 58 50 48 46 35 35 58 54 57 61 51 51 46 49 42 49 37 38 45 31 24 25 24 28 28 26 27 27 35 20 17 15 35 41 51 46 47 50 57
98 60 45 47 50 59 70 62 43 39 37 45 52 48 56 66 49 45 41 39 38 37 35 35 39 36 32 25 24 24 18 18 19 19 20 17 18 41 41 43 64 64 61 61 64
69 54 48 56 52 66 68 45 41 45 40 42 46 43 58 58 36 31 29 31 33 37 40 40 51 39 26 26 24 25 25 21 18 15 23 33 46 44 60 80 84 77 68 69 70

GFSSW_sfc_rhum_108.txt.gz
RH
95 94 93 92 92 91 89 87 86 79 75 75 76 76 72 76 70 36 40 38 34 53 44 13 14 16 16 15 13 12 18 20 17 15 13 9 9 9 8 9 11 10 12 12 13
84 87 93 94 94 93 92 91 89 83 77 76 76 73 73 77 47 42 48 62 61 55 12 13 16 14 15 15 15 16 20 20 15 13 13 10 10 9 10 12 13 13 12 12 13
80 82 83 87 91 94 93 92 91 85 80 76 75 70 74 63 45 24 58 59 56 49 16 14 15 16 19 16 16 16 21 18 16 14 13 13 12 10 11 12 11 14 13 13 14
82 85 85 86 86 90 94 93 92 86 81 77 71 67 71 46 52 26 59 59 62 24 17 18 18 21 22 23 18 20 16 16 15 14 13 12 11 12 12 13 10 10 10 11 12
85 86 85 84 86 86 93 95 93 88 82 75 68 65 53 57 50 29 70 57 30 21 23 22 22 23 26 22 20 21 18 15 14 13 13 11 12 12 11 9 8 8 9 11 12
85 84 85 87 89 87 88 96 93 90 84 74 66 66 58 72 30 26 29 25 24 22 24 23 23 22 24 25 25 21 19 17 15 13 12 14 13 12 11 9 9 9 10 10 12
86 84 86 86 86 89 87 91 93 90 82 71 64 51 63 60 28 24 24 22 18 24 26 22 22 24 24 27 20 20 23 19 18 17 16 13 16 16 13 12 12 11 11 10 11
82 84 86 86 86 89 90 92 93 88 81 68 61 57 70 31 26 29 26 25 22 18 20 20 22 25 26 23 24 27 27 34 23 19 16 16 24 15 12 12 12 11 12 12 12
84 87 89 88 89 91 92 95 92 86 77 70 66 63 55 36 36 28 26 29 26 22 20 19 24 30 28 33 35 32 40 37 30 21 18 18 22 15 12 13 12 12 12 12 13
85 88 89 89 91 92 95 92 88 83 76 57 52 70 49 34 22 25 19 26 30 29 30 29 30 38 32 34 52 37 32 29 32 25 21 20 20 15 13 12 15 13 12 12 13
87 88 90 93 92 96 92 93 94 94 80 61 47 42 31 22 22 24 20 26 27 33 40 29 37 42 30 27 29 30 31 34 28 23 28 30 28 17 14 15 15 14 13 13 14
87 88 90 92 95 90 74 87 59 51 64 63 51 41 32 26 35 25 21 28 33 39 30 30 32 24 22 24 30 34 41 44 39 29 29 35 44 42 15 14 13 13 12 14 16
88 90 92 94 95 94 87 75 47 47 62 43 37 47 38 31 37 31 24 28 31 36 33 36 28 21 24 32 36 34 38 45 47 37 34 39 53 43 23 14 12 12 11 14 24
89 91 96 97 98 93 93 63 57 60 85 38 29 28 26 29 33 23 23 28 32 36 34 35 26 27 26 33 32 46 34 39 46 56 80 44 81 46 25 19 13 12 16 27 31
89 96 98 86 88 96 76 58 64 77 74 11 18 19 22 29 24 23 22 28 39 38 37 42 34 37 38 31 27 42 55 60 72 75 64 59 63 43 24 28 22 23 28 36 37
95 97 95 93 78 74 59 68 86 98 76 23 22 30 31 31 30 21 24 26 32 40 39 48 50 54 48 40 37 56 70 66 67 70 94 58 52 60 41 26 19 26 40 39 38
97 96 92 81 93 61 69 94 100 92 23 22 21 24 27 30 34 32 31 37 48 73 69 48 55 46 45 50 38 54 91 91 91 92 68 36 52 59 36 48 25 55 46 41 41
91 89 90 85 69 70 93 99 99 34 36 21 24 19 28 25 27 30 33 34 40 44 46 56 62 45 45 48 49 52 77 73 90 83 56 41 89 72 69 54 60 66 56 41 41
84 93 96 96 89 91 98 99 75 42 26 30 26 31 28 25 28 30 35 33 30 44 70 50 48 35 38 40 42 75 90 57 68 72 93 74 55 56 68 60 64 70 56 40 39
81 91 96 94 96 98 100 86 62 42 46 40 53 52 42 33 36 46 35 28 28 41 34 60 57 45 38 34 35 49 45 96 94 88 86 45 56 84 68 63 51 53 44 39 37
96 98 94 95 96 99 98 86 60 44 42 36 42 41 46 44 39 63 69 32 28 37 36 58 44 53 43 38 31 36 42 79 96 56 78 61 96 94 92 81 55 42 38 40 41
98 100 94 98 100 100 92 61 63 48 29 29 33 38 40 41 43 38 56 53 38 47 60 45 44 56 43 25 24 28 36 70 98 94 88 82 78 83 87 62 36 32 35 38 42
98 99 96 96 99 97 68 55 51 36 35 35 37 36 37 46 53 50 50 54 41 36 39 42 53 55 62 42 27 31 34 31 42 45 49 60 52 81 54 33 35 40 39 44 47
99 100 100 100 97 87 70 64 61 34 34 33 37 42 41 46 38 56 63 53 41 36 52 43 42 48 64 60 36 39 28 24 35 66 50 40 46 56 37 36 47 46 45 49 52
99 97 62 96 97 83 65 49 56 52 34 35 48 49 48 53 45 55 57 54 44 50 41 42 54 40 32 24 23 28 24 23 26 27 46 30 22 47 53 59 57 51 50 53 57
100 98 65 50 62 79 72 67 48 42 40 40 52 45 47 55 47 53 66 50 53 41 46 46 62 48 43 26 23 24 17 18 21 21 19 17 22 53 60 62 68 64 63 63 62
69 60 80 63 88 71 66 60 55 42 41 32 40 46 51 53 48 37 37 39 36 51 60 49 58 46 42 29 24 29 27 19 21 17 26 32 54 48 72 78 81 75 70 71 71

GFSSW_sfc_rhum_111.txt.gz
RH
86 89 94 95 94 94 92 91 88 87 82 80 79 78 76 79 75 48 53 53 45 56 50 15 15 20 23 29 26 24 36 31 29 25 20 15 18 14 13 15 16 16 19 16 19
82 81 80 86 92 95 94 93 92 90 85 80 79 78 78 79 59 56 52 59 58 55 18 15 19 21 26 24 25 28 38 30 22 19 21 18 18 16 15 16 17 18 17 17 17
77 79 80 85 88 88 93 95 93 92 88 82 79 75 78 70 60 37 57 54 56 51 20 20 21 23 27 28 27 27 28 22 20 18 18 19 18 15 15 18 19 21 20 18 19
81 79 79 78 85 89 88 92 95 93 89 83 76 71 75 61 64 32 60 61 59 38 22 23 26 30 32 32 26 30 24 21 19 17 18 18 17 17 15 16 15 14 15 16 18
86 86 82 78 80 88 90 88 96 94 90 83 74 66 62 71 64 40 68 63 41 25 25 25 32 32 34 31 30 30 27 24 22 20 19 17 17 17 16 13 12 11 10 13 15
88 88 87 85 86 89 90 90 91 95 90 83 72 65 71 89 37 33 34 43 27 29 30 30 35 31 35 34 36 31 29 28 24 21 20 21 20 17 16 14 13 12 12 13 16
89 88 87 87 87 78 81 90 90 95 90 81 70 57 71 74 42 37 36 38 34 31 34 30 30 36 37 40 33 30 36 30 28 26 25 21 24 23 17 15 15 15 13 14 15
86 85 87 89 90 81 80 90 90 94 88 78 65 62 85 45 43 44 47 44 33 30 26 26 26 33 39 35 34 38 38 45 32 28 26 28 37 23 18 17 17 16 15 14 16
85 86 89 91 92 88 87 91 94 91 83 73 76 73 85 42 49 39 36 38 32 30 30 20 31 42 43 53 56 49 57 48 39 29 29 31 36 25 28 23 17 16 16 16 18
85 87 89 92 93 92 93 92 89 86 78 66 62 80 64 42 34 32 32 32 37 38 41 39 43 52 57 62 74 58 56 45 41 31 39 43 37 27 26 28 24 17 20 19 20
86 87 89 91 93 96 92 96 97 95 84 83 73 65 36 30 24 31 25 30 35 46 58 47 60 65 54 49 43 41 42 40 34 32 40 44 43 46 37 36 34 20 19 19 34
86 86 89 92 96 90 79 96 73 70 90 80 63 60 43 37 44 31 29 38 45 53 47 54 58 42 37 38 37 34 39 45 38 32 39 44 51 41 36 38 35 30 18 20 39
88 88 90 93 95 93 91 83 60 60 89 56 70 68 59 48 55 45 33 36 41 47 47 53 43 32 32 34 32 32 44 44 43 36 42 50 53 45 35 32 31 26 16 18 39
89 89 91 95 98 96 95 77 59 66 98 60 42 43 45 43 50 36 32 36 42 47 44 47 35 38 39 38 35 45 38 59 64 75 88 65 85 53 43 38 33 34 24 41 46
89 90 91 86 94 98 80 61 67 75 100 25 25 24 31 47 33 32 30 37 47 46 49 51 45 45 63 51 50 57 64 69 73 81 76 69 86 56 42 39 34 42 39 48 47
91 93 95 96 92 79 64 68 85 98 93 34 31 34 38 43 34 30 32 36 41 53 51 48 56 62 65 51 52 60 71 66 74 83 96 61 65 61 48 48 57 53 47 46 45
95 96 98 83 95 62 68 92 100 98 31 24 29 33 37 40 37 35 37 51 62 81 80 60 61 59 53 66 55 78 81 95 93 96 86 39 64 66 48 54 63 68 71 50 48
90 97 94 91 69 64 90 100 98 52 42 22 26 24 35 30 33 38 43 51 52 57 64 73 75 50 53 61 62 75 76 89 94 94 87 64 92 76 77 87 85 78 75 60 49
85 96 96 96 79 84 98 99 83 56 32 35 30 33 33 28 30 33 43 47 40 48 69 70 56 44 41 46 54 75 91 61 86 78 92 75 69 69 83 91 89 75 69 59 48
90 97 97 97 95 98 99 86 70 48 37 45 61 56 42 35 34 39 61 40 40 36 47 62 82 46 44 48 50 62 58 95 96 93 90 60 77 97 97 98 94 78 56 55 58
96 98 98 98 96 99 98 97 70 48 41 54 63 63 59 54 49 61 68 59 52 51 44 62 67 60 50 62 62 60 70 80 88 96 96 86 98 99 100 98 93 80 58 53 53
98 99 97 99 100 100 97 85 63 59 46 54 54 54 57 48 49 50 66 62 49 52 65 64 68 71 56 45 42 39 54 63 98 94 98 98 98 91 84 87 78 52 53 55 56
99 100 98 98 99 98 87 68 58 64 69 68 44 44 46 55 63 63 66 64 50 56 80 78 98 83 62 60 53 48 43 64 70 84 82 83 92 77 82 59 51 58 57 56 58
99 99 100 100 99 96 80 90 91 75 53 52 40 39 56 58 54 63 82 59 54 44 62 57 59 62 70 77 69 57 39 39 58 86 72 57 82 82 61 63 61 62 60 60 62
100 99 87 98 97 98 80 79 74 77 48 40 50 56 65 70 61 60 62 67 53 51 50 60 72 56 43 50 35 31 31 31 39 43 62 45 74 83 78 77 71 64 61 63 68
100 99 90 86 73 92 89 97 86 67 65 49 65 58 58 67 60 72 84 88 68 50 59 59 84 61 64 40 29 33 25 24 26 26 30 55 88 73 73 72 78 72 71 73 71
98 91 97 98 92 90 83 76 71 66 52 43 48 56 61 59 59 53 66 62 54 59 68 65 76 70 81 48 42 43 52 41 48 62 56 77 78 72 79 82 89 82 79 81 79

GFSSW_sfc_rhum_114.txt.gz
RH
85 84 83 87 91 96 95 93 92 91 88 85 84 82 80 81 77 55 63 54 54 60 52 18 17 20 28 33 33 28 38 46 37 32 26 18 21 22 16 17 16 16 20 20 21
79 79 80 85 87 86 89 94 94 93 91 86 85 82 82 81 69 65 59 61 61 54 22 19 19 26 32 30 29 32 42 35 27 26 23 20 20 21 20 20 19 19 18 22 24
77 76 76 78 85 90 90 89 94 95 92 88 84 80 80 76 64 52 61 60 60 54 23 22 24 31 36 33 31 34 32 27 23 22 22 22 21 18 21 23 20 21 20 18 19
81 80 78 78 78 86 90 91 88 93 93 88 82 75 77 66 40 35 60 62 63 43 27 25 31 39 37 37 32 39 30 28 27 26 26 26 23 23 21 21 16 17 16 16 14
88 86 82 80 79 86 90 92 91 91 95 88 80 67 65 79 70 46 66 65 46 28 28 30 37 41 41 37 37 41 37 32 31 30 29 25 25 24 23 19 16 14 14 14 17
89 90 89 85 83 88 88 88 91 91 95 89 79 64 71 89 39 38 38 45 37 34 32 31 38 38 42 42 48 39 39 38 33 32 29 28 26 26 23 21 18 17 16 15 16
87 91 91 88 88 89 80 76 89 87 94 88 77 60 73 74 47 46 44 47 44 35 36 34 34 43 41 44 39 37 44 38 38 35 32 27 31 32 24 22 20 18 17 16 16
86 88 88 89 91 92 81 79 88 85 93 86 72 62 86 49 52 53 54 56 46 42 38 32 33 38 45 40 41 45 48 61 39 36 31 38 42 32 26 28 29 25 23 19 18
87 87 89 90 91 93 91 88 87 91 90 77 75 78 85 53 55 48 50 49 43 41 41 29 32 42 48 59 70 60 73 59 48 32 36 43 44 36 29 32 32 34 32 29 20
85 88 89 91 92 93 95 92 91 86 80 68 67 86 71 49 41 38 45 42 46 45 46 40 45 55 65 72 82 69 68 62 60 43 45 45 41 32 34 37 35 34 33 31 25
86 88 89 90 92 96 93 97 93 94 88 86 75 72 43 40 34 40 35 42 44 49 62 54 65 70 56 60 54 54 56 56 47 36 42 41 40 40 36 37 35 33 32 32 53
88 89 90 90 93 92 82 96 76 77 95 83 71 70 48 44 49 40 33 46 50 63 59 68 72 54 48 52 56 57 60 55 38 35 40 44 48 41 37 35 32 32 32 49 53
89 90 91 91 95 96 95 85 68 71 93 72 73 76 62 57 61 48 40 42 50 57 56 67 53 43 47 50 51 50 51 45 44 58 51 54 61 44 35 37 33 31 31 43 57
90 89 91 92 96 95 96 75 74 68 99 64 64 65 61 54 65 42 33 44 50 54 56 58 44 45 46 47 45 56 58 61 66 73 77 67 81 47 40 39 38 35 57 65 64
84 85 91 93 94 98 84 81 77 76 48 28 45 40 52 51 38 46 38 47 51 53 55 60 54 52 52 47 52 64 66 69 75 88 92 70 95 48 38 42 41 66 78 81 77
82 84 91 98 96 85 77 79 86 94 76 40 38 55 65 51 45 36 45 42 44 58 56 55 58 52 53 54 54 66 70 71 82 92 99 63 74 73 56 60 64 73 75 76 71
85 90 96 86 88 78 72 93 99 97 40 35 41 53 55 58 53 42 45 53 62 78 78 63 64 63 58 71 64 73 78 90 90 86 88 59 70 67 93 93 80 83 86 79 67
85 89 96 93 82 76 93 99 100 61 50 27 33 36 49 48 50 46 50 60 57 59 73 82 76 69 59 62 70 80 75 91 92 94 92 61 92 98 94 92 92 82 83 85 76
81 94 96 94 84 89 96 99 76 59 41 40 32 37 37 40 39 46 49 49 47 56 64 75 67 49 56 57 55 78 90 66 87 90 97 75 81 76 94 99 98 98 95 95 87
97 96 96 95 94 98 99 96 74 49 43 47 68 57 52 36 41 41 53 53 45 48 50 62 69 53 50 52 56 64 65 94 97 96 96 74 92 94 100 100 100 100 100 100 91
96 99 97 98 94 100 99 92 66 48 50 55 60 68 61 58 54 68 62 61 58 59 49 67 70 69 57 64 71 75 74 84 84 95 98 96 97 98 100 94 96 98 95 79 67
99 96 97 97 100 100 98 79 63 63 56 60 66 68 68 61 58 57 74 61 54 55 68 84 79 92 61 55 51 53 62 75 96 91 98 95 96 94 86 82 73 73 73 72 72
99 99 97 100 98 96 97 89 71 74 62 63 64 62 58 62 73 66 65 66 55 69 83 88 100 97 89 64 57 62 53 56 68 91 93 92 91 89 84 71 58 66 65 65 66
100 99 100 100 99 97 96 97 87 71 81 71 65 61 53 58 57 65 80 66 63 65 80 86 99 98 85 72 64 62 48 59 76 97 82 73 88 82 89 73 67 68 70 69 69
100 100 88 98 98 93 81 71 76 96 76 79 78 64 65 72 63 67 76 69 58 64 65 85 93 78 57 58 55 51 34 38 56 58 71 60 85 92 82 81 77 70 67 71 74
100 100 98 94 80 93 97 98 81 72 69 90 99 86 67 72 64 71 80 88 73 56 72 74 97 95 91 55 40 35 28 31 29 45 77 78 94 76 75 73 77 73 73 76 73
99 95 99 89 91 92 81 75 78 76 72 57 67 65 66 68 64 58 76 80 74 60 77 85 96 96 94 74 69 67 48 53 65 66 68 83 77 77 85 83 81 84 79 80 81

GFSSW_sfc_rhum_117.txt.gz
RH
84 83 83 85 84 84 87 93 94 94 93 92 88 85 84 84 79 65 69 56 60 71 53 21 20 23 30 36 36 31 40 50 41 35 28 22 26 25 20 19 21 19 23 20 27
77 77 77 81 86 87 88 88 89 94 94 93 88 85 85 83 75 72 61 63 69 58 20 19 22 28 34 35 34 35 45 39 30 30 28 24 26 25 24 24 24 21 20 24 21
77 76 75 77 82 86 89 91 90 88 93 94 88 84 84 78 62 45 65 68 59 53 25 23 26 34 41 39 39 40 38 32 27 25 31 31 29 24 26 27 23 24 21 20 23
81 80 78 78 78 83 89 90 91 88 90 94 85 81 80 67 20 53 62 57 62 44 29 28 36 42 44 42 40 44 34 35 34 33 36 36 31 30 27 26 21 20 20 19 18
85 86 83 81 79 83 90 91 90 91 90 93 81 72 71 82 72 52 62 64 50 34 33 33 42 44 47 43 43 46 42 38 37 35 35 32 34 31 31 25 24 21 19 20 20
86 88 89 86 83 84 90 84 83 90 89 92 79 66 79 90 45 44 46 45 52 45 37 32 40 44 50 51 54 45 47 44 40 38 38 36 34 35 29 25 25 24 25 24 23
85 89 90 87 85 88 80 75 80 82 82 91 79 61 79 76 55 56 53 58 52 42 39 35 38 45 48 44 44 42 49 45 42 42 38 34 39 36 26 32 32 31 30 30 30
82 89 89 89 90 92 87 74 82 82 75 89 76 63 91 54 61 59 64 61 54 52 46 42 42 44 44 41 46 51 55 65 43 39 34 46 48 36 36 28 30 36 35 32 30
86 86 88 90 91 92 92 88 85 86 90 81 76 77 86 55 55 50 55 59 48 48 45 34 42 46 49 59 70 70 79 67 50 38 40 43 44 42 28 31 34 39 37 37 34
83 85 89 90 92 93 94 89 90 86 78 68 68 87 72 43 42 44 57 49 51 46 49 52 52 63 66 70 82 74 78 76 68 43 42 47 44 32 32 40 40 38 36 39 50
83 87 89 90 91 95 94 96 87 89 92 87 77 72 54 43 41 44 47 50 52 53 66 54 64 71 57 63 58 62 66 69 59 46 49 46 42 36 37 41 39 34 35 44 75
85 88 89 91 92 94 83 96 80 80 93 82 77 74 57 55 58 41 42 52 58 69 62 71 79 56 54 56 61 62 68 69 57 47 46 50 48 40 41 41 37 36 41 69 71
87 89 90 92 91 98 96 85 85 67 98 78 80 80 70 64 66 54 45 50 58 64 67 78 61 53 57 62 63 63 68 65 61 63 58 61 61 44 34 36 34 35 37 60 71
90 90 91 91 98 96 92 82 87 73 99 65 78 72 66 63 77 44 41 45 56 58 60 66 50 51 55 60 59 73 51 58 67 71 86 70 80 45 44 54 62 75 84 78 75
90 84 89 93 94 96 81 80 84 75 44 37 65 49 58 67 44 56 40 51 59 59 60 65 58 62 63 54 50 58 64 65 75 87 91 86 90 74 66 81 91 85 84 89 86
87 83 87 97 99 85 87 83 87 80 38 38 61 70 77 63 53 54 53 50 49 60 63 59 60 52 54 53 55 66 67 71 88 90 99 69 70 82 92 95 87 81 78 78 81
86 84 89 87 93 86 84 93 97 85 33 36 56 69 69 68 58 50 67 66 72 85 86 66 63 62 58 69 73 74 72 96 94 96 90 63 78 94 94 93 93 94 95 95 92
86 87 95 90 86 87 96 100 99 62 59 36 42 61 66 57 58 53 67 78 61 62 76 81 73 76 64 59 77 80 76 89 92 93 90 70 85 96 95 88 89 92 95 96 98
84 97 97 99 90 93 96 98 80 68 48 47 33 43 50 52 50 57 62 63 58 57 61 80 73 56 62 61 59 80 88 70 87 91 98 81 95 97 95 94 92 96 94 98 98
98 98 97 94 94 98 99 83 77 50 48 53 57 51 49 42 57 60 59 51 50 52 52 63 72 56 57 57 62 66 64 89 94 91 91 79 88 96 99 100 100 100 100 100 97
96 99 93 98 97 99 98 82 59 51 49 56 64 70 66 64 54 60 55 55 54 58 51 63 69 70 64 71 79 75 84 84 83 92 93 96 91 91 99 96 97 98 98 97 96
99 100 94 99 100 100 97 81 65 62 51 60 71 70 70 65 65 60 68 65 57 63 73 77 86 88 69 60 57 60 66 86 93 96 92 96 92 77 89 86 85 78 83 86 86
99 100 95 100 97 95 83 75 67 66 64 71 64 66 68 72 77 67 63 68 60 72 84 87 93 99 91 85 74 91 65 66 79 86 94 96 85 85 80 83 72 72 70 71 69
99 99 100 100 98 92 92 96 87 78 74 76 72 66 70 70 66 68 76 72 64 72 83 82 93 86 78 83 80 93 73 63 75 98 90 88 86 93 92 74 74 75 75 76 74
100 100 89 98 98 95 86 84 88 92 75 76 73 82 80 80 70 73 80 73 62 81 90 85 95 96 91 84 91 93 79 71 68 73 82 67 89 83 86 76 76 74 73 72 72
99 99 98 97 82 96 91 85 87 76 67 96 94 80 89 84 83 65 79 77 72 72 81 86 93 95 92 72 62 75 46 30 50 57 65 74 91 76 74 75 85 80 76 74 74
99 94 97 93 93 94 83 81 72 73 68 62 75 88 85 88 84 70 64 76 74 66 86 90 96 97 90 89 96 97 65 36 67 70 78 88 80 80 88 87 87 85 77 86 77